<?xml version="1.0" encoding="UTF-8" standalone="no" ?>
<gpx xmlns="http://www.topografix.com/GPX/1/1" xmlns:xsi="http://www.w3.org/2001/XMLSchema-instance" xsi:schemaLocation="http://www.topografix.com/GPX/1/1 http://www.topografix.com/GPX/1/1/gpx.xsd" version="1.1" creator="VisuGPX - https://www.visugpx.com">
  <metadata>
    <name>verel2</name>
  </metadata>
  <trk>
    <name><![CDATA[250302-Verel]]></name>
    <trkseg>
      <trkpt lat="45.61033" lon="5.93134">
        <ele>302.3</ele>
        <time>2025-03-02T10:15:12</time>
      </trkpt>
      <trkpt lat="45.61033" lon="5.93134">
        <ele>302.3</ele>
        <time>2025-03-02T10:15:13</time>
      </trkpt>
      <trkpt lat="45.61032" lon="5.93134">
        <ele>302.4</ele>
        <time>2025-03-02T10:15:15</time>
      </trkpt>
      <trkpt lat="45.61032" lon="5.93134">
        <ele>302.4</ele>
        <time>2025-03-02T10:15:16</time>
      </trkpt>
      <trkpt lat="45.61032" lon="5.93134">
        <ele>302.4</ele>
        <time>2025-03-02T10:15:17</time>
      </trkpt>
      <trkpt lat="45.61032" lon="5.93134">
        <ele>302.4</ele>
        <time>2025-03-02T10:15:20</time>
      </trkpt>
      <trkpt lat="45.61032" lon="5.93133">
        <ele>302.4</ele>
        <time>2025-03-02T10:15:22</time>
      </trkpt>
      <trkpt lat="45.61032" lon="5.93133">
        <ele>302.56668</ele>
        <time>2025-03-02T10:15:24</time>
      </trkpt>
      <trkpt lat="45.61032" lon="5.93133">
        <ele>302.56668</ele>
        <time>2025-03-02T10:15:25</time>
      </trkpt>
      <trkpt lat="45.61032" lon="5.93133">
        <ele>302.56668</ele>
        <time>2025-03-02T10:15:26</time>
      </trkpt>
      <trkpt lat="45.61032" lon="5.93133">
        <ele>302.56668</ele>
        <time>2025-03-02T10:15:27</time>
      </trkpt>
      <trkpt lat="45.61032" lon="5.93134">
        <ele>302.56668</ele>
        <time>2025-03-02T10:15:28</time>
      </trkpt>
      <trkpt lat="45.61032" lon="5.93134">
        <ele>302.56668</ele>
        <time>2025-03-02T10:15:30</time>
      </trkpt>
      <trkpt lat="45.61032" lon="5.93135">
        <ele>302.56668</ele>
        <time>2025-03-02T10:15:31</time>
      </trkpt>
      <trkpt lat="45.61032" lon="5.93135">
        <ele>302.36667</ele>
        <time>2025-03-02T10:15:32</time>
      </trkpt>
      <trkpt lat="45.61032" lon="5.93136">
        <ele>302.36667</ele>
        <time>2025-03-02T10:15:33</time>
      </trkpt>
      <trkpt lat="45.61033" lon="5.93137">
        <ele>302.36667</ele>
        <time>2025-03-02T10:15:36</time>
      </trkpt>
      <trkpt lat="45.61033" lon="5.93137">
        <ele>302.36667</ele>
        <time>2025-03-02T10:15:37</time>
      </trkpt>
      <trkpt lat="45.61033" lon="5.93137">
        <ele>302.36667</ele>
        <time>2025-03-02T10:15:37</time>
      </trkpt>
      <trkpt lat="45.61033" lon="5.93137">
        <ele>302.36667</ele>
        <time>2025-03-02T10:15:38</time>
      </trkpt>
      <trkpt lat="45.61033" lon="5.93137">
        <ele>302.36667</ele>
        <time>2025-03-02T10:15:38</time>
      </trkpt>
      <trkpt lat="45.61032" lon="5.93137">
        <ele>302.36667</ele>
        <time>2025-03-02T10:15:39</time>
      </trkpt>
      <trkpt lat="45.61031" lon="5.93136">
        <ele>302.1</ele>
        <time>2025-03-02T10:15:40</time>
      </trkpt>
      <trkpt lat="45.61026" lon="5.93137">
        <ele>302.1</ele>
        <time>2025-03-02T10:15:44</time>
      </trkpt>
      <trkpt lat="45.61025" lon="5.93138">
        <ele>302.1</ele>
        <time>2025-03-02T10:15:46</time>
      </trkpt>
      <trkpt lat="45.61019" lon="5.9314">
        <ele>301.16666</ele>
        <time>2025-03-02T10:15:50</time>
      </trkpt>
      <trkpt lat="45.61012" lon="5.93145">
        <ele>300</ele>
        <time>2025-03-02T10:15:56</time>
      </trkpt>
      <trkpt lat="45.61011" lon="5.93145">
        <ele>300</ele>
        <time>2025-03-02T10:15:58</time>
      </trkpt>
      <trkpt lat="45.6101" lon="5.93145">
        <ele>300</ele>
        <time>2025-03-02T10:15:58</time>
      </trkpt>
      <trkpt lat="45.61009" lon="5.93145">
        <ele>300</ele>
        <time>2025-03-02T10:16:00</time>
      </trkpt>
      <trkpt lat="45.61008" lon="5.93145">
        <ele>300</ele>
        <time>2025-03-02T10:16:00</time>
      </trkpt>
      <trkpt lat="45.61007" lon="5.93146">
        <ele>300</ele>
        <time>2025-03-02T10:16:01</time>
      </trkpt>
      <trkpt lat="45.61007" lon="5.93146">
        <ele>300</ele>
        <time>2025-03-02T10:16:01</time>
      </trkpt>
      <trkpt lat="45.61006" lon="5.93146">
        <ele>300</ele>
        <time>2025-03-02T10:16:02</time>
      </trkpt>
      <trkpt lat="45.60989" lon="5.93148">
        <ele>296.8</ele>
        <time>2025-03-02T10:16:17</time>
      </trkpt>
      <trkpt lat="45.60987" lon="5.93147">
        <ele>296.8</ele>
        <time>2025-03-02T10:16:19</time>
      </trkpt>
      <trkpt lat="45.60978" lon="5.93148">
        <ele>298.3</ele>
        <time>2025-03-02T10:16:25</time>
      </trkpt>
      <trkpt lat="45.60975" lon="5.93149">
        <ele>298.3</ele>
        <time>2025-03-02T10:16:27</time>
      </trkpt>
      <trkpt lat="45.60971" lon="5.93149">
        <ele>299.9</ele>
        <time>2025-03-02T10:16:31</time>
      </trkpt>
      <trkpt lat="45.60969" lon="5.93149">
        <ele>299.9</ele>
        <time>2025-03-02T10:16:32</time>
      </trkpt>
      <trkpt lat="45.60964" lon="5.93148">
        <ele>299.9</ele>
        <time>2025-03-02T10:16:37</time>
      </trkpt>
      <trkpt lat="45.60961" lon="5.93149">
        <ele>300.1</ele>
        <time>2025-03-02T10:16:40</time>
      </trkpt>
      <trkpt lat="45.60958" lon="5.93149">
        <ele>300.1</ele>
        <time>2025-03-02T10:16:42</time>
      </trkpt>
      <trkpt lat="45.60955" lon="5.93148">
        <ele>299.8</ele>
        <time>2025-03-02T10:16:45</time>
      </trkpt>
      <trkpt lat="45.60949" lon="5.93148">
        <ele>299.8</ele>
        <time>2025-03-02T10:16:50</time>
      </trkpt>
      <trkpt lat="45.60947" lon="5.93148">
        <ele>300.8</ele>
        <time>2025-03-02T10:16:51</time>
      </trkpt>
      <trkpt lat="45.60936" lon="5.93148">
        <ele>301.8</ele>
        <time>2025-03-02T10:17:00</time>
      </trkpt>
      <trkpt lat="45.6093" lon="5.93146">
        <ele>302.5</ele>
        <time>2025-03-02T10:17:05</time>
      </trkpt>
      <trkpt lat="45.60927" lon="5.93143">
        <ele>302.5</ele>
        <time>2025-03-02T10:17:09</time>
      </trkpt>
      <trkpt lat="45.60925" lon="5.93142">
        <ele>302.5</ele>
        <time>2025-03-02T10:17:10</time>
      </trkpt>
      <trkpt lat="45.60922" lon="5.93141">
        <ele>302.7</ele>
        <time>2025-03-02T10:17:13</time>
      </trkpt>
      <trkpt lat="45.6091" lon="5.93134">
        <ele>302.1</ele>
        <time>2025-03-02T10:17:24</time>
      </trkpt>
      <trkpt lat="45.60909" lon="5.93133">
        <ele>302.1</ele>
        <time>2025-03-02T10:17:25</time>
      </trkpt>
      <trkpt lat="45.60908" lon="5.93132">
        <ele>302.1</ele>
        <time>2025-03-02T10:17:26</time>
      </trkpt>
      <trkpt lat="45.60907" lon="5.93131">
        <ele>302.1</ele>
        <time>2025-03-02T10:17:26</time>
      </trkpt>
      <trkpt lat="45.60906" lon="5.93131">
        <ele>302.1</ele>
        <time>2025-03-02T10:17:28</time>
      </trkpt>
      <trkpt lat="45.60906" lon="5.93132">
        <ele>302.1</ele>
        <time>2025-03-02T10:17:29</time>
      </trkpt>
      <trkpt lat="45.60874" lon="5.9314">
        <ele>300.7</ele>
        <time>2025-03-02T10:17:54</time>
      </trkpt>
      <trkpt lat="45.60872" lon="5.93141">
        <ele>301.2</ele>
        <time>2025-03-02T10:17:56</time>
      </trkpt>
      <trkpt lat="45.60865" lon="5.93142">
        <ele>301.2</ele>
        <time>2025-03-02T10:18:00</time>
      </trkpt>
      <trkpt lat="45.6086" lon="5.93143">
        <ele>301.13333</ele>
        <time>2025-03-02T10:18:03</time>
      </trkpt>
      <trkpt lat="45.60837" lon="5.93147">
        <ele>301.3</ele>
        <time>2025-03-02T10:18:20</time>
      </trkpt>
      <trkpt lat="45.60831" lon="5.93148">
        <ele>301.3</ele>
        <time>2025-03-02T10:18:25</time>
      </trkpt>
      <trkpt lat="45.60824" lon="5.93148">
        <ele>301.86667</ele>
        <time>2025-03-02T10:18:30</time>
      </trkpt>
      <trkpt lat="45.60821" lon="5.93148">
        <ele>301.86667</ele>
        <time>2025-03-02T10:18:32</time>
      </trkpt>
      <trkpt lat="45.60816" lon="5.93146">
        <ele>301.7</ele>
        <time>2025-03-02T10:18:36</time>
      </trkpt>
      <trkpt lat="45.60814" lon="5.93146">
        <ele>301.7</ele>
        <time>2025-03-02T10:18:38</time>
      </trkpt>
      <trkpt lat="45.6081" lon="5.93146">
        <ele>300.3</ele>
        <time>2025-03-02T10:18:41</time>
      </trkpt>
      <trkpt lat="45.60808" lon="5.93147">
        <ele>300.3</ele>
        <time>2025-03-02T10:18:43</time>
      </trkpt>
      <trkpt lat="45.60806" lon="5.93147">
        <ele>300.3</ele>
        <time>2025-03-02T10:18:44</time>
      </trkpt>
      <trkpt lat="45.60804" lon="5.93148">
        <ele>300.3</ele>
        <time>2025-03-02T10:18:45</time>
      </trkpt>
      <trkpt lat="45.60803" lon="5.93149">
        <ele>300.3</ele>
        <time>2025-03-02T10:18:46</time>
      </trkpt>
      <trkpt lat="45.60802" lon="5.93151">
        <ele>300.3</ele>
        <time>2025-03-02T10:18:48</time>
      </trkpt>
      <trkpt lat="45.60802" lon="5.93153">
        <ele>300.3</ele>
        <time>2025-03-02T10:18:49</time>
      </trkpt>
      <trkpt lat="45.60802" lon="5.93155">
        <ele>299.16666</ele>
        <time>2025-03-02T10:18:50</time>
      </trkpt>
      <trkpt lat="45.60802" lon="5.93157">
        <ele>299.16666</ele>
        <time>2025-03-02T10:18:51</time>
      </trkpt>
      <trkpt lat="45.60802" lon="5.9316">
        <ele>299.16666</ele>
        <time>2025-03-02T10:18:53</time>
      </trkpt>
      <trkpt lat="45.60801" lon="5.93167">
        <ele>299.16666</ele>
        <time>2025-03-02T10:18:56</time>
      </trkpt>
      <trkpt lat="45.60801" lon="5.93172">
        <ele>298.96667</ele>
        <time>2025-03-02T10:18:59</time>
      </trkpt>
      <trkpt lat="45.60802" lon="5.93173">
        <ele>298.96667</ele>
        <time>2025-03-02T10:18:59</time>
      </trkpt>
      <trkpt lat="45.60803" lon="5.93176">
        <ele>298.96667</ele>
        <time>2025-03-02T10:19:02</time>
      </trkpt>
      <trkpt lat="45.60802" lon="5.93181">
        <ele>298.96667</ele>
        <time>2025-03-02T10:19:04</time>
      </trkpt>
      <trkpt lat="45.60801" lon="5.93184">
        <ele>298.93332</ele>
        <time>2025-03-02T10:19:06</time>
      </trkpt>
      <trkpt lat="45.608" lon="5.93185">
        <ele>298.93332</ele>
        <time>2025-03-02T10:19:07</time>
      </trkpt>
      <trkpt lat="45.60799" lon="5.93186">
        <ele>298.93332</ele>
        <time>2025-03-02T10:19:07</time>
      </trkpt>
      <trkpt lat="45.60795" lon="5.93189">
        <ele>298.93332</ele>
        <time>2025-03-02T10:19:10</time>
      </trkpt>
      <trkpt lat="45.60793" lon="5.93189">
        <ele>298.93332</ele>
        <time>2025-03-02T10:19:11</time>
      </trkpt>
      <trkpt lat="45.60791" lon="5.93189">
        <ele>298.93332</ele>
        <time>2025-03-02T10:19:12</time>
      </trkpt>
      <trkpt lat="45.60785" lon="5.9319">
        <ele>300.9</ele>
        <time>2025-03-02T10:19:15</time>
      </trkpt>
      <trkpt lat="45.6078" lon="5.93192">
        <ele>300.9</ele>
        <time>2025-03-02T10:19:19</time>
      </trkpt>
      <trkpt lat="45.60774" lon="5.93196">
        <ele>302.5</ele>
        <time>2025-03-02T10:19:25</time>
      </trkpt>
      <trkpt lat="45.60762" lon="5.93202">
        <ele>302.4</ele>
        <time>2025-03-02T10:19:36</time>
      </trkpt>
      <trkpt lat="45.60737" lon="5.93209">
        <ele>299.7</ele>
        <time>2025-03-02T10:19:55</time>
      </trkpt>
      <trkpt lat="45.60733" lon="5.93211">
        <ele>297.2</ele>
        <time>2025-03-02T10:19:58</time>
      </trkpt>
      <trkpt lat="45.60726" lon="5.93214">
        <ele>296</ele>
        <time>2025-03-02T10:20:04</time>
      </trkpt>
      <trkpt lat="45.6072" lon="5.93214">
        <ele>296</ele>
        <time>2025-03-02T10:20:08</time>
      </trkpt>
      <trkpt lat="45.60696" lon="5.93214">
        <ele>298.2</ele>
        <time>2025-03-02T10:20:27</time>
      </trkpt>
      <trkpt lat="45.60689" lon="5.93212">
        <ele>301.1</ele>
        <time>2025-03-02T10:20:33</time>
      </trkpt>
      <trkpt lat="45.60678" lon="5.93211">
        <ele>306.3</ele>
        <time>2025-03-02T10:20:41</time>
      </trkpt>
      <trkpt lat="45.60677" lon="5.93212">
        <ele>306.3</ele>
        <time>2025-03-02T10:20:41</time>
      </trkpt>
      <trkpt lat="45.60676" lon="5.93212">
        <ele>306.3</ele>
        <time>2025-03-02T10:20:42</time>
      </trkpt>
      <trkpt lat="45.60675" lon="5.93212">
        <ele>306.3</ele>
        <time>2025-03-02T10:20:43</time>
      </trkpt>
      <trkpt lat="45.60669" lon="5.93211">
        <ele>308.93332</ele>
        <time>2025-03-02T10:20:48</time>
      </trkpt>
      <trkpt lat="45.60667" lon="5.93211">
        <ele>308.93332</ele>
        <time>2025-03-02T10:20:49</time>
      </trkpt>
      <trkpt lat="45.60659" lon="5.93209">
        <ele>310</ele>
        <time>2025-03-02T10:20:55</time>
      </trkpt>
      <trkpt lat="45.60655" lon="5.93208">
        <ele>310</ele>
        <time>2025-03-02T10:20:57</time>
      </trkpt>
      <trkpt lat="45.60652" lon="5.93208">
        <ele>310</ele>
        <time>2025-03-02T10:20:59</time>
      </trkpt>
      <trkpt lat="45.60651" lon="5.93208">
        <ele>312.03333</ele>
        <time>2025-03-02T10:21:01</time>
      </trkpt>
      <trkpt lat="45.60628" lon="5.93206">
        <ele>313.6</ele>
        <time>2025-03-02T10:21:19</time>
      </trkpt>
      <trkpt lat="45.6062" lon="5.93204">
        <ele>312.5</ele>
        <time>2025-03-02T10:21:24</time>
      </trkpt>
      <trkpt lat="45.60586" lon="5.93202">
        <ele>314.33334</ele>
        <time>2025-03-02T10:21:50</time>
      </trkpt>
      <trkpt lat="45.60573" lon="5.93201">
        <ele>313.3</ele>
        <time>2025-03-02T10:22:00</time>
      </trkpt>
      <trkpt lat="45.60571" lon="5.93201">
        <ele>313.3</ele>
        <time>2025-03-02T10:22:02</time>
      </trkpt>
      <trkpt lat="45.60564" lon="5.93201">
        <ele>315.03333</ele>
        <time>2025-03-02T10:22:12</time>
      </trkpt>
      <trkpt lat="45.60563" lon="5.93201">
        <ele>315.03333</ele>
        <time>2025-03-02T10:22:12</time>
      </trkpt>
      <trkpt lat="45.6056" lon="5.93204">
        <ele>314.7</ele>
        <time>2025-03-02T10:22:16</time>
      </trkpt>
      <trkpt lat="45.60558" lon="5.93206">
        <ele>314.7</ele>
        <time>2025-03-02T10:22:18</time>
      </trkpt>
      <trkpt lat="45.60556" lon="5.93208">
        <ele>314.7</ele>
        <time>2025-03-02T10:22:20</time>
      </trkpt>
      <trkpt lat="45.60551" lon="5.93219">
        <ele>316.56668</ele>
        <time>2025-03-02T10:22:29</time>
      </trkpt>
      <trkpt lat="45.6055" lon="5.9322">
        <ele>316.56668</ele>
        <time>2025-03-02T10:22:30</time>
      </trkpt>
      <trkpt lat="45.6055" lon="5.93236">
        <ele>316.63333</ele>
        <time>2025-03-02T10:22:39</time>
      </trkpt>
      <trkpt lat="45.6055" lon="5.93243">
        <ele>318.96667</ele>
        <time>2025-03-02T10:22:43</time>
      </trkpt>
      <trkpt lat="45.60547" lon="5.93256">
        <ele>320.43332</ele>
        <time>2025-03-02T10:22:51</time>
      </trkpt>
      <trkpt lat="45.60545" lon="5.93265">
        <ele>321.73334</ele>
        <time>2025-03-02T10:22:57</time>
      </trkpt>
      <trkpt lat="45.60544" lon="5.93267">
        <ele>321.73334</ele>
        <time>2025-03-02T10:22:58</time>
      </trkpt>
      <trkpt lat="45.60541" lon="5.93277">
        <ele>322</ele>
        <time>2025-03-02T10:23:05</time>
      </trkpt>
      <trkpt lat="45.60537" lon="5.93296">
        <ele>323.3</ele>
        <time>2025-03-02T10:23:13</time>
      </trkpt>
      <trkpt lat="45.60536" lon="5.93301">
        <ele>324.8</ele>
        <time>2025-03-02T10:23:17</time>
      </trkpt>
      <trkpt lat="45.60536" lon="5.93303">
        <ele>324.8</ele>
        <time>2025-03-02T10:23:17</time>
      </trkpt>
      <trkpt lat="45.60537" lon="5.93304">
        <ele>324.8</ele>
        <time>2025-03-02T10:23:18</time>
      </trkpt>
      <trkpt lat="45.60536" lon="5.93305">
        <ele>324.8</ele>
        <time>2025-03-02T10:23:19</time>
      </trkpt>
      <trkpt lat="45.60536" lon="5.93305">
        <ele>324.8</ele>
        <time>2025-03-02T10:23:20</time>
      </trkpt>
      <trkpt lat="45.60534" lon="5.93306">
        <ele>324.8</ele>
        <time>2025-03-02T10:23:20</time>
      </trkpt>
      <trkpt lat="45.60531" lon="5.93308">
        <ele>324.8</ele>
        <time>2025-03-02T10:23:22</time>
      </trkpt>
      <trkpt lat="45.60527" lon="5.93313">
        <ele>325.2</ele>
        <time>2025-03-02T10:23:25</time>
      </trkpt>
      <trkpt lat="45.60526" lon="5.93315">
        <ele>325.2</ele>
        <time>2025-03-02T10:23:27</time>
      </trkpt>
      <trkpt lat="45.60525" lon="5.93316">
        <ele>325.2</ele>
        <time>2025-03-02T10:23:27</time>
      </trkpt>
      <trkpt lat="45.60525" lon="5.93317">
        <ele>325.2</ele>
        <time>2025-03-02T10:23:29</time>
      </trkpt>
      <trkpt lat="45.60526" lon="5.93319">
        <ele>326.2</ele>
        <time>2025-03-02T10:23:30</time>
      </trkpt>
      <trkpt lat="45.60526" lon="5.9332">
        <ele>326.2</ele>
        <time>2025-03-02T10:23:30</time>
      </trkpt>
      <trkpt lat="45.60525" lon="5.93321">
        <ele>326.2</ele>
        <time>2025-03-02T10:23:31</time>
      </trkpt>
      <trkpt lat="45.60525" lon="5.93322">
        <ele>326.2</ele>
        <time>2025-03-02T10:23:32</time>
      </trkpt>
      <trkpt lat="45.60523" lon="5.93328">
        <ele>327.13333</ele>
        <time>2025-03-02T10:23:37</time>
      </trkpt>
      <trkpt lat="45.60523" lon="5.93328">
        <ele>327.13333</ele>
        <time>2025-03-02T10:23:38</time>
      </trkpt>
      <trkpt lat="45.60523" lon="5.93329">
        <ele>327.13333</ele>
        <time>2025-03-02T10:23:39</time>
      </trkpt>
      <trkpt lat="45.60523" lon="5.93328">
        <ele>327.13333</ele>
        <time>2025-03-02T10:23:40</time>
      </trkpt>
      <trkpt lat="45.60522" lon="5.93329">
        <ele>327.13333</ele>
        <time>2025-03-02T10:23:41</time>
      </trkpt>
      <trkpt lat="45.60522" lon="5.93329">
        <ele>327.13333</ele>
        <time>2025-03-02T10:23:42</time>
      </trkpt>
      <trkpt lat="45.60522" lon="5.9333">
        <ele>327</ele>
        <time>2025-03-02T10:23:44</time>
      </trkpt>
      <trkpt lat="45.60521" lon="5.93333">
        <ele>327</ele>
        <time>2025-03-02T10:23:44</time>
      </trkpt>
      <trkpt lat="45.6052" lon="5.9334">
        <ele>327</ele>
        <time>2025-03-02T10:23:47</time>
      </trkpt>
      <trkpt lat="45.60518" lon="5.93346">
        <ele>327</ele>
        <time>2025-03-02T10:23:49</time>
      </trkpt>
      <trkpt lat="45.60517" lon="5.93362">
        <ele>326.5</ele>
        <time>2025-03-02T10:23:56</time>
      </trkpt>
      <trkpt lat="45.60515" lon="5.93369">
        <ele>326.5</ele>
        <time>2025-03-02T10:24:00</time>
      </trkpt>
      <trkpt lat="45.60514" lon="5.93371">
        <ele>326.5</ele>
        <time>2025-03-02T10:24:02</time>
      </trkpt>
      <trkpt lat="45.60509" lon="5.93381">
        <ele>326.86667</ele>
        <time>2025-03-02T10:24:10</time>
      </trkpt>
      <trkpt lat="45.60508" lon="5.93383">
        <ele>326.86667</ele>
        <time>2025-03-02T10:24:11</time>
      </trkpt>
      <trkpt lat="45.60503" lon="5.93391">
        <ele>326.9</ele>
        <time>2025-03-02T10:24:19</time>
      </trkpt>
      <trkpt lat="45.60499" lon="5.93396">
        <ele>327</ele>
        <time>2025-03-02T10:24:24</time>
      </trkpt>
      <trkpt lat="45.60496" lon="5.934">
        <ele>327</ele>
        <time>2025-03-02T10:24:28</time>
      </trkpt>
      <trkpt lat="45.6049" lon="5.93404">
        <ele>326.9</ele>
        <time>2025-03-02T10:24:35</time>
      </trkpt>
      <trkpt lat="45.60489" lon="5.93406">
        <ele>326.1</ele>
        <time>2025-03-02T10:24:36</time>
      </trkpt>
      <trkpt lat="45.60488" lon="5.93407">
        <ele>326.1</ele>
        <time>2025-03-02T10:24:37</time>
      </trkpt>
      <trkpt lat="45.60485" lon="5.93408">
        <ele>326.1</ele>
        <time>2025-03-02T10:24:40</time>
      </trkpt>
      <trkpt lat="45.6048" lon="5.9341">
        <ele>324.8</ele>
        <time>2025-03-02T10:24:43</time>
      </trkpt>
      <trkpt lat="45.60478" lon="5.93411">
        <ele>324.8</ele>
        <time>2025-03-02T10:24:44</time>
      </trkpt>
      <trkpt lat="45.60476" lon="5.93411">
        <ele>324.8</ele>
        <time>2025-03-02T10:24:46</time>
      </trkpt>
      <trkpt lat="45.60471" lon="5.93412">
        <ele>324.2</ele>
        <time>2025-03-02T10:24:50</time>
      </trkpt>
      <trkpt lat="45.60466" lon="5.93411">
        <ele>324.2</ele>
        <time>2025-03-02T10:24:53</time>
      </trkpt>
      <trkpt lat="45.60447" lon="5.93402">
        <ele>325.1</ele>
        <time>2025-03-02T10:25:05</time>
      </trkpt>
      <trkpt lat="45.60447" lon="5.93403">
        <ele>325.1</ele>
        <time>2025-03-02T10:25:06</time>
      </trkpt>
      <trkpt lat="45.60446" lon="5.93403">
        <ele>325.1</ele>
        <time>2025-03-02T10:25:06</time>
      </trkpt>
      <trkpt lat="45.60446" lon="5.93403">
        <ele>325.1</ele>
        <time>2025-03-02T10:25:07</time>
      </trkpt>
      <trkpt lat="45.60445" lon="5.93402">
        <ele>325.1</ele>
        <time>2025-03-02T10:25:07</time>
      </trkpt>
      <trkpt lat="45.60439" lon="5.93401">
        <ele>324.5</ele>
        <time>2025-03-02T10:25:11</time>
      </trkpt>
      <trkpt lat="45.60436" lon="5.934">
        <ele>324.5</ele>
        <time>2025-03-02T10:25:14</time>
      </trkpt>
      <trkpt lat="45.60434" lon="5.93399">
        <ele>324.5</ele>
        <time>2025-03-02T10:25:15</time>
      </trkpt>
      <trkpt lat="45.60433" lon="5.93397">
        <ele>325.6</ele>
        <time>2025-03-02T10:25:16</time>
      </trkpt>
      <trkpt lat="45.60432" lon="5.93396">
        <ele>325.6</ele>
        <time>2025-03-02T10:25:17</time>
      </trkpt>
      <trkpt lat="45.60432" lon="5.93395">
        <ele>325.6</ele>
        <time>2025-03-02T10:25:18</time>
      </trkpt>
      <trkpt lat="45.60431" lon="5.93392">
        <ele>325.6</ele>
        <time>2025-03-02T10:25:19</time>
      </trkpt>
      <trkpt lat="45.60431" lon="5.9339">
        <ele>325.6</ele>
        <time>2025-03-02T10:25:20</time>
      </trkpt>
      <trkpt lat="45.6043" lon="5.93387">
        <ele>330.7</ele>
        <time>2025-03-02T10:25:21</time>
      </trkpt>
      <trkpt lat="45.6043" lon="5.93385">
        <ele>330.7</ele>
        <time>2025-03-02T10:25:23</time>
      </trkpt>
      <trkpt lat="45.60428" lon="5.93365">
        <ele>334.4</ele>
        <time>2025-03-02T10:25:30</time>
      </trkpt>
      <trkpt lat="45.60428" lon="5.93362">
        <ele>334.4</ele>
        <time>2025-03-02T10:25:31</time>
      </trkpt>
      <trkpt lat="45.60428" lon="5.93359">
        <ele>334.4</ele>
        <time>2025-03-02T10:25:32</time>
      </trkpt>
      <trkpt lat="45.60427" lon="5.93356">
        <ele>341.4</ele>
        <time>2025-03-02T10:25:34</time>
      </trkpt>
      <trkpt lat="45.60427" lon="5.93355">
        <ele>341.4</ele>
        <time>2025-03-02T10:25:35</time>
      </trkpt>
      <trkpt lat="45.60424" lon="5.9335">
        <ele>341.4</ele>
        <time>2025-03-02T10:25:39</time>
      </trkpt>
      <trkpt lat="45.60423" lon="5.93348">
        <ele>344</ele>
        <time>2025-03-02T10:25:40</time>
      </trkpt>
      <trkpt lat="45.60423" lon="5.93348">
        <ele>344</ele>
        <time>2025-03-02T10:25:41</time>
      </trkpt>
      <trkpt lat="45.60423" lon="5.93348">
        <ele>344</ele>
        <time>2025-03-02T10:25:43</time>
      </trkpt>
      <trkpt lat="45.60423" lon="5.93348">
        <ele>344</ele>
        <time>2025-03-02T10:25:43</time>
      </trkpt>
      <trkpt lat="45.60423" lon="5.93348">
        <ele>344</ele>
        <time>2025-03-02T10:25:44</time>
      </trkpt>
      <trkpt lat="45.60423" lon="5.93347">
        <ele>345.5</ele>
        <time>2025-03-02T10:25:46</time>
      </trkpt>
      <trkpt lat="45.60423" lon="5.93347">
        <ele>345.5</ele>
        <time>2025-03-02T10:25:47</time>
      </trkpt>
      <trkpt lat="45.60423" lon="5.93347">
        <ele>345.5</ele>
        <time>2025-03-02T10:25:48</time>
      </trkpt>
      <trkpt lat="45.60422" lon="5.93346">
        <ele>345.5</ele>
        <time>2025-03-02T10:25:48</time>
      </trkpt>
      <trkpt lat="45.60422" lon="5.93346">
        <ele>345.5</ele>
        <time>2025-03-02T10:25:50</time>
      </trkpt>
      <trkpt lat="45.60421" lon="5.93345">
        <ele>345.5</ele>
        <time>2025-03-02T10:25:50</time>
      </trkpt>
      <trkpt lat="45.6042" lon="5.93344">
        <ele>345.5</ele>
        <time>2025-03-02T10:25:51</time>
      </trkpt>
      <trkpt lat="45.6042" lon="5.93343">
        <ele>345.5</ele>
        <time>2025-03-02T10:25:53</time>
      </trkpt>
      <trkpt lat="45.60419" lon="5.93343">
        <ele>345.5</ele>
        <time>2025-03-02T10:25:54</time>
      </trkpt>
      <trkpt lat="45.60419" lon="5.93342">
        <ele>345.4</ele>
        <time>2025-03-02T10:25:55</time>
      </trkpt>
      <trkpt lat="45.60418" lon="5.93342">
        <ele>345.4</ele>
        <time>2025-03-02T10:25:56</time>
      </trkpt>
      <trkpt lat="45.60418" lon="5.93342">
        <ele>345.4</ele>
        <time>2025-03-02T10:25:57</time>
      </trkpt>
      <trkpt lat="45.60417" lon="5.93341">
        <ele>345.4</ele>
        <time>2025-03-02T10:26:00</time>
      </trkpt>
      <trkpt lat="45.60417" lon="5.93341">
        <ele>345.4</ele>
        <time>2025-03-02T10:26:01</time>
      </trkpt>
      <trkpt lat="45.60417" lon="5.9334">
        <ele>345.4</ele>
        <time>2025-03-02T10:26:02</time>
      </trkpt>
      <trkpt lat="45.60415" lon="5.93339">
        <ele>345.4</ele>
        <time>2025-03-02T10:26:03</time>
      </trkpt>
      <trkpt lat="45.60413" lon="5.93337">
        <ele>345.3</ele>
        <time>2025-03-02T10:26:06</time>
      </trkpt>
      <trkpt lat="45.60412" lon="5.93335">
        <ele>345.3</ele>
        <time>2025-03-02T10:26:07</time>
      </trkpt>
      <trkpt lat="45.60403" lon="5.93328">
        <ele>345.33334</ele>
        <time>2025-03-02T10:26:13</time>
      </trkpt>
      <trkpt lat="45.60401" lon="5.93325">
        <ele>345.33334</ele>
        <time>2025-03-02T10:26:16</time>
      </trkpt>
      <trkpt lat="45.604" lon="5.93324">
        <ele>345.33334</ele>
        <time>2025-03-02T10:26:17</time>
      </trkpt>
      <trkpt lat="45.60397" lon="5.93319">
        <ele>345.5</ele>
        <time>2025-03-02T10:26:21</time>
      </trkpt>
      <trkpt lat="45.60394" lon="5.93313">
        <ele>345.5</ele>
        <time>2025-03-02T10:26:26</time>
      </trkpt>
      <trkpt lat="45.60393" lon="5.93312">
        <ele>345.5</ele>
        <time>2025-03-02T10:26:27</time>
      </trkpt>
      <trkpt lat="45.60391" lon="5.93308">
        <ele>346.23334</ele>
        <time>2025-03-02T10:26:30</time>
      </trkpt>
      <trkpt lat="45.6039" lon="5.93306">
        <ele>346.23334</ele>
        <time>2025-03-02T10:26:31</time>
      </trkpt>
      <trkpt lat="45.60389" lon="5.93304">
        <ele>346.23334</ele>
        <time>2025-03-02T10:26:32</time>
      </trkpt>
      <trkpt lat="45.60387" lon="5.93299">
        <ele>345.53333</ele>
        <time>2025-03-02T10:26:36</time>
      </trkpt>
      <trkpt lat="45.60386" lon="5.93297">
        <ele>345.53333</ele>
        <time>2025-03-02T10:26:40</time>
      </trkpt>
      <trkpt lat="45.60386" lon="5.93297">
        <ele>345.53333</ele>
        <time>2025-03-02T10:26:42</time>
      </trkpt>
      <trkpt lat="45.60385" lon="5.93296">
        <ele>345.53333</ele>
        <time>2025-03-02T10:26:43</time>
      </trkpt>
      <trkpt lat="45.60386" lon="5.93296">
        <ele>343.3</ele>
        <time>2025-03-02T10:26:44</time>
      </trkpt>
      <trkpt lat="45.60386" lon="5.93296">
        <ele>343.3</ele>
        <time>2025-03-02T10:26:45</time>
      </trkpt>
      <trkpt lat="45.60387" lon="5.93295">
        <ele>343.3</ele>
        <time>2025-03-02T10:26:50</time>
      </trkpt>
      <trkpt lat="45.60387" lon="5.93294">
        <ele>343.3</ele>
        <time>2025-03-02T10:26:50</time>
      </trkpt>
      <trkpt lat="45.60387" lon="5.93288">
        <ele>343.5</ele>
        <time>2025-03-02T10:26:58</time>
      </trkpt>
      <trkpt lat="45.60389" lon="5.93287">
        <ele>343.5</ele>
        <time>2025-03-02T10:27:00</time>
      </trkpt>
      <trkpt lat="45.6039" lon="5.93287">
        <ele>343.5</ele>
        <time>2025-03-02T10:27:01</time>
      </trkpt>
      <trkpt lat="45.6039" lon="5.93286">
        <ele>345.03333</ele>
        <time>2025-03-02T10:27:02</time>
      </trkpt>
      <trkpt lat="45.60391" lon="5.93286">
        <ele>345.03333</ele>
        <time>2025-03-02T10:27:03</time>
      </trkpt>
      <trkpt lat="45.60391" lon="5.93286">
        <ele>345.03333</ele>
        <time>2025-03-02T10:27:04</time>
      </trkpt>
      <trkpt lat="45.60391" lon="5.93285">
        <ele>346</ele>
        <time>2025-03-02T10:28:19</time>
      </trkpt>
      <trkpt lat="45.60389" lon="5.93288">
        <ele>346</ele>
        <time>2025-03-02T10:28:31</time>
      </trkpt>
      <trkpt lat="45.6039" lon="5.93289">
        <ele>346</ele>
        <time>2025-03-02T10:28:32</time>
      </trkpt>
      <trkpt lat="45.6039" lon="5.93289">
        <ele>346</ele>
        <time>2025-03-02T10:28:33</time>
      </trkpt>
      <trkpt lat="45.60392" lon="5.93291">
        <ele>346</ele>
        <time>2025-03-02T10:28:35</time>
      </trkpt>
      <trkpt lat="45.60392" lon="5.93291">
        <ele>346</ele>
        <time>2025-03-02T10:28:36</time>
      </trkpt>
      <trkpt lat="45.60398" lon="5.93296">
        <ele>343.33334</ele>
        <time>2025-03-02T10:28:40</time>
      </trkpt>
      <trkpt lat="45.60403" lon="5.93302">
        <ele>343.33334</ele>
        <time>2025-03-02T10:28:45</time>
      </trkpt>
      <trkpt lat="45.6041" lon="5.93311">
        <ele>341.4</ele>
        <time>2025-03-02T10:28:54</time>
      </trkpt>
      <trkpt lat="45.60413" lon="5.93317">
        <ele>341.4</ele>
        <time>2025-03-02T10:29:00</time>
      </trkpt>
      <trkpt lat="45.60416" lon="5.93324">
        <ele>343.3</ele>
        <time>2025-03-02T10:29:06</time>
      </trkpt>
      <trkpt lat="45.60419" lon="5.93327">
        <ele>343.4</ele>
        <time>2025-03-02T10:29:09</time>
      </trkpt>
      <trkpt lat="45.60419" lon="5.93328">
        <ele>343.4</ele>
        <time>2025-03-02T10:29:10</time>
      </trkpt>
      <trkpt lat="45.6042" lon="5.93329">
        <ele>343.4</ele>
        <time>2025-03-02T10:29:11</time>
      </trkpt>
      <trkpt lat="45.6042" lon="5.9333">
        <ele>343.4</ele>
        <time>2025-03-02T10:29:11</time>
      </trkpt>
      <trkpt lat="45.60421" lon="5.93332">
        <ele>343.4</ele>
        <time>2025-03-02T10:29:14</time>
      </trkpt>
      <trkpt lat="45.60423" lon="5.93336">
        <ele>344.2</ele>
        <time>2025-03-02T10:29:17</time>
      </trkpt>
      <trkpt lat="45.60431" lon="5.93347">
        <ele>344</ele>
        <time>2025-03-02T10:29:26</time>
      </trkpt>
      <trkpt lat="45.60432" lon="5.93351">
        <ele>345.56668</ele>
        <time>2025-03-02T10:29:28</time>
      </trkpt>
      <trkpt lat="45.60432" lon="5.93352">
        <ele>345.56668</ele>
        <time>2025-03-02T10:29:29</time>
      </trkpt>
      <trkpt lat="45.60432" lon="5.93354">
        <ele>345.56668</ele>
        <time>2025-03-02T10:29:30</time>
      </trkpt>
      <trkpt lat="45.60433" lon="5.93361">
        <ele>345.56668</ele>
        <time>2025-03-02T10:29:33</time>
      </trkpt>
      <trkpt lat="45.60433" lon="5.93365">
        <ele>345.3</ele>
        <time>2025-03-02T10:29:35</time>
      </trkpt>
      <trkpt lat="45.60433" lon="5.93367">
        <ele>345.3</ele>
        <time>2025-03-02T10:29:36</time>
      </trkpt>
      <trkpt lat="45.60434" lon="5.93371">
        <ele>345.3</ele>
        <time>2025-03-02T10:29:38</time>
      </trkpt>
      <trkpt lat="45.60434" lon="5.93376">
        <ele>342.8</ele>
        <time>2025-03-02T10:29:41</time>
      </trkpt>
      <trkpt lat="45.60434" lon="5.9338">
        <ele>342.8</ele>
        <time>2025-03-02T10:29:43</time>
      </trkpt>
      <trkpt lat="45.60435" lon="5.93382">
        <ele>342.8</ele>
        <time>2025-03-02T10:29:44</time>
      </trkpt>
      <trkpt lat="45.60435" lon="5.93382">
        <ele>342.8</ele>
        <time>2025-03-02T10:29:45</time>
      </trkpt>
      <trkpt lat="45.60435" lon="5.93383">
        <ele>342.8</ele>
        <time>2025-03-02T10:29:45</time>
      </trkpt>
      <trkpt lat="45.60436" lon="5.93384">
        <ele>343.4</ele>
        <time>2025-03-02T10:29:46</time>
      </trkpt>
      <trkpt lat="45.60437" lon="5.93385">
        <ele>343.4</ele>
        <time>2025-03-02T10:29:48</time>
      </trkpt>
      <trkpt lat="45.60438" lon="5.93385">
        <ele>343.4</ele>
        <time>2025-03-02T10:29:49</time>
      </trkpt>
      <trkpt lat="45.60442" lon="5.93385">
        <ele>342.56668</ele>
        <time>2025-03-02T10:29:53</time>
      </trkpt>
      <trkpt lat="45.60443" lon="5.93385">
        <ele>342.56668</ele>
        <time>2025-03-02T10:29:55</time>
      </trkpt>
      <trkpt lat="45.60442" lon="5.93385">
        <ele>342.56668</ele>
        <time>2025-03-02T10:29:56</time>
      </trkpt>
      <trkpt lat="45.60442" lon="5.93384">
        <ele>342.56668</ele>
        <time>2025-03-02T10:29:56</time>
      </trkpt>
      <trkpt lat="45.60445" lon="5.93385">
        <ele>342.56668</ele>
        <time>2025-03-02T10:29:57</time>
      </trkpt>
      <trkpt lat="45.60447" lon="5.93385">
        <ele>342.56668</ele>
        <time>2025-03-02T10:29:58</time>
      </trkpt>
      <trkpt lat="45.6045" lon="5.93385">
        <ele>342.63333</ele>
        <time>2025-03-02T10:30:00</time>
      </trkpt>
      <trkpt lat="45.60452" lon="5.93385">
        <ele>342.63333</ele>
        <time>2025-03-02T10:30:01</time>
      </trkpt>
      <trkpt lat="45.60454" lon="5.93386">
        <ele>342.63333</ele>
        <time>2025-03-02T10:30:03</time>
      </trkpt>
      <trkpt lat="45.60459" lon="5.93389">
        <ele>343.2</ele>
        <time>2025-03-02T10:30:08</time>
      </trkpt>
      <trkpt lat="45.60462" lon="5.93394">
        <ele>343.56668</ele>
        <time>2025-03-02T10:30:12</time>
      </trkpt>
      <trkpt lat="45.6047" lon="5.93402">
        <ele>342.9</ele>
        <time>2025-03-02T10:30:21</time>
      </trkpt>
      <trkpt lat="45.60472" lon="5.93401">
        <ele>342.9</ele>
        <time>2025-03-02T10:30:22</time>
      </trkpt>
      <trkpt lat="45.60472" lon="5.93401">
        <ele>342.9</ele>
        <time>2025-03-02T10:30:23</time>
      </trkpt>
      <trkpt lat="45.60475" lon="5.93401">
        <ele>342.26666</ele>
        <time>2025-03-02T10:30:25</time>
      </trkpt>
      <trkpt lat="45.60478" lon="5.93401">
        <ele>342.26666</ele>
        <time>2025-03-02T10:30:27</time>
      </trkpt>
      <trkpt lat="45.60479" lon="5.934">
        <ele>342.26666</ele>
        <time>2025-03-02T10:30:28</time>
      </trkpt>
      <trkpt lat="45.60481" lon="5.93399">
        <ele>342.06668</ele>
        <time>2025-03-02T10:30:29</time>
      </trkpt>
      <trkpt lat="45.60485" lon="5.93396">
        <ele>342.06668</ele>
        <time>2025-03-02T10:30:35</time>
      </trkpt>
      <trkpt lat="45.60488" lon="5.93396">
        <ele>340</ele>
        <time>2025-03-02T10:30:37</time>
      </trkpt>
      <trkpt lat="45.60493" lon="5.93392">
        <ele>339.5</ele>
        <time>2025-03-02T10:30:43</time>
      </trkpt>
      <trkpt lat="45.60495" lon="5.9339">
        <ele>339.5</ele>
        <time>2025-03-02T10:30:44</time>
      </trkpt>
      <trkpt lat="45.60495" lon="5.9339">
        <ele>339.5</ele>
        <time>2025-03-02T10:30:45</time>
      </trkpt>
      <trkpt lat="45.60496" lon="5.9339">
        <ele>339.5</ele>
        <time>2025-03-02T10:30:46</time>
      </trkpt>
      <trkpt lat="45.60496" lon="5.93391">
        <ele>339.5</ele>
        <time>2025-03-02T10:30:46</time>
      </trkpt>
      <trkpt lat="45.60497" lon="5.93391">
        <ele>339.1</ele>
        <time>2025-03-02T10:30:47</time>
      </trkpt>
      <trkpt lat="45.60498" lon="5.93392">
        <ele>339.1</ele>
        <time>2025-03-02T10:30:48</time>
      </trkpt>
      <trkpt lat="45.60498" lon="5.93392">
        <ele>339.1</ele>
        <time>2025-03-02T10:30:49</time>
      </trkpt>
      <trkpt lat="45.60499" lon="5.93393">
        <ele>339.1</ele>
        <time>2025-03-02T10:30:49</time>
      </trkpt>
      <trkpt lat="45.60499" lon="5.93393">
        <ele>339.1</ele>
        <time>2025-03-02T10:30:50</time>
      </trkpt>
      <trkpt lat="45.60499" lon="5.93393">
        <ele>339.1</ele>
        <time>2025-03-02T10:30:51</time>
      </trkpt>
      <trkpt lat="45.60498" lon="5.93393">
        <ele>339.8</ele>
        <time>2025-03-02T10:30:53</time>
      </trkpt>
      <trkpt lat="45.60499" lon="5.93393">
        <ele>339.8</ele>
        <time>2025-03-02T10:30:54</time>
      </trkpt>
      <trkpt lat="45.60499" lon="5.93392">
        <ele>339.8</ele>
        <time>2025-03-02T10:30:55</time>
      </trkpt>
      <trkpt lat="45.605" lon="5.93392">
        <ele>339.8</ele>
        <time>2025-03-02T10:30:56</time>
      </trkpt>
      <trkpt lat="45.60503" lon="5.93393">
        <ele>339.8</ele>
        <time>2025-03-02T10:30:58</time>
      </trkpt>
      <trkpt lat="45.60505" lon="5.93394">
        <ele>339.8</ele>
        <time>2025-03-02T10:31:00</time>
      </trkpt>
      <trkpt lat="45.60506" lon="5.93394">
        <ele>339.8</ele>
        <time>2025-03-02T10:31:02</time>
      </trkpt>
      <trkpt lat="45.6051" lon="5.93394">
        <ele>339.76666</ele>
        <time>2025-03-02T10:31:06</time>
      </trkpt>
      <trkpt lat="45.60514" lon="5.93392">
        <ele>339.76666</ele>
        <time>2025-03-02T10:31:09</time>
      </trkpt>
      <trkpt lat="45.60522" lon="5.9339">
        <ele>339.63333</ele>
        <time>2025-03-02T10:31:17</time>
      </trkpt>
      <trkpt lat="45.60523" lon="5.9339">
        <ele>339.63333</ele>
        <time>2025-03-02T10:31:17</time>
      </trkpt>
      <trkpt lat="45.60525" lon="5.9339">
        <ele>339.6</ele>
        <time>2025-03-02T10:31:19</time>
      </trkpt>
      <trkpt lat="45.60531" lon="5.9339">
        <ele>339.8</ele>
        <time>2025-03-02T10:31:28</time>
      </trkpt>
      <trkpt lat="45.60534" lon="5.9339">
        <ele>339.8</ele>
        <time>2025-03-02T10:31:31</time>
      </trkpt>
      <trkpt lat="45.60537" lon="5.93391">
        <ele>340</ele>
        <time>2025-03-02T10:31:34</time>
      </trkpt>
      <trkpt lat="45.60538" lon="5.93391">
        <ele>340</ele>
        <time>2025-03-02T10:31:34</time>
      </trkpt>
      <trkpt lat="45.60541" lon="5.93391">
        <ele>340</ele>
        <time>2025-03-02T10:31:37</time>
      </trkpt>
      <trkpt lat="45.60548" lon="5.93391">
        <ele>340.8</ele>
        <time>2025-03-02T10:31:44</time>
      </trkpt>
      <trkpt lat="45.60551" lon="5.93393">
        <ele>342.6</ele>
        <time>2025-03-02T10:31:47</time>
      </trkpt>
      <trkpt lat="45.60553" lon="5.93394">
        <ele>342.6</ele>
        <time>2025-03-02T10:31:49</time>
      </trkpt>
      <trkpt lat="45.60555" lon="5.93394">
        <ele>342.6</ele>
        <time>2025-03-02T10:31:50</time>
      </trkpt>
      <trkpt lat="45.60559" lon="5.93394">
        <ele>342.76666</ele>
        <time>2025-03-02T10:31:54</time>
      </trkpt>
      <trkpt lat="45.6056" lon="5.93394">
        <ele>342.76666</ele>
        <time>2025-03-02T10:31:55</time>
      </trkpt>
      <trkpt lat="45.6056" lon="5.93395">
        <ele>342.76666</ele>
        <time>2025-03-02T10:31:56</time>
      </trkpt>
      <trkpt lat="45.6056" lon="5.93395">
        <ele>342.76666</ele>
        <time>2025-03-02T10:31:56</time>
      </trkpt>
      <trkpt lat="45.60561" lon="5.93397">
        <ele>342.76666</ele>
        <time>2025-03-02T10:31:58</time>
      </trkpt>
      <trkpt lat="45.60562" lon="5.93399">
        <ele>343.6</ele>
        <time>2025-03-02T10:32:00</time>
      </trkpt>
      <trkpt lat="45.60563" lon="5.93401">
        <ele>343.6</ele>
        <time>2025-03-02T10:32:01</time>
      </trkpt>
      <trkpt lat="45.60564" lon="5.93401">
        <ele>343.6</ele>
        <time>2025-03-02T10:32:02</time>
      </trkpt>
      <trkpt lat="45.60568" lon="5.93404">
        <ele>345.9</ele>
        <time>2025-03-02T10:32:07</time>
      </trkpt>
      <trkpt lat="45.6057" lon="5.93405">
        <ele>345.9</ele>
        <time>2025-03-02T10:32:09</time>
      </trkpt>
      <trkpt lat="45.6057" lon="5.93405">
        <ele>345.9</ele>
        <time>2025-03-02T10:32:10</time>
      </trkpt>
      <trkpt lat="45.6057" lon="5.93406">
        <ele>345.9</ele>
        <time>2025-03-02T10:32:10</time>
      </trkpt>
      <trkpt lat="45.6057" lon="5.93406">
        <ele>345.9</ele>
        <time>2025-03-02T10:32:11</time>
      </trkpt>
      <trkpt lat="45.6057" lon="5.93407">
        <ele>345.9</ele>
        <time>2025-03-02T10:32:12</time>
      </trkpt>
      <trkpt lat="45.60569" lon="5.93407">
        <ele>345.9</ele>
        <time>2025-03-02T10:32:13</time>
      </trkpt>
      <trkpt lat="45.60569" lon="5.93407">
        <ele>345.9</ele>
        <time>2025-03-02T10:32:13</time>
      </trkpt>
      <trkpt lat="45.60568" lon="5.93409">
        <ele>346.8</ele>
        <time>2025-03-02T10:32:16</time>
      </trkpt>
      <trkpt lat="45.60564" lon="5.93416">
        <ele>348.4</ele>
        <time>2025-03-02T10:32:23</time>
      </trkpt>
      <trkpt lat="45.60564" lon="5.93417">
        <ele>348.4</ele>
        <time>2025-03-02T10:32:24</time>
      </trkpt>
      <trkpt lat="45.60564" lon="5.93418">
        <ele>348.4</ele>
        <time>2025-03-02T10:32:25</time>
      </trkpt>
      <trkpt lat="45.60564" lon="5.9342">
        <ele>348.4</ele>
        <time>2025-03-02T10:32:25</time>
      </trkpt>
      <trkpt lat="45.60561" lon="5.93426">
        <ele>349.6</ele>
        <time>2025-03-02T10:32:32</time>
      </trkpt>
      <trkpt lat="45.60561" lon="5.93427">
        <ele>349.6</ele>
        <time>2025-03-02T10:32:33</time>
      </trkpt>
      <trkpt lat="45.6056" lon="5.9343">
        <ele>351.5</ele>
        <time>2025-03-02T10:32:39</time>
      </trkpt>
      <trkpt lat="45.60559" lon="5.93431">
        <ele>351.5</ele>
        <time>2025-03-02T10:32:42</time>
      </trkpt>
      <trkpt lat="45.60557" lon="5.93433">
        <ele>351.8</ele>
        <time>2025-03-02T10:32:46</time>
      </trkpt>
      <trkpt lat="45.60555" lon="5.93435">
        <ele>351.8</ele>
        <time>2025-03-02T10:32:49</time>
      </trkpt>
      <trkpt lat="45.60552" lon="5.93439">
        <ele>353.7</ele>
        <time>2025-03-02T10:32:53</time>
      </trkpt>
      <trkpt lat="45.60551" lon="5.93441">
        <ele>353.7</ele>
        <time>2025-03-02T10:32:55</time>
      </trkpt>
      <trkpt lat="45.6055" lon="5.93441">
        <ele>353.7</ele>
        <time>2025-03-02T10:32:56</time>
      </trkpt>
      <trkpt lat="45.6055" lon="5.93441">
        <ele>353.7</ele>
        <time>2025-03-02T10:32:57</time>
      </trkpt>
      <trkpt lat="45.60546" lon="5.93443">
        <ele>354.3</ele>
        <time>2025-03-02T10:33:01</time>
      </trkpt>
      <trkpt lat="45.60544" lon="5.93444">
        <ele>354.3</ele>
        <time>2025-03-02T10:33:03</time>
      </trkpt>
      <trkpt lat="45.60542" lon="5.93448">
        <ele>355.9</ele>
        <time>2025-03-02T10:33:07</time>
      </trkpt>
      <trkpt lat="45.60541" lon="5.93449">
        <ele>355.9</ele>
        <time>2025-03-02T10:33:08</time>
      </trkpt>
      <trkpt lat="45.60541" lon="5.93451">
        <ele>355.9</ele>
        <time>2025-03-02T10:33:10</time>
      </trkpt>
      <trkpt lat="45.6054" lon="5.93452">
        <ele>357.6</ele>
        <time>2025-03-02T10:33:12</time>
      </trkpt>
      <trkpt lat="45.60539" lon="5.93453">
        <ele>357.6</ele>
        <time>2025-03-02T10:33:13</time>
      </trkpt>
      <trkpt lat="45.60538" lon="5.93454">
        <ele>357.6</ele>
        <time>2025-03-02T10:33:15</time>
      </trkpt>
      <trkpt lat="45.60535" lon="5.93456">
        <ele>360.6</ele>
        <time>2025-03-02T10:33:18</time>
      </trkpt>
      <trkpt lat="45.60534" lon="5.93456">
        <ele>360.6</ele>
        <time>2025-03-02T10:33:19</time>
      </trkpt>
      <trkpt lat="45.60534" lon="5.93457">
        <ele>360.6</ele>
        <time>2025-03-02T10:33:20</time>
      </trkpt>
      <trkpt lat="45.60535" lon="5.93457">
        <ele>360.6</ele>
        <time>2025-03-02T10:33:21</time>
      </trkpt>
      <trkpt lat="45.60535" lon="5.93458">
        <ele>360.6</ele>
        <time>2025-03-02T10:33:21</time>
      </trkpt>
      <trkpt lat="45.60536" lon="5.93458">
        <ele>360.6</ele>
        <time>2025-03-02T10:33:23</time>
      </trkpt>
      <trkpt lat="45.60536" lon="5.93458">
        <ele>360.6</ele>
        <time>2025-03-02T10:33:23</time>
      </trkpt>
      <trkpt lat="45.60537" lon="5.93458">
        <ele>363</ele>
        <time>2025-03-02T10:33:28</time>
      </trkpt>
      <trkpt lat="45.60538" lon="5.93458">
        <ele>363</ele>
        <time>2025-03-02T10:33:29</time>
      </trkpt>
      <trkpt lat="45.60539" lon="5.93456">
        <ele>364.7</ele>
        <time>2025-03-02T10:33:33</time>
      </trkpt>
      <trkpt lat="45.6054" lon="5.93456">
        <ele>364.7</ele>
        <time>2025-03-02T10:33:36</time>
      </trkpt>
      <trkpt lat="45.60541" lon="5.93455">
        <ele>364.7</ele>
        <time>2025-03-02T10:33:37</time>
      </trkpt>
      <trkpt lat="45.60541" lon="5.93456">
        <ele>364.7</ele>
        <time>2025-03-02T10:33:38</time>
      </trkpt>
      <trkpt lat="45.60542" lon="5.93456">
        <ele>364.7</ele>
        <time>2025-03-02T10:33:40</time>
      </trkpt>
      <trkpt lat="45.60542" lon="5.93456">
        <ele>364.7</ele>
        <time>2025-03-02T10:33:40</time>
      </trkpt>
      <trkpt lat="45.60543" lon="5.93455">
        <ele>369.4</ele>
        <time>2025-03-02T10:33:42</time>
      </trkpt>
      <trkpt lat="45.60544" lon="5.93455">
        <ele>369.4</ele>
        <time>2025-03-02T10:33:43</time>
      </trkpt>
      <trkpt lat="45.60544" lon="5.93456">
        <ele>369.4</ele>
        <time>2025-03-02T10:33:44</time>
      </trkpt>
      <trkpt lat="45.60544" lon="5.93456">
        <ele>369.4</ele>
        <time>2025-03-02T10:33:45</time>
      </trkpt>
      <trkpt lat="45.60544" lon="5.93457">
        <ele>369.4</ele>
        <time>2025-03-02T10:33:45</time>
      </trkpt>
      <trkpt lat="45.60544" lon="5.93457">
        <ele>369.4</ele>
        <time>2025-03-02T10:33:47</time>
      </trkpt>
      <trkpt lat="45.60544" lon="5.93457">
        <ele>369.4</ele>
        <time>2025-03-02T10:33:49</time>
      </trkpt>
      <trkpt lat="45.60544" lon="5.93457">
        <ele>369.4</ele>
        <time>2025-03-02T10:33:49</time>
      </trkpt>
      <trkpt lat="45.60544" lon="5.93457">
        <ele>371.1</ele>
        <time>2025-03-02T10:33:50</time>
      </trkpt>
      <trkpt lat="45.60544" lon="5.93457">
        <ele>371.1</ele>
        <time>2025-03-02T10:33:51</time>
      </trkpt>
      <trkpt lat="45.60544" lon="5.93458">
        <ele>371.1</ele>
        <time>2025-03-02T10:33:52</time>
      </trkpt>
      <trkpt lat="45.60544" lon="5.93458">
        <ele>371.1</ele>
        <time>2025-03-02T10:33:52</time>
      </trkpt>
      <trkpt lat="45.60544" lon="5.93458">
        <ele>371.1</ele>
        <time>2025-03-02T10:33:53</time>
      </trkpt>
      <trkpt lat="45.60545" lon="5.93458">
        <ele>371.1</ele>
        <time>2025-03-02T10:33:55</time>
      </trkpt>
      <trkpt lat="45.60545" lon="5.93458">
        <ele>371.1</ele>
        <time>2025-03-02T10:33:56</time>
      </trkpt>
      <trkpt lat="45.60545" lon="5.93459">
        <ele>371.1</ele>
        <time>2025-03-02T10:33:56</time>
      </trkpt>
      <trkpt lat="45.60545" lon="5.93459">
        <ele>373.3</ele>
        <time>2025-03-02T10:33:59</time>
      </trkpt>
      <trkpt lat="45.60545" lon="5.93459">
        <ele>373.3</ele>
        <time>2025-03-02T10:34:00</time>
      </trkpt>
      <trkpt lat="45.60547" lon="5.93459">
        <ele>373.3</ele>
        <time>2025-03-02T10:34:02</time>
      </trkpt>
      <trkpt lat="45.60549" lon="5.9346">
        <ele>373.3</ele>
        <time>2025-03-02T10:34:04</time>
      </trkpt>
      <trkpt lat="45.60552" lon="5.93461">
        <ele>373.3</ele>
        <time>2025-03-02T10:34:08</time>
      </trkpt>
      <trkpt lat="45.60554" lon="5.93462">
        <ele>373.3</ele>
        <time>2025-03-02T10:34:11</time>
      </trkpt>
      <trkpt lat="45.60556" lon="5.93464">
        <ele>375.7</ele>
        <time>2025-03-02T10:34:16</time>
      </trkpt>
      <trkpt lat="45.60557" lon="5.93465">
        <ele>375.7</ele>
        <time>2025-03-02T10:34:17</time>
      </trkpt>
      <trkpt lat="45.60557" lon="5.93465">
        <ele>375.7</ele>
        <time>2025-03-02T10:34:18</time>
      </trkpt>
      <trkpt lat="45.60558" lon="5.93465">
        <ele>375.7</ele>
        <time>2025-03-02T10:34:19</time>
      </trkpt>
      <trkpt lat="45.60559" lon="5.93465">
        <ele>375.7</ele>
        <time>2025-03-02T10:34:20</time>
      </trkpt>
      <trkpt lat="45.60559" lon="5.93466">
        <ele>375.7</ele>
        <time>2025-03-02T10:34:21</time>
      </trkpt>
      <trkpt lat="45.60559" lon="5.93467">
        <ele>375.7</ele>
        <time>2025-03-02T10:34:22</time>
      </trkpt>
      <trkpt lat="45.60559" lon="5.93468">
        <ele>375.7</ele>
        <time>2025-03-02T10:34:23</time>
      </trkpt>
      <trkpt lat="45.60559" lon="5.93469">
        <ele>375.7</ele>
        <time>2025-03-02T10:34:23</time>
      </trkpt>
      <trkpt lat="45.60558" lon="5.9347">
        <ele>375.7</ele>
        <time>2025-03-02T10:34:25</time>
      </trkpt>
      <trkpt lat="45.60558" lon="5.93472">
        <ele>375.7</ele>
        <time>2025-03-02T10:34:27</time>
      </trkpt>
      <trkpt lat="45.60558" lon="5.93475">
        <ele>375.7</ele>
        <time>2025-03-02T10:34:29</time>
      </trkpt>
      <trkpt lat="45.60558" lon="5.93475">
        <ele>375.5</ele>
        <time>2025-03-02T10:34:30</time>
      </trkpt>
      <trkpt lat="45.60559" lon="5.93476">
        <ele>375.5</ele>
        <time>2025-03-02T10:34:31</time>
      </trkpt>
      <trkpt lat="45.60559" lon="5.93477">
        <ele>375.5</ele>
        <time>2025-03-02T10:34:32</time>
      </trkpt>
      <trkpt lat="45.60559" lon="5.93478">
        <ele>375.5</ele>
        <time>2025-03-02T10:34:32</time>
      </trkpt>
      <trkpt lat="45.6056" lon="5.93478">
        <ele>375.5</ele>
        <time>2025-03-02T10:34:33</time>
      </trkpt>
      <trkpt lat="45.6056" lon="5.93478">
        <ele>375.5</ele>
        <time>2025-03-02T10:34:34</time>
      </trkpt>
      <trkpt lat="45.6056" lon="5.93477">
        <ele>375.5</ele>
        <time>2025-03-02T10:34:35</time>
      </trkpt>
      <trkpt lat="45.60561" lon="5.93477">
        <ele>375.5</ele>
        <time>2025-03-02T10:34:35</time>
      </trkpt>
      <trkpt lat="45.6056" lon="5.93477">
        <ele>375.5</ele>
        <time>2025-03-02T10:34:36</time>
      </trkpt>
      <trkpt lat="45.6056" lon="5.93477">
        <ele>375.5</ele>
        <time>2025-03-02T10:34:37</time>
      </trkpt>
      <trkpt lat="45.6056" lon="5.93477">
        <ele>376.3</ele>
        <time>2025-03-02T10:34:38</time>
      </trkpt>
      <trkpt lat="45.60559" lon="5.93477">
        <ele>376.3</ele>
        <time>2025-03-02T10:34:39</time>
      </trkpt>
      <trkpt lat="45.60559" lon="5.93476">
        <ele>376.3</ele>
        <time>2025-03-02T10:34:40</time>
      </trkpt>
      <trkpt lat="45.60559" lon="5.93476">
        <ele>376.3</ele>
        <time>2025-03-02T10:34:40</time>
      </trkpt>
      <trkpt lat="45.60559" lon="5.93476">
        <ele>376.3</ele>
        <time>2025-03-02T10:34:42</time>
      </trkpt>
      <trkpt lat="45.60559" lon="5.93476">
        <ele>376.3</ele>
        <time>2025-03-02T10:34:43</time>
      </trkpt>
      <trkpt lat="45.60559" lon="5.93476">
        <ele>377</ele>
        <time>2025-03-02T10:34:48</time>
      </trkpt>
      <trkpt lat="45.60559" lon="5.93476">
        <ele>377</ele>
        <time>2025-03-02T10:34:48</time>
      </trkpt>
      <trkpt lat="45.60559" lon="5.93476">
        <ele>377</ele>
        <time>2025-03-02T10:34:50</time>
      </trkpt>
      <trkpt lat="45.60557" lon="5.93482">
        <ele>377</ele>
        <time>2025-03-02T10:34:53</time>
      </trkpt>
      <trkpt lat="45.60556" lon="5.93487">
        <ele>377</ele>
        <time>2025-03-02T10:34:55</time>
      </trkpt>
      <trkpt lat="45.60556" lon="5.93489">
        <ele>377</ele>
        <time>2025-03-02T10:34:56</time>
      </trkpt>
      <trkpt lat="45.60556" lon="5.9349">
        <ele>377</ele>
        <time>2025-03-02T10:34:57</time>
      </trkpt>
      <trkpt lat="45.60556" lon="5.93491">
        <ele>377</ele>
        <time>2025-03-02T10:34:58</time>
      </trkpt>
      <trkpt lat="45.60557" lon="5.93493">
        <ele>377</ele>
        <time>2025-03-02T10:34:58</time>
      </trkpt>
      <trkpt lat="45.60557" lon="5.93494">
        <ele>377</ele>
        <time>2025-03-02T10:34:59</time>
      </trkpt>
      <trkpt lat="45.60557" lon="5.93494">
        <ele>377</ele>
        <time>2025-03-02T10:35:00</time>
      </trkpt>
      <trkpt lat="45.60557" lon="5.93494">
        <ele>376.13333</ele>
        <time>2025-03-02T10:35:01</time>
      </trkpt>
      <trkpt lat="45.60557" lon="5.93495">
        <ele>376.13333</ele>
        <time>2025-03-02T10:35:03</time>
      </trkpt>
      <trkpt lat="45.60558" lon="5.93495">
        <ele>376.13333</ele>
        <time>2025-03-02T10:35:04</time>
      </trkpt>
      <trkpt lat="45.60558" lon="5.93495">
        <ele>376.13333</ele>
        <time>2025-03-02T10:35:05</time>
      </trkpt>
      <trkpt lat="45.60558" lon="5.93495">
        <ele>376.13333</ele>
        <time>2025-03-02T10:35:06</time>
      </trkpt>
      <trkpt lat="45.60558" lon="5.93496">
        <ele>376.13333</ele>
        <time>2025-03-02T10:35:07</time>
      </trkpt>
      <trkpt lat="45.60558" lon="5.93496">
        <ele>376.13333</ele>
        <time>2025-03-02T10:35:08</time>
      </trkpt>
      <trkpt lat="45.60557" lon="5.93496">
        <ele>376.13333</ele>
        <time>2025-03-02T10:35:09</time>
      </trkpt>
      <trkpt lat="45.60557" lon="5.93495">
        <ele>376.6</ele>
        <time>2025-03-02T10:35:11</time>
      </trkpt>
      <trkpt lat="45.60557" lon="5.93495">
        <ele>376.6</ele>
        <time>2025-03-02T10:35:13</time>
      </trkpt>
      <trkpt lat="45.60556" lon="5.93504">
        <ele>377.6</ele>
        <time>2025-03-02T10:35:18</time>
      </trkpt>
      <trkpt lat="45.60556" lon="5.93506">
        <ele>377.6</ele>
        <time>2025-03-02T10:35:20</time>
      </trkpt>
      <trkpt lat="45.60555" lon="5.93507">
        <ele>377.6</ele>
        <time>2025-03-02T10:35:20</time>
      </trkpt>
      <trkpt lat="45.60554" lon="5.93509">
        <ele>377.6</ele>
        <time>2025-03-02T10:35:23</time>
      </trkpt>
      <trkpt lat="45.60554" lon="5.9351">
        <ele>377.6</ele>
        <time>2025-03-02T10:35:24</time>
      </trkpt>
      <trkpt lat="45.60554" lon="5.93511">
        <ele>377.6</ele>
        <time>2025-03-02T10:35:24</time>
      </trkpt>
      <trkpt lat="45.60554" lon="5.93512">
        <ele>377.9</ele>
        <time>2025-03-02T10:35:25</time>
      </trkpt>
      <trkpt lat="45.60554" lon="5.93513">
        <ele>377.9</ele>
        <time>2025-03-02T10:35:26</time>
      </trkpt>
      <trkpt lat="45.60554" lon="5.93513">
        <ele>377.9</ele>
        <time>2025-03-02T10:35:27</time>
      </trkpt>
      <trkpt lat="45.60555" lon="5.93513">
        <ele>377.9</ele>
        <time>2025-03-02T10:35:28</time>
      </trkpt>
      <trkpt lat="45.60554" lon="5.93513">
        <ele>377.9</ele>
        <time>2025-03-02T10:35:29</time>
      </trkpt>
      <trkpt lat="45.60554" lon="5.93514">
        <ele>377.9</ele>
        <time>2025-03-02T10:35:30</time>
      </trkpt>
      <trkpt lat="45.60554" lon="5.93514">
        <ele>377.9</ele>
        <time>2025-03-02T10:35:31</time>
      </trkpt>
      <trkpt lat="45.60553" lon="5.93515">
        <ele>377.9</ele>
        <time>2025-03-02T10:35:31</time>
      </trkpt>
      <trkpt lat="45.60553" lon="5.93515">
        <ele>377.9</ele>
        <time>2025-03-02T10:35:32</time>
      </trkpt>
      <trkpt lat="45.60553" lon="5.93514">
        <ele>379.3</ele>
        <time>2025-03-02T10:35:33</time>
      </trkpt>
      <trkpt lat="45.60553" lon="5.93514">
        <ele>379.3</ele>
        <time>2025-03-02T10:35:36</time>
      </trkpt>
      <trkpt lat="45.60553" lon="5.93514">
        <ele>379.3</ele>
        <time>2025-03-02T10:35:37</time>
      </trkpt>
      <trkpt lat="45.60553" lon="5.93514">
        <ele>379.3</ele>
        <time>2025-03-02T10:35:38</time>
      </trkpt>
      <trkpt lat="45.60551" lon="5.93518">
        <ele>381</ele>
        <time>2025-03-02T10:35:41</time>
      </trkpt>
      <trkpt lat="45.6055" lon="5.93522">
        <ele>381</ele>
        <time>2025-03-02T10:35:43</time>
      </trkpt>
      <trkpt lat="45.60548" lon="5.9353">
        <ele>383.4</ele>
        <time>2025-03-02T10:35:50</time>
      </trkpt>
      <trkpt lat="45.60547" lon="5.93531">
        <ele>383.4</ele>
        <time>2025-03-02T10:35:50</time>
      </trkpt>
      <trkpt lat="45.60546" lon="5.93532">
        <ele>383.4</ele>
        <time>2025-03-02T10:35:53</time>
      </trkpt>
      <trkpt lat="45.60546" lon="5.93533">
        <ele>383.4</ele>
        <time>2025-03-02T10:35:53</time>
      </trkpt>
      <trkpt lat="45.60546" lon="5.93533">
        <ele>383.4</ele>
        <time>2025-03-02T10:35:54</time>
      </trkpt>
      <trkpt lat="45.60545" lon="5.93533">
        <ele>383.4</ele>
        <time>2025-03-02T10:35:55</time>
      </trkpt>
      <trkpt lat="45.60543" lon="5.93532">
        <ele>385.86667</ele>
        <time>2025-03-02T10:35:56</time>
      </trkpt>
      <trkpt lat="45.60542" lon="5.93531">
        <ele>385.86667</ele>
        <time>2025-03-02T10:35:57</time>
      </trkpt>
      <trkpt lat="45.60537" lon="5.93529">
        <ele>385.86667</ele>
        <time>2025-03-02T10:36:00</time>
      </trkpt>
      <trkpt lat="45.60533" lon="5.93528">
        <ele>387.23334</ele>
        <time>2025-03-02T10:36:05</time>
      </trkpt>
      <trkpt lat="45.60533" lon="5.93529">
        <ele>387.23334</ele>
        <time>2025-03-02T10:36:06</time>
      </trkpt>
      <trkpt lat="45.60533" lon="5.93529">
        <ele>387.23334</ele>
        <time>2025-03-02T10:36:06</time>
      </trkpt>
      <trkpt lat="45.60534" lon="5.93528">
        <ele>387.23334</ele>
        <time>2025-03-02T10:36:07</time>
      </trkpt>
      <trkpt lat="45.60534" lon="5.93528">
        <ele>387.23334</ele>
        <time>2025-03-02T10:36:07</time>
      </trkpt>
      <trkpt lat="45.60533" lon="5.93528">
        <ele>387.23334</ele>
        <time>2025-03-02T10:36:08</time>
      </trkpt>
      <trkpt lat="45.60533" lon="5.93528">
        <ele>389.2</ele>
        <time>2025-03-02T10:36:10</time>
      </trkpt>
      <trkpt lat="45.60532" lon="5.93529">
        <ele>389.2</ele>
        <time>2025-03-02T10:36:12</time>
      </trkpt>
      <trkpt lat="45.60531" lon="5.93529">
        <ele>389.2</ele>
        <time>2025-03-02T10:36:13</time>
      </trkpt>
      <trkpt lat="45.6053" lon="5.9353">
        <ele>389.2</ele>
        <time>2025-03-02T10:36:14</time>
      </trkpt>
      <trkpt lat="45.60528" lon="5.93531">
        <ele>389.2</ele>
        <time>2025-03-02T10:36:16</time>
      </trkpt>
      <trkpt lat="45.60527" lon="5.93532">
        <ele>389.2</ele>
        <time>2025-03-02T10:36:18</time>
      </trkpt>
      <trkpt lat="45.60525" lon="5.93533">
        <ele>389.2</ele>
        <time>2025-03-02T10:36:21</time>
      </trkpt>
      <trkpt lat="45.60524" lon="5.93534">
        <ele>389.2</ele>
        <time>2025-03-02T10:36:22</time>
      </trkpt>
      <trkpt lat="45.60522" lon="5.93534">
        <ele>389.3</ele>
        <time>2025-03-02T10:36:24</time>
      </trkpt>
      <trkpt lat="45.60521" lon="5.93535">
        <ele>389.3</ele>
        <time>2025-03-02T10:36:26</time>
      </trkpt>
      <trkpt lat="45.60521" lon="5.93535">
        <ele>389.3</ele>
        <time>2025-03-02T10:36:26</time>
      </trkpt>
      <trkpt lat="45.6052" lon="5.93534">
        <ele>389.3</ele>
        <time>2025-03-02T10:36:28</time>
      </trkpt>
      <trkpt lat="45.60519" lon="5.93534">
        <ele>389.3</ele>
        <time>2025-03-02T10:36:29</time>
      </trkpt>
      <trkpt lat="45.60518" lon="5.93535">
        <ele>389.3</ele>
        <time>2025-03-02T10:36:31</time>
      </trkpt>
      <trkpt lat="45.60515" lon="5.93538">
        <ele>389.3</ele>
        <time>2025-03-02T10:36:34</time>
      </trkpt>
      <trkpt lat="45.60514" lon="5.93538">
        <ele>389.3</ele>
        <time>2025-03-02T10:36:35</time>
      </trkpt>
      <trkpt lat="45.60513" lon="5.9354">
        <ele>389.3</ele>
        <time>2025-03-02T10:36:36</time>
      </trkpt>
      <trkpt lat="45.60512" lon="5.93541">
        <ele>389.3</ele>
        <time>2025-03-02T10:36:37</time>
      </trkpt>
      <trkpt lat="45.60512" lon="5.93541">
        <ele>389.3</ele>
        <time>2025-03-02T10:36:38</time>
      </trkpt>
      <trkpt lat="45.60512" lon="5.9354">
        <ele>389.3</ele>
        <time>2025-03-02T10:36:39</time>
      </trkpt>
      <trkpt lat="45.60511" lon="5.93537">
        <ele>388.8</ele>
        <time>2025-03-02T10:36:51</time>
      </trkpt>
      <trkpt lat="45.60511" lon="5.93537">
        <ele>388.8</ele>
        <time>2025-03-02T10:37:10</time>
      </trkpt>
      <trkpt lat="45.60509" lon="5.9354">
        <ele>388.8</ele>
        <time>2025-03-02T10:37:10</time>
      </trkpt>
      <trkpt lat="45.60508" lon="5.93541">
        <ele>388.8</ele>
        <time>2025-03-02T10:37:11</time>
      </trkpt>
      <trkpt lat="45.60505" lon="5.93541">
        <ele>388.8</ele>
        <time>2025-03-02T10:37:14</time>
      </trkpt>
      <trkpt lat="45.60502" lon="5.93541">
        <ele>388.8</ele>
        <time>2025-03-02T10:37:17</time>
      </trkpt>
      <trkpt lat="45.60502" lon="5.93542">
        <ele>391.7</ele>
        <time>2025-03-02T10:37:17</time>
      </trkpt>
      <trkpt lat="45.60501" lon="5.93542">
        <ele>391.7</ele>
        <time>2025-03-02T10:37:18</time>
      </trkpt>
      <trkpt lat="45.605" lon="5.93543">
        <ele>391.7</ele>
        <time>2025-03-02T10:37:20</time>
      </trkpt>
      <trkpt lat="45.60499" lon="5.93544">
        <ele>391.7</ele>
        <time>2025-03-02T10:37:21</time>
      </trkpt>
      <trkpt lat="45.60498" lon="5.93544">
        <ele>391.7</ele>
        <time>2025-03-02T10:37:23</time>
      </trkpt>
      <trkpt lat="45.60498" lon="5.93544">
        <ele>391.7</ele>
        <time>2025-03-02T10:37:23</time>
      </trkpt>
      <trkpt lat="45.60497" lon="5.93545">
        <ele>392.4</ele>
        <time>2025-03-02T10:37:26</time>
      </trkpt>
      <trkpt lat="45.60496" lon="5.93545">
        <ele>392.4</ele>
        <time>2025-03-02T10:37:26</time>
      </trkpt>
      <trkpt lat="45.60494" lon="5.93547">
        <ele>392.4</ele>
        <time>2025-03-02T10:37:29</time>
      </trkpt>
      <trkpt lat="45.60493" lon="5.93549">
        <ele>392.4</ele>
        <time>2025-03-02T10:37:30</time>
      </trkpt>
      <trkpt lat="45.60492" lon="5.93549">
        <ele>392.4</ele>
        <time>2025-03-02T10:37:31</time>
      </trkpt>
      <trkpt lat="45.60491" lon="5.9355">
        <ele>392.4</ele>
        <time>2025-03-02T10:37:32</time>
      </trkpt>
      <trkpt lat="45.6049" lon="5.93551">
        <ele>393.3</ele>
        <time>2025-03-02T10:37:34</time>
      </trkpt>
      <trkpt lat="45.60489" lon="5.93551">
        <ele>393.3</ele>
        <time>2025-03-02T10:37:35</time>
      </trkpt>
      <trkpt lat="45.60486" lon="5.93551">
        <ele>393.3</ele>
        <time>2025-03-02T10:37:39</time>
      </trkpt>
      <trkpt lat="45.60486" lon="5.93551">
        <ele>393.3</ele>
        <time>2025-03-02T10:37:41</time>
      </trkpt>
      <trkpt lat="45.60483" lon="5.93551">
        <ele>394.2</ele>
        <time>2025-03-02T10:37:44</time>
      </trkpt>
      <trkpt lat="45.60482" lon="5.9355">
        <ele>394.2</ele>
        <time>2025-03-02T10:37:44</time>
      </trkpt>
      <trkpt lat="45.60482" lon="5.93549">
        <ele>394.2</ele>
        <time>2025-03-02T10:37:45</time>
      </trkpt>
      <trkpt lat="45.60482" lon="5.93548">
        <ele>394.2</ele>
        <time>2025-03-02T10:37:47</time>
      </trkpt>
      <trkpt lat="45.60482" lon="5.93545">
        <ele>394.2</ele>
        <time>2025-03-02T10:37:50</time>
      </trkpt>
      <trkpt lat="45.6048" lon="5.9353">
        <ele>397.4</ele>
        <time>2025-03-02T10:38:18</time>
      </trkpt>
      <trkpt lat="45.6048" lon="5.93528">
        <ele>397.4</ele>
        <time>2025-03-02T10:38:19</time>
      </trkpt>
      <trkpt lat="45.60479" lon="5.93529">
        <ele>400.06668</ele>
        <time>2025-03-02T10:38:23</time>
      </trkpt>
      <trkpt lat="45.60477" lon="5.93531">
        <ele>400.06668</ele>
        <time>2025-03-02T10:38:25</time>
      </trkpt>
      <trkpt lat="45.60472" lon="5.93539">
        <ele>406.73334</ele>
        <time>2025-03-02T10:38:30</time>
      </trkpt>
      <trkpt lat="45.60472" lon="5.93539">
        <ele>406.73334</ele>
        <time>2025-03-02T10:38:31</time>
      </trkpt>
      <trkpt lat="45.60471" lon="5.93541">
        <ele>406.73334</ele>
        <time>2025-03-02T10:38:31</time>
      </trkpt>
      <trkpt lat="45.6047" lon="5.93542">
        <ele>406.73334</ele>
        <time>2025-03-02T10:38:32</time>
      </trkpt>
      <trkpt lat="45.60467" lon="5.93545">
        <ele>406.73334</ele>
        <time>2025-03-02T10:38:36</time>
      </trkpt>
      <trkpt lat="45.60466" lon="5.93545">
        <ele>406.73334</ele>
        <time>2025-03-02T10:38:37</time>
      </trkpt>
      <trkpt lat="45.60462" lon="5.93543">
        <ele>409</ele>
        <time>2025-03-02T10:38:42</time>
      </trkpt>
      <trkpt lat="45.60457" lon="5.93539">
        <ele>408.8</ele>
        <time>2025-03-02T10:38:48</time>
      </trkpt>
      <trkpt lat="45.60456" lon="5.93539">
        <ele>408.8</ele>
        <time>2025-03-02T10:38:49</time>
      </trkpt>
      <trkpt lat="45.60454" lon="5.93539">
        <ele>408.1</ele>
        <time>2025-03-02T10:38:52</time>
      </trkpt>
      <trkpt lat="45.60452" lon="5.93539">
        <ele>408.1</ele>
        <time>2025-03-02T10:38:54</time>
      </trkpt>
      <trkpt lat="45.60447" lon="5.93538">
        <ele>406.1</ele>
        <time>2025-03-02T10:39:00</time>
      </trkpt>
      <trkpt lat="45.60446" lon="5.93538">
        <ele>406.1</ele>
        <time>2025-03-02T10:39:01</time>
      </trkpt>
      <trkpt lat="45.60445" lon="5.93538">
        <ele>406.1</ele>
        <time>2025-03-02T10:39:03</time>
      </trkpt>
      <trkpt lat="45.60442" lon="5.93539">
        <ele>406.8</ele>
        <time>2025-03-02T10:39:07</time>
      </trkpt>
      <trkpt lat="45.60441" lon="5.93541">
        <ele>406.8</ele>
        <time>2025-03-02T10:39:09</time>
      </trkpt>
      <trkpt lat="45.6044" lon="5.93541">
        <ele>406.8</ele>
        <time>2025-03-02T10:39:11</time>
      </trkpt>
      <trkpt lat="45.60439" lon="5.93542">
        <ele>406.8</ele>
        <time>2025-03-02T10:39:14</time>
      </trkpt>
      <trkpt lat="45.60439" lon="5.93541">
        <ele>406.8</ele>
        <time>2025-03-02T10:39:14</time>
      </trkpt>
      <trkpt lat="45.60439" lon="5.93541">
        <ele>408.8</ele>
        <time>2025-03-02T10:39:15</time>
      </trkpt>
      <trkpt lat="45.60438" lon="5.9354">
        <ele>408.8</ele>
        <time>2025-03-02T10:39:17</time>
      </trkpt>
      <trkpt lat="45.60438" lon="5.9354">
        <ele>408.8</ele>
        <time>2025-03-02T10:39:17</time>
      </trkpt>
      <trkpt lat="45.60438" lon="5.93539">
        <ele>408.8</ele>
        <time>2025-03-02T10:39:19</time>
      </trkpt>
      <trkpt lat="45.60438" lon="5.93539">
        <ele>408.8</ele>
        <time>2025-03-02T10:39:20</time>
      </trkpt>
      <trkpt lat="45.60438" lon="5.93539">
        <ele>408.8</ele>
        <time>2025-03-02T10:39:21</time>
      </trkpt>
      <trkpt lat="45.60438" lon="5.93538">
        <ele>408.8</ele>
        <time>2025-03-02T10:39:23</time>
      </trkpt>
      <trkpt lat="45.60438" lon="5.93539">
        <ele>408.9</ele>
        <time>2025-03-02T10:39:26</time>
      </trkpt>
      <trkpt lat="45.60438" lon="5.93539">
        <ele>408.9</ele>
        <time>2025-03-02T10:39:26</time>
      </trkpt>
      <trkpt lat="45.60438" lon="5.93539">
        <ele>408.9</ele>
        <time>2025-03-02T10:39:27</time>
      </trkpt>
      <trkpt lat="45.60438" lon="5.93538">
        <ele>408.9</ele>
        <time>2025-03-02T10:39:28</time>
      </trkpt>
      <trkpt lat="45.60438" lon="5.93538">
        <ele>408.9</ele>
        <time>2025-03-02T10:39:28</time>
      </trkpt>
      <trkpt lat="45.60438" lon="5.93538">
        <ele>408.9</ele>
        <time>2025-03-02T10:39:29</time>
      </trkpt>
      <trkpt lat="45.60437" lon="5.93539">
        <ele>409.1</ele>
        <time>2025-03-02T10:39:33</time>
      </trkpt>
      <trkpt lat="45.60435" lon="5.93536">
        <ele>409.1</ele>
        <time>2025-03-02T10:39:34</time>
      </trkpt>
      <trkpt lat="45.60428" lon="5.93532">
        <ele>411.4</ele>
        <time>2025-03-02T10:39:39</time>
      </trkpt>
      <trkpt lat="45.60422" lon="5.93531">
        <ele>411.4</ele>
        <time>2025-03-02T10:39:44</time>
      </trkpt>
      <trkpt lat="45.60421" lon="5.93531">
        <ele>412.36667</ele>
        <time>2025-03-02T10:39:46</time>
      </trkpt>
      <trkpt lat="45.6042" lon="5.93531">
        <ele>412.36667</ele>
        <time>2025-03-02T10:39:48</time>
      </trkpt>
      <trkpt lat="45.6042" lon="5.93531">
        <ele>412.36667</ele>
        <time>2025-03-02T10:39:49</time>
      </trkpt>
      <trkpt lat="45.6042" lon="5.9353">
        <ele>412.36667</ele>
        <time>2025-03-02T10:39:51</time>
      </trkpt>
      <trkpt lat="45.6042" lon="5.9353">
        <ele>412.36667</ele>
        <time>2025-03-02T10:39:52</time>
      </trkpt>
      <trkpt lat="45.60413" lon="5.93529">
        <ele>413.7</ele>
        <time>2025-03-02T10:39:59</time>
      </trkpt>
      <trkpt lat="45.60407" lon="5.93527">
        <ele>413.7</ele>
        <time>2025-03-02T10:40:05</time>
      </trkpt>
      <trkpt lat="45.604" lon="5.93528">
        <ele>413.5</ele>
        <time>2025-03-02T10:40:11</time>
      </trkpt>
      <trkpt lat="45.60393" lon="5.9352">
        <ele>414.6</ele>
        <time>2025-03-02T10:40:21</time>
      </trkpt>
      <trkpt lat="45.60393" lon="5.9352">
        <ele>414.6</ele>
        <time>2025-03-02T10:40:21</time>
      </trkpt>
      <trkpt lat="45.6039" lon="5.9352">
        <ele>414.6</ele>
        <time>2025-03-02T10:40:24</time>
      </trkpt>
      <trkpt lat="45.60388" lon="5.9352">
        <ele>414.2</ele>
        <time>2025-03-02T10:40:27</time>
      </trkpt>
      <trkpt lat="45.60384" lon="5.93521">
        <ele>414.2</ele>
        <time>2025-03-02T10:40:31</time>
      </trkpt>
      <trkpt lat="45.60382" lon="5.93521">
        <ele>413.8</ele>
        <time>2025-03-02T10:40:34</time>
      </trkpt>
      <trkpt lat="45.60381" lon="5.93521">
        <ele>413.8</ele>
        <time>2025-03-02T10:40:35</time>
      </trkpt>
      <trkpt lat="45.60377" lon="5.93518">
        <ele>413.8</ele>
        <time>2025-03-02T10:40:40</time>
      </trkpt>
      <trkpt lat="45.60375" lon="5.93516">
        <ele>414.9</ele>
        <time>2025-03-02T10:40:44</time>
      </trkpt>
      <trkpt lat="45.60373" lon="5.93514">
        <ele>414.9</ele>
        <time>2025-03-02T10:40:47</time>
      </trkpt>
      <trkpt lat="45.6037" lon="5.9351">
        <ele>416.2</ele>
        <time>2025-03-02T10:40:53</time>
      </trkpt>
      <trkpt lat="45.60369" lon="5.93509">
        <ele>416.2</ele>
        <time>2025-03-02T10:40:54</time>
      </trkpt>
      <trkpt lat="45.60369" lon="5.93509">
        <ele>416.2</ele>
        <time>2025-03-02T10:40:54</time>
      </trkpt>
      <trkpt lat="45.60365" lon="5.93506">
        <ele>416.3</ele>
        <time>2025-03-02T10:41:02</time>
      </trkpt>
      <trkpt lat="45.60361" lon="5.93504">
        <ele>416.1</ele>
        <time>2025-03-02T10:41:07</time>
      </trkpt>
      <trkpt lat="45.6036" lon="5.93503">
        <ele>416.1</ele>
        <time>2025-03-02T10:41:09</time>
      </trkpt>
      <trkpt lat="45.60358" lon="5.93502">
        <ele>416.1</ele>
        <time>2025-03-02T10:41:12</time>
      </trkpt>
      <trkpt lat="45.60356" lon="5.93502">
        <ele>416.5</ele>
        <time>2025-03-02T10:41:13</time>
      </trkpt>
      <trkpt lat="45.60354" lon="5.93501">
        <ele>418.2</ele>
        <time>2025-03-02T10:41:22</time>
      </trkpt>
      <trkpt lat="45.60353" lon="5.935">
        <ele>418.2</ele>
        <time>2025-03-02T10:41:23</time>
      </trkpt>
      <trkpt lat="45.60353" lon="5.935">
        <ele>418.2</ele>
        <time>2025-03-02T10:41:24</time>
      </trkpt>
      <trkpt lat="45.60351" lon="5.93498">
        <ele>418.2</ele>
        <time>2025-03-02T10:41:26</time>
      </trkpt>
      <trkpt lat="45.60351" lon="5.93498">
        <ele>418.2</ele>
        <time>2025-03-02T10:41:27</time>
      </trkpt>
      <trkpt lat="45.60351" lon="5.93498">
        <ele>418.36667</ele>
        <time>2025-03-02T10:41:27</time>
      </trkpt>
      <trkpt lat="45.60351" lon="5.93498">
        <ele>418.36667</ele>
        <time>2025-03-02T10:41:28</time>
      </trkpt>
      <trkpt lat="45.60351" lon="5.93498">
        <ele>418.36667</ele>
        <time>2025-03-02T10:41:28</time>
      </trkpt>
      <trkpt lat="45.60351" lon="5.93498">
        <ele>418.36667</ele>
        <time>2025-03-02T10:41:29</time>
      </trkpt>
      <trkpt lat="45.6035" lon="5.93499">
        <ele>418.36667</ele>
        <time>2025-03-02T10:41:30</time>
      </trkpt>
      <trkpt lat="45.6035" lon="5.93498">
        <ele>418.36667</ele>
        <time>2025-03-02T10:41:30</time>
      </trkpt>
      <trkpt lat="45.6035" lon="5.93498">
        <ele>418.36667</ele>
        <time>2025-03-02T10:41:31</time>
      </trkpt>
      <trkpt lat="45.6035" lon="5.93498">
        <ele>418.36667</ele>
        <time>2025-03-02T10:41:32</time>
      </trkpt>
      <trkpt lat="45.60349" lon="5.93497">
        <ele>420.3</ele>
        <time>2025-03-02T10:41:34</time>
      </trkpt>
      <trkpt lat="45.60348" lon="5.93496">
        <ele>420.3</ele>
        <time>2025-03-02T10:41:37</time>
      </trkpt>
      <trkpt lat="45.60347" lon="5.93495">
        <ele>420.3</ele>
        <time>2025-03-02T10:41:38</time>
      </trkpt>
      <trkpt lat="45.60346" lon="5.93494">
        <ele>420.3</ele>
        <time>2025-03-02T10:41:39</time>
      </trkpt>
      <trkpt lat="45.60345" lon="5.93493">
        <ele>421.9</ele>
        <time>2025-03-02T10:41:41</time>
      </trkpt>
      <trkpt lat="45.60344" lon="5.93492">
        <ele>421.9</ele>
        <time>2025-03-02T10:41:42</time>
      </trkpt>
      <trkpt lat="45.60343" lon="5.93491">
        <ele>421.9</ele>
        <time>2025-03-02T10:41:43</time>
      </trkpt>
      <trkpt lat="45.60342" lon="5.9349">
        <ele>421.9</ele>
        <time>2025-03-02T10:41:44</time>
      </trkpt>
      <trkpt lat="45.60341" lon="5.93489">
        <ele>421.9</ele>
        <time>2025-03-02T10:41:45</time>
      </trkpt>
      <trkpt lat="45.6034" lon="5.93487">
        <ele>421.9</ele>
        <time>2025-03-02T10:41:46</time>
      </trkpt>
      <trkpt lat="45.60337" lon="5.93481">
        <ele>421.8</ele>
        <time>2025-03-02T10:41:51</time>
      </trkpt>
      <trkpt lat="45.60336" lon="5.93475">
        <ele>421.8</ele>
        <time>2025-03-02T10:41:55</time>
      </trkpt>
      <trkpt lat="45.60335" lon="5.93473">
        <ele>421.2</ele>
        <time>2025-03-02T10:41:56</time>
      </trkpt>
      <trkpt lat="45.60335" lon="5.93472">
        <ele>421.2</ele>
        <time>2025-03-02T10:41:57</time>
      </trkpt>
      <trkpt lat="45.60335" lon="5.93467">
        <ele>421.2</ele>
        <time>2025-03-02T10:42:01</time>
      </trkpt>
      <trkpt lat="45.60334" lon="5.93464">
        <ele>422.8</ele>
        <time>2025-03-02T10:42:04</time>
      </trkpt>
      <trkpt lat="45.60333" lon="5.93463">
        <ele>422.8</ele>
        <time>2025-03-02T10:42:04</time>
      </trkpt>
      <trkpt lat="45.60332" lon="5.93462">
        <ele>422.8</ele>
        <time>2025-03-02T10:42:06</time>
      </trkpt>
      <trkpt lat="45.60331" lon="5.93462">
        <ele>422.8</ele>
        <time>2025-03-02T10:42:07</time>
      </trkpt>
      <trkpt lat="45.60327" lon="5.93456">
        <ele>422.8</ele>
        <time>2025-03-02T10:42:12</time>
      </trkpt>
      <trkpt lat="45.60327" lon="5.93455">
        <ele>422.8</ele>
        <time>2025-03-02T10:42:14</time>
      </trkpt>
      <trkpt lat="45.60326" lon="5.93452">
        <ele>422.8</ele>
        <time>2025-03-02T10:42:17</time>
      </trkpt>
      <trkpt lat="45.60325" lon="5.93449">
        <ele>421.7</ele>
        <time>2025-03-02T10:42:19</time>
      </trkpt>
      <trkpt lat="45.60324" lon="5.93448">
        <ele>421.7</ele>
        <time>2025-03-02T10:42:20</time>
      </trkpt>
      <trkpt lat="45.60324" lon="5.93441">
        <ele>420.4</ele>
        <time>2025-03-02T10:42:25</time>
      </trkpt>
      <trkpt lat="45.60324" lon="5.93433">
        <ele>420.16666</ele>
        <time>2025-03-02T10:42:30</time>
      </trkpt>
      <trkpt lat="45.60323" lon="5.93432">
        <ele>420.16666</ele>
        <time>2025-03-02T10:42:30</time>
      </trkpt>
      <trkpt lat="45.60323" lon="5.9343">
        <ele>420.16666</ele>
        <time>2025-03-02T10:42:31</time>
      </trkpt>
      <trkpt lat="45.60322" lon="5.93429">
        <ele>420.16666</ele>
        <time>2025-03-02T10:42:32</time>
      </trkpt>
      <trkpt lat="45.60322" lon="5.93428">
        <ele>420.16666</ele>
        <time>2025-03-02T10:42:34</time>
      </trkpt>
      <trkpt lat="45.60318" lon="5.93425">
        <ele>418</ele>
        <time>2025-03-02T10:42:38</time>
      </trkpt>
      <trkpt lat="45.60317" lon="5.93425">
        <ele>418</ele>
        <time>2025-03-02T10:42:38</time>
      </trkpt>
      <trkpt lat="45.60315" lon="5.93423">
        <ele>418</ele>
        <time>2025-03-02T10:42:40</time>
      </trkpt>
      <trkpt lat="45.60315" lon="5.93423">
        <ele>418</ele>
        <time>2025-03-02T10:42:41</time>
      </trkpt>
      <trkpt lat="45.60312" lon="5.93421">
        <ele>416.53333</ele>
        <time>2025-03-02T10:42:44</time>
      </trkpt>
      <trkpt lat="45.60308" lon="5.93416">
        <ele>416.53333</ele>
        <time>2025-03-02T10:42:49</time>
      </trkpt>
      <trkpt lat="45.60308" lon="5.93414">
        <ele>417.1</ele>
        <time>2025-03-02T10:42:50</time>
      </trkpt>
      <trkpt lat="45.60306" lon="5.93409">
        <ele>417.1</ele>
        <time>2025-03-02T10:42:55</time>
      </trkpt>
      <trkpt lat="45.60305" lon="5.93402">
        <ele>417.1</ele>
        <time>2025-03-02T10:42:59</time>
      </trkpt>
      <trkpt lat="45.60304" lon="5.93399">
        <ele>417.1</ele>
        <time>2025-03-02T10:43:00</time>
      </trkpt>
      <trkpt lat="45.60303" lon="5.93397">
        <ele>417.1</ele>
        <time>2025-03-02T10:43:02</time>
      </trkpt>
      <trkpt lat="45.60303" lon="5.93396">
        <ele>417.1</ele>
        <time>2025-03-02T10:43:03</time>
      </trkpt>
      <trkpt lat="45.60302" lon="5.93395">
        <ele>417.1</ele>
        <time>2025-03-02T10:43:04</time>
      </trkpt>
      <trkpt lat="45.60301" lon="5.93394">
        <ele>419.3</ele>
        <time>2025-03-02T10:43:06</time>
      </trkpt>
      <trkpt lat="45.60301" lon="5.93393">
        <ele>419.3</ele>
        <time>2025-03-02T10:43:06</time>
      </trkpt>
      <trkpt lat="45.603" lon="5.93391">
        <ele>419.3</ele>
        <time>2025-03-02T10:43:07</time>
      </trkpt>
      <trkpt lat="45.60296" lon="5.93382">
        <ele>420.33334</ele>
        <time>2025-03-02T10:43:16</time>
      </trkpt>
      <trkpt lat="45.60295" lon="5.93381">
        <ele>421.6</ele>
        <time>2025-03-02T10:43:18</time>
      </trkpt>
      <trkpt lat="45.60295" lon="5.9338">
        <ele>421.6</ele>
        <time>2025-03-02T10:43:20</time>
      </trkpt>
      <trkpt lat="45.60294" lon="5.9338">
        <ele>421.6</ele>
        <time>2025-03-02T10:43:21</time>
      </trkpt>
      <trkpt lat="45.60291" lon="5.93377">
        <ele>422.76666</ele>
        <time>2025-03-02T10:43:25</time>
      </trkpt>
      <trkpt lat="45.6029" lon="5.93375">
        <ele>422.76666</ele>
        <time>2025-03-02T10:43:27</time>
      </trkpt>
      <trkpt lat="45.60283" lon="5.9336">
        <ele>422.4</ele>
        <time>2025-03-02T10:43:39</time>
      </trkpt>
      <trkpt lat="45.6028" lon="5.93356">
        <ele>422.4</ele>
        <time>2025-03-02T10:43:43</time>
      </trkpt>
      <trkpt lat="45.60271" lon="5.9335">
        <ele>420.16666</ele>
        <time>2025-03-02T10:43:55</time>
      </trkpt>
      <trkpt lat="45.60267" lon="5.93345">
        <ele>419.7</ele>
        <time>2025-03-02T10:44:02</time>
      </trkpt>
      <trkpt lat="45.60263" lon="5.9334">
        <ele>421.66666</ele>
        <time>2025-03-02T10:44:08</time>
      </trkpt>
      <trkpt lat="45.60262" lon="5.9334">
        <ele>421.66666</ele>
        <time>2025-03-02T10:44:09</time>
      </trkpt>
      <trkpt lat="45.60261" lon="5.93339">
        <ele>421.66666</ele>
        <time>2025-03-02T10:44:11</time>
      </trkpt>
      <trkpt lat="45.6026" lon="5.93339">
        <ele>421.66666</ele>
        <time>2025-03-02T10:44:11</time>
      </trkpt>
      <trkpt lat="45.6026" lon="5.93339">
        <ele>421.66666</ele>
        <time>2025-03-02T10:44:12</time>
      </trkpt>
      <trkpt lat="45.60258" lon="5.93339">
        <ele>422.2</ele>
        <time>2025-03-02T10:44:14</time>
      </trkpt>
      <trkpt lat="45.60257" lon="5.93339">
        <ele>422.2</ele>
        <time>2025-03-02T10:44:15</time>
      </trkpt>
      <trkpt lat="45.60255" lon="5.93338">
        <ele>422.2</ele>
        <time>2025-03-02T10:44:17</time>
      </trkpt>
      <trkpt lat="45.60253" lon="5.93337">
        <ele>422.2</ele>
        <time>2025-03-02T10:44:19</time>
      </trkpt>
      <trkpt lat="45.60251" lon="5.93335">
        <ele>422.2</ele>
        <time>2025-03-02T10:44:20</time>
      </trkpt>
      <trkpt lat="45.6025" lon="5.93335">
        <ele>422.83334</ele>
        <time>2025-03-02T10:44:22</time>
      </trkpt>
      <trkpt lat="45.60249" lon="5.93334">
        <ele>422.83334</ele>
        <time>2025-03-02T10:44:23</time>
      </trkpt>
      <trkpt lat="45.60249" lon="5.93334">
        <ele>422.83334</ele>
        <time>2025-03-02T10:44:23</time>
      </trkpt>
      <trkpt lat="45.60248" lon="5.93334">
        <ele>422.83334</ele>
        <time>2025-03-02T10:44:24</time>
      </trkpt>
      <trkpt lat="45.60245" lon="5.93333">
        <ele>423.5</ele>
        <time>2025-03-02T10:44:28</time>
      </trkpt>
      <trkpt lat="45.6024" lon="5.9333">
        <ele>423.5</ele>
        <time>2025-03-02T10:44:34</time>
      </trkpt>
      <trkpt lat="45.60239" lon="5.9333">
        <ele>424.5</ele>
        <time>2025-03-02T10:44:35</time>
      </trkpt>
      <trkpt lat="45.60238" lon="5.9333">
        <ele>424.5</ele>
        <time>2025-03-02T10:44:36</time>
      </trkpt>
      <trkpt lat="45.60234" lon="5.93327">
        <ele>424.5</ele>
        <time>2025-03-02T10:44:41</time>
      </trkpt>
      <trkpt lat="45.60232" lon="5.93325">
        <ele>425.3</ele>
        <time>2025-03-02T10:44:42</time>
      </trkpt>
      <trkpt lat="45.60228" lon="5.93322">
        <ele>425.3</ele>
        <time>2025-03-02T10:44:46</time>
      </trkpt>
      <trkpt lat="45.60227" lon="5.93321">
        <ele>425.3</ele>
        <time>2025-03-02T10:44:48</time>
      </trkpt>
      <trkpt lat="45.60226" lon="5.93319">
        <ele>427.3</ele>
        <time>2025-03-02T10:44:49</time>
      </trkpt>
      <trkpt lat="45.60224" lon="5.93312">
        <ele>427.3</ele>
        <time>2025-03-02T10:44:55</time>
      </trkpt>
      <trkpt lat="45.60223" lon="5.9331">
        <ele>429.6</ele>
        <time>2025-03-02T10:44:58</time>
      </trkpt>
      <trkpt lat="45.60222" lon="5.93308">
        <ele>429.6</ele>
        <time>2025-03-02T10:45:00</time>
      </trkpt>
      <trkpt lat="45.60221" lon="5.93307">
        <ele>429.6</ele>
        <time>2025-03-02T10:45:02</time>
      </trkpt>
      <trkpt lat="45.60221" lon="5.93307">
        <ele>429.6</ele>
        <time>2025-03-02T10:45:02</time>
      </trkpt>
      <trkpt lat="45.6022" lon="5.93306">
        <ele>431.13333</ele>
        <time>2025-03-02T10:45:04</time>
      </trkpt>
      <trkpt lat="45.60217" lon="5.93304">
        <ele>431.13333</ele>
        <time>2025-03-02T10:45:08</time>
      </trkpt>
      <trkpt lat="45.60215" lon="5.93302">
        <ele>432.5</ele>
        <time>2025-03-02T10:45:11</time>
      </trkpt>
      <trkpt lat="45.60213" lon="5.93301">
        <ele>432.5</ele>
        <time>2025-03-02T10:45:13</time>
      </trkpt>
      <trkpt lat="45.60211" lon="5.93298">
        <ele>432.5</ele>
        <time>2025-03-02T10:45:16</time>
      </trkpt>
      <trkpt lat="45.60211" lon="5.93297">
        <ele>432.5</ele>
        <time>2025-03-02T10:45:17</time>
      </trkpt>
      <trkpt lat="45.60209" lon="5.93297">
        <ele>435</ele>
        <time>2025-03-02T10:45:18</time>
      </trkpt>
      <trkpt lat="45.60208" lon="5.93296">
        <ele>435</ele>
        <time>2025-03-02T10:45:19</time>
      </trkpt>
      <trkpt lat="45.60205" lon="5.93296">
        <ele>435</ele>
        <time>2025-03-02T10:45:22</time>
      </trkpt>
      <trkpt lat="45.60204" lon="5.93296">
        <ele>436.8</ele>
        <time>2025-03-02T10:45:23</time>
      </trkpt>
      <trkpt lat="45.60202" lon="5.93294">
        <ele>436.8</ele>
        <time>2025-03-02T10:45:27</time>
      </trkpt>
      <trkpt lat="45.60201" lon="5.93293">
        <ele>436.8</ele>
        <time>2025-03-02T10:45:28</time>
      </trkpt>
      <trkpt lat="45.602" lon="5.93292">
        <ele>436.7</ele>
        <time>2025-03-02T10:45:30</time>
      </trkpt>
      <trkpt lat="45.60199" lon="5.93292">
        <ele>436.7</ele>
        <time>2025-03-02T10:45:31</time>
      </trkpt>
      <trkpt lat="45.60194" lon="5.93292">
        <ele>436.7</ele>
        <time>2025-03-02T10:45:35</time>
      </trkpt>
      <trkpt lat="45.60192" lon="5.93291">
        <ele>436.93332</ele>
        <time>2025-03-02T10:45:37</time>
      </trkpt>
      <trkpt lat="45.60191" lon="5.93291">
        <ele>436.93332</ele>
        <time>2025-03-02T10:45:38</time>
      </trkpt>
      <trkpt lat="45.60186" lon="5.93291">
        <ele>436.8</ele>
        <time>2025-03-02T10:45:44</time>
      </trkpt>
      <trkpt lat="45.60183" lon="5.9329">
        <ele>436.8</ele>
        <time>2025-03-02T10:45:48</time>
      </trkpt>
      <trkpt lat="45.60182" lon="5.93289">
        <ele>436.8</ele>
        <time>2025-03-02T10:45:49</time>
      </trkpt>
      <trkpt lat="45.60181" lon="5.93289">
        <ele>436.9</ele>
        <time>2025-03-02T10:45:50</time>
      </trkpt>
      <trkpt lat="45.60178" lon="5.93288">
        <ele>436.9</ele>
        <time>2025-03-02T10:45:53</time>
      </trkpt>
      <trkpt lat="45.60176" lon="5.93289">
        <ele>436.9</ele>
        <time>2025-03-02T10:45:55</time>
      </trkpt>
      <trkpt lat="45.60175" lon="5.93289">
        <ele>435.4</ele>
        <time>2025-03-02T10:45:56</time>
      </trkpt>
      <trkpt lat="45.60169" lon="5.93289">
        <ele>435.4</ele>
        <time>2025-03-02T10:46:01</time>
      </trkpt>
      <trkpt lat="45.60169" lon="5.9329">
        <ele>435.4</ele>
        <time>2025-03-02T10:46:01</time>
      </trkpt>
      <trkpt lat="45.60166" lon="5.9329">
        <ele>434.9</ele>
        <time>2025-03-02T10:46:04</time>
      </trkpt>
      <trkpt lat="45.60163" lon="5.93291">
        <ele>434.9</ele>
        <time>2025-03-02T10:46:07</time>
      </trkpt>
      <trkpt lat="45.60161" lon="5.93291">
        <ele>434.9</ele>
        <time>2025-03-02T10:46:09</time>
      </trkpt>
      <trkpt lat="45.6016" lon="5.93291">
        <ele>435.83334</ele>
        <time>2025-03-02T10:46:10</time>
      </trkpt>
      <trkpt lat="45.60158" lon="5.93291">
        <ele>435.83334</ele>
        <time>2025-03-02T10:46:11</time>
      </trkpt>
      <trkpt lat="45.60155" lon="5.93291">
        <ele>435.83334</ele>
        <time>2025-03-02T10:46:14</time>
      </trkpt>
      <trkpt lat="45.60151" lon="5.93292">
        <ele>436.73334</ele>
        <time>2025-03-02T10:46:17</time>
      </trkpt>
      <trkpt lat="45.60142" lon="5.93295">
        <ele>436.73334</ele>
        <time>2025-03-02T10:46:25</time>
      </trkpt>
      <trkpt lat="45.60142" lon="5.93296">
        <ele>436.5</ele>
        <time>2025-03-02T10:46:26</time>
      </trkpt>
      <trkpt lat="45.60141" lon="5.93298">
        <ele>436.5</ele>
        <time>2025-03-02T10:46:27</time>
      </trkpt>
      <trkpt lat="45.6014" lon="5.93301">
        <ele>436.5</ele>
        <time>2025-03-02T10:46:29</time>
      </trkpt>
      <trkpt lat="45.60138" lon="5.93304">
        <ele>436.5</ele>
        <time>2025-03-02T10:46:32</time>
      </trkpt>
      <trkpt lat="45.60138" lon="5.93305">
        <ele>436.5</ele>
        <time>2025-03-02T10:46:33</time>
      </trkpt>
      <trkpt lat="45.60135" lon="5.93307">
        <ele>436.7</ele>
        <time>2025-03-02T10:46:35</time>
      </trkpt>
      <trkpt lat="45.60134" lon="5.93308">
        <ele>436.7</ele>
        <time>2025-03-02T10:46:37</time>
      </trkpt>
      <trkpt lat="45.60132" lon="5.93309">
        <ele>436.7</ele>
        <time>2025-03-02T10:46:38</time>
      </trkpt>
      <trkpt lat="45.60131" lon="5.93309">
        <ele>436.7</ele>
        <time>2025-03-02T10:46:41</time>
      </trkpt>
      <trkpt lat="45.6013" lon="5.9331">
        <ele>436.9</ele>
        <time>2025-03-02T10:46:42</time>
      </trkpt>
      <trkpt lat="45.60129" lon="5.9331">
        <ele>436.9</ele>
        <time>2025-03-02T10:46:43</time>
      </trkpt>
      <trkpt lat="45.60128" lon="5.9331">
        <ele>436.9</ele>
        <time>2025-03-02T10:46:43</time>
      </trkpt>
      <trkpt lat="45.60128" lon="5.9331">
        <ele>436.9</ele>
        <time>2025-03-02T10:46:44</time>
      </trkpt>
      <trkpt lat="45.60126" lon="5.93308">
        <ele>436.9</ele>
        <time>2025-03-02T10:46:47</time>
      </trkpt>
      <trkpt lat="45.60125" lon="5.93307">
        <ele>434.8</ele>
        <time>2025-03-02T10:46:48</time>
      </trkpt>
      <trkpt lat="45.60125" lon="5.93307">
        <ele>434.8</ele>
        <time>2025-03-02T10:46:49</time>
      </trkpt>
      <trkpt lat="45.60124" lon="5.93304">
        <ele>434.8</ele>
        <time>2025-03-02T10:46:50</time>
      </trkpt>
      <trkpt lat="45.60123" lon="5.93301">
        <ele>434.8</ele>
        <time>2025-03-02T10:46:53</time>
      </trkpt>
      <trkpt lat="45.60122" lon="5.933">
        <ele>434.8</ele>
        <time>2025-03-02T10:46:54</time>
      </trkpt>
      <trkpt lat="45.60119" lon="5.93296">
        <ele>434.2</ele>
        <time>2025-03-02T10:46:58</time>
      </trkpt>
      <trkpt lat="45.60117" lon="5.93294">
        <ele>434.2</ele>
        <time>2025-03-02T10:47:00</time>
      </trkpt>
      <trkpt lat="45.60113" lon="5.93292">
        <ele>433.2</ele>
        <time>2025-03-02T10:47:04</time>
      </trkpt>
      <trkpt lat="45.60111" lon="5.93291">
        <ele>433.2</ele>
        <time>2025-03-02T10:47:05</time>
      </trkpt>
      <trkpt lat="45.6011" lon="5.93291">
        <ele>433.2</ele>
        <time>2025-03-02T10:47:06</time>
      </trkpt>
      <trkpt lat="45.60108" lon="5.93293">
        <ele>433.2</ele>
        <time>2025-03-02T10:47:09</time>
      </trkpt>
      <trkpt lat="45.60107" lon="5.93294">
        <ele>432.03333</ele>
        <time>2025-03-02T10:47:10</time>
      </trkpt>
      <trkpt lat="45.60105" lon="5.93294">
        <ele>432.03333</ele>
        <time>2025-03-02T10:47:11</time>
      </trkpt>
      <trkpt lat="45.60104" lon="5.93295">
        <ele>432.03333</ele>
        <time>2025-03-02T10:47:13</time>
      </trkpt>
      <trkpt lat="45.60103" lon="5.93296">
        <ele>432.03333</ele>
        <time>2025-03-02T10:47:17</time>
      </trkpt>
      <trkpt lat="45.60103" lon="5.93296">
        <ele>432.03333</ele>
        <time>2025-03-02T10:47:17</time>
      </trkpt>
      <trkpt lat="45.60103" lon="5.93296">
        <ele>432.03333</ele>
        <time>2025-03-02T10:47:18</time>
      </trkpt>
      <trkpt lat="45.60104" lon="5.93297">
        <ele>432.7</ele>
        <time>2025-03-02T10:47:19</time>
      </trkpt>
      <trkpt lat="45.60104" lon="5.93297">
        <ele>432.7</ele>
        <time>2025-03-02T10:47:19</time>
      </trkpt>
      <trkpt lat="45.60105" lon="5.93298">
        <ele>432.7</ele>
        <time>2025-03-02T10:47:21</time>
      </trkpt>
      <trkpt lat="45.60105" lon="5.93298">
        <ele>432.7</ele>
        <time>2025-03-02T10:47:23</time>
      </trkpt>
      <trkpt lat="45.60105" lon="5.93298">
        <ele>432.7</ele>
        <time>2025-03-02T10:47:24</time>
      </trkpt>
      <trkpt lat="45.60103" lon="5.93297">
        <ele>434.4</ele>
        <time>2025-03-02T10:47:31</time>
      </trkpt>
      <trkpt lat="45.60101" lon="5.93296">
        <ele>434.4</ele>
        <time>2025-03-02T10:47:35</time>
      </trkpt>
      <trkpt lat="45.60103" lon="5.93297">
        <ele>435</ele>
        <time>2025-03-02T10:47:37</time>
      </trkpt>
      <trkpt lat="45.60103" lon="5.93297">
        <ele>435</ele>
        <time>2025-03-02T10:47:37</time>
      </trkpt>
      <trkpt lat="45.60103" lon="5.93297">
        <ele>435</ele>
        <time>2025-03-02T10:47:39</time>
      </trkpt>
      <trkpt lat="45.60104" lon="5.93298">
        <ele>435</ele>
        <time>2025-03-02T10:47:39</time>
      </trkpt>
      <trkpt lat="45.60105" lon="5.93298">
        <ele>435</ele>
        <time>2025-03-02T10:47:40</time>
      </trkpt>
      <trkpt lat="45.60107" lon="5.93298">
        <ele>435</ele>
        <time>2025-03-02T10:47:43</time>
      </trkpt>
      <trkpt lat="45.60107" lon="5.93298">
        <ele>435</ele>
        <time>2025-03-02T10:47:44</time>
      </trkpt>
      <trkpt lat="45.60105" lon="5.93296">
        <ele>434.83334</ele>
        <time>2025-03-02T10:47:50</time>
      </trkpt>
      <trkpt lat="45.60103" lon="5.93295">
        <ele>434.83334</ele>
        <time>2025-03-02T10:47:52</time>
      </trkpt>
      <trkpt lat="45.60102" lon="5.93295">
        <ele>434.83334</ele>
        <time>2025-03-02T10:47:53</time>
      </trkpt>
      <trkpt lat="45.60102" lon="5.93293">
        <ele>434.23334</ele>
        <time>2025-03-02T10:47:58</time>
      </trkpt>
      <trkpt lat="45.60103" lon="5.93291">
        <ele>433.9</ele>
        <time>2025-03-02T10:48:10</time>
      </trkpt>
      <trkpt lat="45.60103" lon="5.93292">
        <ele>433.9</ele>
        <time>2025-03-02T10:48:11</time>
      </trkpt>
      <trkpt lat="45.60105" lon="5.93294">
        <ele>433.9</ele>
        <time>2025-03-02T10:48:26</time>
      </trkpt>
      <trkpt lat="45.60104" lon="5.93295">
        <ele>433.9</ele>
        <time>2025-03-02T10:48:29</time>
      </trkpt>
      <trkpt lat="45.60104" lon="5.93295">
        <ele>433.9</ele>
        <time>2025-03-02T10:48:30</time>
      </trkpt>
      <trkpt lat="45.60104" lon="5.93295">
        <ele>433.9</ele>
        <time>2025-03-02T10:48:31</time>
      </trkpt>
      <trkpt lat="45.60104" lon="5.93294">
        <ele>433.9</ele>
        <time>2025-03-02T10:48:32</time>
      </trkpt>
      <trkpt lat="45.60104" lon="5.93294">
        <ele>433.9</ele>
        <time>2025-03-02T10:48:33</time>
      </trkpt>
      <trkpt lat="45.60104" lon="5.93294">
        <ele>431.9</ele>
        <time>2025-03-02T10:48:34</time>
      </trkpt>
      <trkpt lat="45.60103" lon="5.93293">
        <ele>431.9</ele>
        <time>2025-03-02T10:48:35</time>
      </trkpt>
      <trkpt lat="45.60103" lon="5.93293">
        <ele>431.9</ele>
        <time>2025-03-02T10:48:36</time>
      </trkpt>
      <trkpt lat="45.60102" lon="5.93293">
        <ele>431.9</ele>
        <time>2025-03-02T10:48:37</time>
      </trkpt>
      <trkpt lat="45.60102" lon="5.93292">
        <ele>431.9</ele>
        <time>2025-03-02T10:48:38</time>
      </trkpt>
      <trkpt lat="45.60101" lon="5.93292">
        <ele>431.9</ele>
        <time>2025-03-02T10:48:38</time>
      </trkpt>
      <trkpt lat="45.60099" lon="5.93292">
        <ele>431.9</ele>
        <time>2025-03-02T10:48:39</time>
      </trkpt>
      <trkpt lat="45.60097" lon="5.93293">
        <ele>430.7</ele>
        <time>2025-03-02T10:48:42</time>
      </trkpt>
      <trkpt lat="45.60096" lon="5.93293">
        <ele>430.7</ele>
        <time>2025-03-02T10:48:43</time>
      </trkpt>
      <trkpt lat="45.60094" lon="5.93292">
        <ele>430.7</ele>
        <time>2025-03-02T10:48:45</time>
      </trkpt>
      <trkpt lat="45.60092" lon="5.93291">
        <ele>430.7</ele>
        <time>2025-03-02T10:48:47</time>
      </trkpt>
      <trkpt lat="45.60088" lon="5.93292">
        <ele>430</ele>
        <time>2025-03-02T10:48:51</time>
      </trkpt>
      <trkpt lat="45.60082" lon="5.93294">
        <ele>430</ele>
        <time>2025-03-02T10:48:57</time>
      </trkpt>
      <trkpt lat="45.60081" lon="5.93295">
        <ele>430</ele>
        <time>2025-03-02T10:48:59</time>
      </trkpt>
      <trkpt lat="45.60077" lon="5.93296">
        <ele>430</ele>
        <time>2025-03-02T10:49:03</time>
      </trkpt>
      <trkpt lat="45.60076" lon="5.93296">
        <ele>427.16666</ele>
        <time>2025-03-02T10:49:05</time>
      </trkpt>
      <trkpt lat="45.60075" lon="5.93295">
        <ele>427.16666</ele>
        <time>2025-03-02T10:49:06</time>
      </trkpt>
      <trkpt lat="45.60074" lon="5.93294">
        <ele>427.16666</ele>
        <time>2025-03-02T10:49:07</time>
      </trkpt>
      <trkpt lat="45.60072" lon="5.93293">
        <ele>427.16666</ele>
        <time>2025-03-02T10:49:09</time>
      </trkpt>
      <trkpt lat="45.6007" lon="5.93292">
        <ele>427.16666</ele>
        <time>2025-03-02T10:49:11</time>
      </trkpt>
      <trkpt lat="45.6007" lon="5.93292">
        <ele>427.16666</ele>
        <time>2025-03-02T10:49:12</time>
      </trkpt>
      <trkpt lat="45.60069" lon="5.93293">
        <ele>422.6</ele>
        <time>2025-03-02T10:49:13</time>
      </trkpt>
      <trkpt lat="45.60068" lon="5.93293">
        <ele>422.6</ele>
        <time>2025-03-02T10:49:14</time>
      </trkpt>
      <trkpt lat="45.60064" lon="5.93295">
        <ele>422.6</ele>
        <time>2025-03-02T10:49:18</time>
      </trkpt>
      <trkpt lat="45.60063" lon="5.93295">
        <ele>422.6</ele>
        <time>2025-03-02T10:49:20</time>
      </trkpt>
      <trkpt lat="45.60062" lon="5.93295">
        <ele>420.4</ele>
        <time>2025-03-02T10:49:21</time>
      </trkpt>
      <trkpt lat="45.6006" lon="5.93296">
        <ele>420.4</ele>
        <time>2025-03-02T10:49:23</time>
      </trkpt>
      <trkpt lat="45.60059" lon="5.93297">
        <ele>420.4</ele>
        <time>2025-03-02T10:49:25</time>
      </trkpt>
      <trkpt lat="45.60058" lon="5.93298">
        <ele>420.4</ele>
        <time>2025-03-02T10:49:26</time>
      </trkpt>
      <trkpt lat="45.60058" lon="5.93299">
        <ele>420.4</ele>
        <time>2025-03-02T10:49:28</time>
      </trkpt>
      <trkpt lat="45.60057" lon="5.933">
        <ele>420.4</ele>
        <time>2025-03-02T10:49:29</time>
      </trkpt>
      <trkpt lat="45.60057" lon="5.93303">
        <ele>419.6</ele>
        <time>2025-03-02T10:49:31</time>
      </trkpt>
      <trkpt lat="45.60056" lon="5.93307">
        <ele>419.6</ele>
        <time>2025-03-02T10:49:34</time>
      </trkpt>
      <trkpt lat="45.60056" lon="5.9331">
        <ele>418.9</ele>
        <time>2025-03-02T10:49:36</time>
      </trkpt>
      <trkpt lat="45.60056" lon="5.93313">
        <ele>418.9</ele>
        <time>2025-03-02T10:49:38</time>
      </trkpt>
      <trkpt lat="45.60057" lon="5.93318">
        <ele>418.9</ele>
        <time>2025-03-02T10:49:41</time>
      </trkpt>
      <trkpt lat="45.60059" lon="5.93326">
        <ele>418.03333</ele>
        <time>2025-03-02T10:49:47</time>
      </trkpt>
      <trkpt lat="45.60059" lon="5.93326">
        <ele>418.03333</ele>
        <time>2025-03-02T10:49:48</time>
      </trkpt>
      <trkpt lat="45.60059" lon="5.93326">
        <ele>418.03333</ele>
        <time>2025-03-02T10:49:49</time>
      </trkpt>
      <trkpt lat="45.60059" lon="5.93327">
        <ele>418.03333</ele>
        <time>2025-03-02T10:49:50</time>
      </trkpt>
      <trkpt lat="45.60058" lon="5.93326">
        <ele>417.23334</ele>
        <time>2025-03-02T10:49:55</time>
      </trkpt>
      <trkpt lat="45.60058" lon="5.93326">
        <ele>417.23334</ele>
        <time>2025-03-02T10:49:55</time>
      </trkpt>
      <trkpt lat="45.60058" lon="5.93326">
        <ele>417.23334</ele>
        <time>2025-03-02T10:49:56</time>
      </trkpt>
      <trkpt lat="45.60058" lon="5.93327">
        <ele>417.23334</ele>
        <time>2025-03-02T10:49:57</time>
      </trkpt>
      <trkpt lat="45.60058" lon="5.93327">
        <ele>417.23334</ele>
        <time>2025-03-02T10:49:58</time>
      </trkpt>
      <trkpt lat="45.60058" lon="5.93327">
        <ele>417.7</ele>
        <time>2025-03-02T10:49:59</time>
      </trkpt>
      <trkpt lat="45.60058" lon="5.93329">
        <ele>417.7</ele>
        <time>2025-03-02T10:50:00</time>
      </trkpt>
      <trkpt lat="45.60058" lon="5.9333">
        <ele>417.7</ele>
        <time>2025-03-02T10:50:01</time>
      </trkpt>
      <trkpt lat="45.60058" lon="5.93331">
        <ele>417.7</ele>
        <time>2025-03-02T10:50:03</time>
      </trkpt>
      <trkpt lat="45.60058" lon="5.93333">
        <ele>417.7</ele>
        <time>2025-03-02T10:50:04</time>
      </trkpt>
      <trkpt lat="45.60058" lon="5.93333">
        <ele>418</ele>
        <time>2025-03-02T10:50:06</time>
      </trkpt>
      <trkpt lat="45.60058" lon="5.93333">
        <ele>418</ele>
        <time>2025-03-02T10:50:07</time>
      </trkpt>
      <trkpt lat="45.60058" lon="5.93333">
        <ele>418</ele>
        <time>2025-03-02T10:50:07</time>
      </trkpt>
      <trkpt lat="45.60058" lon="5.93334">
        <ele>418</ele>
        <time>2025-03-02T10:50:08</time>
      </trkpt>
      <trkpt lat="45.60058" lon="5.93335">
        <ele>418</ele>
        <time>2025-03-02T10:50:09</time>
      </trkpt>
      <trkpt lat="45.60058" lon="5.93335">
        <ele>418</ele>
        <time>2025-03-02T10:50:10</time>
      </trkpt>
      <trkpt lat="45.60058" lon="5.93335">
        <ele>417.1</ele>
        <time>2025-03-02T10:50:10</time>
      </trkpt>
      <trkpt lat="45.60058" lon="5.93336">
        <ele>417.1</ele>
        <time>2025-03-02T10:50:11</time>
      </trkpt>
      <trkpt lat="45.60058" lon="5.93338">
        <ele>417.1</ele>
        <time>2025-03-02T10:50:13</time>
      </trkpt>
      <trkpt lat="45.60058" lon="5.93339">
        <ele>417.1</ele>
        <time>2025-03-02T10:50:14</time>
      </trkpt>
      <trkpt lat="45.60058" lon="5.93339">
        <ele>417.1</ele>
        <time>2025-03-02T10:50:14</time>
      </trkpt>
      <trkpt lat="45.60058" lon="5.9334">
        <ele>417.1</ele>
        <time>2025-03-02T10:50:15</time>
      </trkpt>
      <trkpt lat="45.60057" lon="5.93345">
        <ele>417</ele>
        <time>2025-03-02T10:50:18</time>
      </trkpt>
      <trkpt lat="45.60056" lon="5.9335">
        <ele>417</ele>
        <time>2025-03-02T10:50:21</time>
      </trkpt>
      <trkpt lat="45.60056" lon="5.93352">
        <ele>417</ele>
        <time>2025-03-02T10:50:23</time>
      </trkpt>
      <trkpt lat="45.60056" lon="5.93355">
        <ele>416.33334</ele>
        <time>2025-03-02T10:50:26</time>
      </trkpt>
      <trkpt lat="45.60056" lon="5.93356">
        <ele>416.33334</ele>
        <time>2025-03-02T10:50:26</time>
      </trkpt>
      <trkpt lat="45.60056" lon="5.93357">
        <ele>416.33334</ele>
        <time>2025-03-02T10:50:27</time>
      </trkpt>
      <trkpt lat="45.60057" lon="5.93357">
        <ele>416.33334</ele>
        <time>2025-03-02T10:50:28</time>
      </trkpt>
      <trkpt lat="45.60058" lon="5.93358">
        <ele>416.33334</ele>
        <time>2025-03-02T10:50:29</time>
      </trkpt>
      <trkpt lat="45.60059" lon="5.93358">
        <ele>415.8</ele>
        <time>2025-03-02T10:50:31</time>
      </trkpt>
      <trkpt lat="45.60062" lon="5.9336">
        <ele>415.8</ele>
        <time>2025-03-02T10:50:33</time>
      </trkpt>
      <trkpt lat="45.60064" lon="5.9336">
        <ele>415.8</ele>
        <time>2025-03-02T10:50:36</time>
      </trkpt>
      <trkpt lat="45.60065" lon="5.9336">
        <ele>415.8</ele>
        <time>2025-03-02T10:50:36</time>
      </trkpt>
      <trkpt lat="45.60066" lon="5.9336">
        <ele>415.8</ele>
        <time>2025-03-02T10:50:38</time>
      </trkpt>
      <trkpt lat="45.60069" lon="5.93359">
        <ele>415.6</ele>
        <time>2025-03-02T10:50:41</time>
      </trkpt>
      <trkpt lat="45.60069" lon="5.93359">
        <ele>415.6</ele>
        <time>2025-03-02T10:50:42</time>
      </trkpt>
      <trkpt lat="45.6007" lon="5.93359">
        <ele>415.6</ele>
        <time>2025-03-02T10:50:42</time>
      </trkpt>
      <trkpt lat="45.60071" lon="5.93359">
        <ele>415.6</ele>
        <time>2025-03-02T10:50:44</time>
      </trkpt>
      <trkpt lat="45.60072" lon="5.93359">
        <ele>415.73334</ele>
        <time>2025-03-02T10:50:45</time>
      </trkpt>
      <trkpt lat="45.60085" lon="5.93352">
        <ele>420.4</ele>
        <time>2025-03-02T10:51:04</time>
      </trkpt>
      <trkpt lat="45.60088" lon="5.93351">
        <ele>422.6</ele>
        <time>2025-03-02T10:51:08</time>
      </trkpt>
      <trkpt lat="45.60089" lon="5.93351">
        <ele>422.6</ele>
        <time>2025-03-02T10:51:08</time>
      </trkpt>
      <trkpt lat="45.6009" lon="5.93352">
        <ele>422.6</ele>
        <time>2025-03-02T10:51:09</time>
      </trkpt>
      <trkpt lat="45.60091" lon="5.93352">
        <ele>422.6</ele>
        <time>2025-03-02T10:51:10</time>
      </trkpt>
      <trkpt lat="45.60092" lon="5.93352">
        <ele>422.6</ele>
        <time>2025-03-02T10:51:11</time>
      </trkpt>
      <trkpt lat="45.60092" lon="5.93352">
        <ele>422.6</ele>
        <time>2025-03-02T10:51:12</time>
      </trkpt>
      <trkpt lat="45.60093" lon="5.93351">
        <ele>422.6</ele>
        <time>2025-03-02T10:51:13</time>
      </trkpt>
      <trkpt lat="45.60098" lon="5.93348">
        <ele>424.6</ele>
        <time>2025-03-02T10:51:19</time>
      </trkpt>
      <trkpt lat="45.60101" lon="5.93347">
        <ele>425.2</ele>
        <time>2025-03-02T10:51:23</time>
      </trkpt>
      <trkpt lat="45.60103" lon="5.93345">
        <ele>425.2</ele>
        <time>2025-03-02T10:51:27</time>
      </trkpt>
      <trkpt lat="45.60106" lon="5.93342">
        <ele>426.6</ele>
        <time>2025-03-02T10:51:32</time>
      </trkpt>
      <trkpt lat="45.60107" lon="5.93342">
        <ele>426.6</ele>
        <time>2025-03-02T10:51:33</time>
      </trkpt>
      <trkpt lat="45.60108" lon="5.93342">
        <ele>426.6</ele>
        <time>2025-03-02T10:51:34</time>
      </trkpt>
      <trkpt lat="45.60108" lon="5.93341">
        <ele>428.1</ele>
        <time>2025-03-02T10:51:35</time>
      </trkpt>
      <trkpt lat="45.60111" lon="5.9334">
        <ele>428.1</ele>
        <time>2025-03-02T10:51:39</time>
      </trkpt>
      <trkpt lat="45.60113" lon="5.93339">
        <ele>428.1</ele>
        <time>2025-03-02T10:51:41</time>
      </trkpt>
      <trkpt lat="45.60114" lon="5.9334">
        <ele>429.4</ele>
        <time>2025-03-02T10:51:42</time>
      </trkpt>
      <trkpt lat="45.60114" lon="5.9334">
        <ele>429.4</ele>
        <time>2025-03-02T10:51:43</time>
      </trkpt>
      <trkpt lat="45.60116" lon="5.93341">
        <ele>429.4</ele>
        <time>2025-03-02T10:51:44</time>
      </trkpt>
      <trkpt lat="45.60116" lon="5.93342">
        <ele>429.4</ele>
        <time>2025-03-02T10:51:46</time>
      </trkpt>
      <trkpt lat="45.6012" lon="5.93346">
        <ele>429.9</ele>
        <time>2025-03-02T10:51:50</time>
      </trkpt>
      <trkpt lat="45.60121" lon="5.93348">
        <ele>429.9</ele>
        <time>2025-03-02T10:51:51</time>
      </trkpt>
      <trkpt lat="45.60123" lon="5.93353">
        <ele>429.9</ele>
        <time>2025-03-02T10:51:55</time>
      </trkpt>
      <trkpt lat="45.60124" lon="5.93354">
        <ele>430.5</ele>
        <time>2025-03-02T10:51:57</time>
      </trkpt>
      <trkpt lat="45.60124" lon="5.93355">
        <ele>430.5</ele>
        <time>2025-03-02T10:51:57</time>
      </trkpt>
      <trkpt lat="45.60125" lon="5.93356">
        <ele>430.5</ele>
        <time>2025-03-02T10:51:59</time>
      </trkpt>
      <trkpt lat="45.60127" lon="5.93357">
        <ele>430.5</ele>
        <time>2025-03-02T10:52:00</time>
      </trkpt>
      <trkpt lat="45.60127" lon="5.93357">
        <ele>430.5</ele>
        <time>2025-03-02T10:52:01</time>
      </trkpt>
      <trkpt lat="45.60127" lon="5.93358">
        <ele>430.5</ele>
        <time>2025-03-02T10:52:01</time>
      </trkpt>
      <trkpt lat="45.60127" lon="5.93359">
        <ele>430.5</ele>
        <time>2025-03-02T10:52:02</time>
      </trkpt>
      <trkpt lat="45.60128" lon="5.9336">
        <ele>431.6</ele>
        <time>2025-03-02T10:52:03</time>
      </trkpt>
      <trkpt lat="45.60129" lon="5.93362">
        <ele>431.6</ele>
        <time>2025-03-02T10:52:04</time>
      </trkpt>
      <trkpt lat="45.6013" lon="5.93363">
        <ele>431.6</ele>
        <time>2025-03-02T10:52:05</time>
      </trkpt>
      <trkpt lat="45.60132" lon="5.93364">
        <ele>431.6</ele>
        <time>2025-03-02T10:52:07</time>
      </trkpt>
      <trkpt lat="45.60139" lon="5.93369">
        <ele>435</ele>
        <time>2025-03-02T10:52:17</time>
      </trkpt>
      <trkpt lat="45.60141" lon="5.93371">
        <ele>435</ele>
        <time>2025-03-02T10:52:20</time>
      </trkpt>
      <trkpt lat="45.60142" lon="5.93372">
        <ele>435</ele>
        <time>2025-03-02T10:52:21</time>
      </trkpt>
      <trkpt lat="45.60142" lon="5.93373">
        <ele>435</ele>
        <time>2025-03-02T10:52:21</time>
      </trkpt>
      <trkpt lat="45.60143" lon="5.93374">
        <ele>435</ele>
        <time>2025-03-02T10:52:22</time>
      </trkpt>
      <trkpt lat="45.60143" lon="5.93376">
        <ele>437.1</ele>
        <time>2025-03-02T10:52:23</time>
      </trkpt>
      <trkpt lat="45.60144" lon="5.93377">
        <ele>437.1</ele>
        <time>2025-03-02T10:52:24</time>
      </trkpt>
      <trkpt lat="45.60144" lon="5.93378">
        <ele>437.1</ele>
        <time>2025-03-02T10:52:25</time>
      </trkpt>
      <trkpt lat="45.60143" lon="5.93391">
        <ele>438.86667</ele>
        <time>2025-03-02T10:52:31</time>
      </trkpt>
      <trkpt lat="45.60143" lon="5.93393">
        <ele>438.86667</ele>
        <time>2025-03-02T10:52:32</time>
      </trkpt>
      <trkpt lat="45.60141" lon="5.93401">
        <ele>438.3</ele>
        <time>2025-03-02T10:52:37</time>
      </trkpt>
      <trkpt lat="45.60141" lon="5.93402">
        <ele>438.3</ele>
        <time>2025-03-02T10:52:38</time>
      </trkpt>
      <trkpt lat="45.6014" lon="5.93407">
        <ele>438.3</ele>
        <time>2025-03-02T10:52:42</time>
      </trkpt>
      <trkpt lat="45.6014" lon="5.9341">
        <ele>436.6</ele>
        <time>2025-03-02T10:52:44</time>
      </trkpt>
      <trkpt lat="45.6014" lon="5.93411">
        <ele>436.6</ele>
        <time>2025-03-02T10:52:45</time>
      </trkpt>
      <trkpt lat="45.60139" lon="5.93413">
        <ele>436.6</ele>
        <time>2025-03-02T10:52:47</time>
      </trkpt>
      <trkpt lat="45.60139" lon="5.93414">
        <ele>436.6</ele>
        <time>2025-03-02T10:52:47</time>
      </trkpt>
      <trkpt lat="45.60138" lon="5.93414">
        <ele>436.6</ele>
        <time>2025-03-02T10:52:48</time>
      </trkpt>
      <trkpt lat="45.60137" lon="5.93416">
        <ele>436.9</ele>
        <time>2025-03-02T10:52:50</time>
      </trkpt>
      <trkpt lat="45.60137" lon="5.93417">
        <ele>436.9</ele>
        <time>2025-03-02T10:52:51</time>
      </trkpt>
      <trkpt lat="45.60136" lon="5.93417">
        <ele>436.9</ele>
        <time>2025-03-02T10:52:51</time>
      </trkpt>
      <trkpt lat="45.60136" lon="5.93417">
        <ele>436.9</ele>
        <time>2025-03-02T10:52:52</time>
      </trkpt>
      <trkpt lat="45.60135" lon="5.93418">
        <ele>436.9</ele>
        <time>2025-03-02T10:52:52</time>
      </trkpt>
      <trkpt lat="45.60133" lon="5.93421">
        <ele>436.9</ele>
        <time>2025-03-02T10:52:56</time>
      </trkpt>
      <trkpt lat="45.60132" lon="5.93424">
        <ele>436.9</ele>
        <time>2025-03-02T10:52:58</time>
      </trkpt>
      <trkpt lat="45.60132" lon="5.93426">
        <ele>436.9</ele>
        <time>2025-03-02T10:52:59</time>
      </trkpt>
      <trkpt lat="45.60131" lon="5.93428">
        <ele>436.9</ele>
        <time>2025-03-02T10:53:01</time>
      </trkpt>
      <trkpt lat="45.60131" lon="5.93429">
        <ele>436.9</ele>
        <time>2025-03-02T10:53:03</time>
      </trkpt>
      <trkpt lat="45.6013" lon="5.9343">
        <ele>436.9</ele>
        <time>2025-03-02T10:53:03</time>
      </trkpt>
      <trkpt lat="45.6013" lon="5.93431">
        <ele>437.3</ele>
        <time>2025-03-02T10:53:04</time>
      </trkpt>
      <trkpt lat="45.60131" lon="5.93431">
        <ele>437.3</ele>
        <time>2025-03-02T10:53:05</time>
      </trkpt>
      <trkpt lat="45.60131" lon="5.93431">
        <ele>437.3</ele>
        <time>2025-03-02T10:53:05</time>
      </trkpt>
      <trkpt lat="45.60132" lon="5.93431">
        <ele>437.3</ele>
        <time>2025-03-02T10:53:06</time>
      </trkpt>
      <trkpt lat="45.60132" lon="5.93431">
        <ele>437.3</ele>
        <time>2025-03-02T10:53:07</time>
      </trkpt>
      <trkpt lat="45.60133" lon="5.93431">
        <ele>437.3</ele>
        <time>2025-03-02T10:53:07</time>
      </trkpt>
      <trkpt lat="45.60135" lon="5.9343">
        <ele>439</ele>
        <time>2025-03-02T10:53:11</time>
      </trkpt>
      <trkpt lat="45.60136" lon="5.9343">
        <ele>439</ele>
        <time>2025-03-02T10:53:11</time>
      </trkpt>
      <trkpt lat="45.60136" lon="5.9343">
        <ele>439</ele>
        <time>2025-03-02T10:53:13</time>
      </trkpt>
      <trkpt lat="45.60138" lon="5.93429">
        <ele>439</ele>
        <time>2025-03-02T10:53:15</time>
      </trkpt>
      <trkpt lat="45.60138" lon="5.93429">
        <ele>439</ele>
        <time>2025-03-02T10:53:15</time>
      </trkpt>
      <trkpt lat="45.60138" lon="5.93429">
        <ele>439</ele>
        <time>2025-03-02T10:53:16</time>
      </trkpt>
      <trkpt lat="45.60145" lon="5.93426">
        <ele>439.9</ele>
        <time>2025-03-02T10:53:23</time>
      </trkpt>
      <trkpt lat="45.6015" lon="5.93426">
        <ele>441.26666</ele>
        <time>2025-03-02T10:53:28</time>
      </trkpt>
      <trkpt lat="45.60152" lon="5.93425">
        <ele>441.26666</ele>
        <time>2025-03-02T10:53:30</time>
      </trkpt>
      <trkpt lat="45.60155" lon="5.93423">
        <ele>442.8</ele>
        <time>2025-03-02T10:53:33</time>
      </trkpt>
      <trkpt lat="45.6016" lon="5.93421">
        <ele>445.5</ele>
        <time>2025-03-02T10:53:39</time>
      </trkpt>
      <trkpt lat="45.6016" lon="5.93421">
        <ele>445.5</ele>
        <time>2025-03-02T10:53:40</time>
      </trkpt>
      <trkpt lat="45.60161" lon="5.93421">
        <ele>445.5</ele>
        <time>2025-03-02T10:53:40</time>
      </trkpt>
      <trkpt lat="45.60162" lon="5.9342">
        <ele>445.5</ele>
        <time>2025-03-02T10:53:42</time>
      </trkpt>
      <trkpt lat="45.60164" lon="5.93421">
        <ele>445.5</ele>
        <time>2025-03-02T10:53:44</time>
      </trkpt>
      <trkpt lat="45.60168" lon="5.93424">
        <ele>448.96667</ele>
        <time>2025-03-02T10:53:48</time>
      </trkpt>
      <trkpt lat="45.60168" lon="5.93424">
        <ele>448.96667</ele>
        <time>2025-03-02T10:53:48</time>
      </trkpt>
      <trkpt lat="45.60169" lon="5.93425">
        <ele>448.96667</ele>
        <time>2025-03-02T10:53:49</time>
      </trkpt>
      <trkpt lat="45.6017" lon="5.93429">
        <ele>448.96667</ele>
        <time>2025-03-02T10:53:51</time>
      </trkpt>
      <trkpt lat="45.60172" lon="5.93434">
        <ele>451.3</ele>
        <time>2025-03-02T10:53:55</time>
      </trkpt>
      <trkpt lat="45.60173" lon="5.93436">
        <ele>451.3</ele>
        <time>2025-03-02T10:53:57</time>
      </trkpt>
      <trkpt lat="45.60174" lon="5.93437">
        <ele>451.3</ele>
        <time>2025-03-02T10:53:59</time>
      </trkpt>
      <trkpt lat="45.60176" lon="5.9344">
        <ele>453.2</ele>
        <time>2025-03-02T10:54:01</time>
      </trkpt>
      <trkpt lat="45.60177" lon="5.93442">
        <ele>453.2</ele>
        <time>2025-03-02T10:54:03</time>
      </trkpt>
      <trkpt lat="45.60178" lon="5.93444">
        <ele>453.2</ele>
        <time>2025-03-02T10:54:05</time>
      </trkpt>
      <trkpt lat="45.6018" lon="5.93446">
        <ele>453.8</ele>
        <time>2025-03-02T10:54:07</time>
      </trkpt>
      <trkpt lat="45.6018" lon="5.93447">
        <ele>453.8</ele>
        <time>2025-03-02T10:54:08</time>
      </trkpt>
      <trkpt lat="45.60181" lon="5.93447">
        <ele>453.8</ele>
        <time>2025-03-02T10:54:09</time>
      </trkpt>
      <trkpt lat="45.60185" lon="5.93449">
        <ele>455.2</ele>
        <time>2025-03-02T10:54:14</time>
      </trkpt>
      <trkpt lat="45.60189" lon="5.93452">
        <ele>455.7</ele>
        <time>2025-03-02T10:54:20</time>
      </trkpt>
      <trkpt lat="45.6019" lon="5.93452">
        <ele>455.7</ele>
        <time>2025-03-02T10:54:21</time>
      </trkpt>
      <trkpt lat="45.6019" lon="5.93452">
        <ele>455.7</ele>
        <time>2025-03-02T10:54:21</time>
      </trkpt>
      <trkpt lat="45.60192" lon="5.93452">
        <ele>455.7</ele>
        <time>2025-03-02T10:54:22</time>
      </trkpt>
      <trkpt lat="45.60193" lon="5.93452">
        <ele>455.7</ele>
        <time>2025-03-02T10:54:24</time>
      </trkpt>
      <trkpt lat="45.60194" lon="5.93452">
        <ele>455.7</ele>
        <time>2025-03-02T10:54:25</time>
      </trkpt>
      <trkpt lat="45.60198" lon="5.93454">
        <ele>455.2</ele>
        <time>2025-03-02T10:54:28</time>
      </trkpt>
      <trkpt lat="45.60199" lon="5.93454">
        <ele>455.2</ele>
        <time>2025-03-02T10:54:29</time>
      </trkpt>
      <trkpt lat="45.60199" lon="5.93454">
        <ele>455.2</ele>
        <time>2025-03-02T10:54:29</time>
      </trkpt>
      <trkpt lat="45.60201" lon="5.93454">
        <ele>455.2</ele>
        <time>2025-03-02T10:54:31</time>
      </trkpt>
      <trkpt lat="45.60205" lon="5.93455">
        <ele>455.2</ele>
        <time>2025-03-02T10:54:34</time>
      </trkpt>
      <trkpt lat="45.60209" lon="5.93456">
        <ele>455.2</ele>
        <time>2025-03-02T10:54:39</time>
      </trkpt>
      <trkpt lat="45.60215" lon="5.93457">
        <ele>455.6</ele>
        <time>2025-03-02T10:54:43</time>
      </trkpt>
      <trkpt lat="45.60216" lon="5.93458">
        <ele>455.6</ele>
        <time>2025-03-02T10:54:44</time>
      </trkpt>
      <trkpt lat="45.60217" lon="5.93459">
        <ele>455.6</ele>
        <time>2025-03-02T10:54:45</time>
      </trkpt>
      <trkpt lat="45.6022" lon="5.9346">
        <ele>455.1</ele>
        <time>2025-03-02T10:54:49</time>
      </trkpt>
      <trkpt lat="45.60221" lon="5.93462">
        <ele>455.1</ele>
        <time>2025-03-02T10:54:50</time>
      </trkpt>
      <trkpt lat="45.60222" lon="5.93463">
        <ele>455.1</ele>
        <time>2025-03-02T10:54:52</time>
      </trkpt>
      <trkpt lat="45.60224" lon="5.93465">
        <ele>455.1</ele>
        <time>2025-03-02T10:54:53</time>
      </trkpt>
      <trkpt lat="45.60224" lon="5.93466">
        <ele>455.1</ele>
        <time>2025-03-02T10:54:55</time>
      </trkpt>
      <trkpt lat="45.60224" lon="5.93467">
        <ele>455.1</ele>
        <time>2025-03-02T10:54:55</time>
      </trkpt>
      <trkpt lat="45.60226" lon="5.9347">
        <ele>455.1</ele>
        <time>2025-03-02T10:54:59</time>
      </trkpt>
      <trkpt lat="45.60226" lon="5.9347">
        <ele>455.1</ele>
        <time>2025-03-02T10:54:59</time>
      </trkpt>
      <trkpt lat="45.60227" lon="5.93471">
        <ele>455.1</ele>
        <time>2025-03-02T10:55:00</time>
      </trkpt>
      <trkpt lat="45.60235" lon="5.93477">
        <ele>455.5</ele>
        <time>2025-03-02T10:55:09</time>
      </trkpt>
      <trkpt lat="45.60241" lon="5.93479">
        <ele>455.5</ele>
        <time>2025-03-02T10:55:14</time>
      </trkpt>
      <trkpt lat="45.60243" lon="5.9348">
        <ele>454.9</ele>
        <time>2025-03-02T10:55:16</time>
      </trkpt>
      <trkpt lat="45.60245" lon="5.93481">
        <ele>454.9</ele>
        <time>2025-03-02T10:55:17</time>
      </trkpt>
      <trkpt lat="45.60247" lon="5.93483">
        <ele>454.9</ele>
        <time>2025-03-02T10:55:19</time>
      </trkpt>
      <trkpt lat="45.60247" lon="5.93484">
        <ele>454.9</ele>
        <time>2025-03-02T10:55:21</time>
      </trkpt>
      <trkpt lat="45.60249" lon="5.93486">
        <ele>454.4</ele>
        <time>2025-03-02T10:55:23</time>
      </trkpt>
      <trkpt lat="45.6025" lon="5.93487">
        <ele>454.4</ele>
        <time>2025-03-02T10:55:24</time>
      </trkpt>
      <trkpt lat="45.6025" lon="5.93488">
        <ele>454.4</ele>
        <time>2025-03-02T10:55:25</time>
      </trkpt>
      <trkpt lat="45.6025" lon="5.9349">
        <ele>454.4</ele>
        <time>2025-03-02T10:55:26</time>
      </trkpt>
      <trkpt lat="45.60252" lon="5.93494">
        <ele>455</ele>
        <time>2025-03-02T10:55:29</time>
      </trkpt>
      <trkpt lat="45.60252" lon="5.93494">
        <ele>455</ele>
        <time>2025-03-02T10:55:30</time>
      </trkpt>
      <trkpt lat="45.60253" lon="5.93495">
        <ele>455</ele>
        <time>2025-03-02T10:55:31</time>
      </trkpt>
      <trkpt lat="45.60253" lon="5.93495">
        <ele>455</ele>
        <time>2025-03-02T10:55:32</time>
      </trkpt>
      <trkpt lat="45.60256" lon="5.93496">
        <ele>455</ele>
        <time>2025-03-02T10:55:35</time>
      </trkpt>
      <trkpt lat="45.60257" lon="5.93496">
        <ele>457.2</ele>
        <time>2025-03-02T10:55:36</time>
      </trkpt>
      <trkpt lat="45.60258" lon="5.93498">
        <ele>457.2</ele>
        <time>2025-03-02T10:55:38</time>
      </trkpt>
      <trkpt lat="45.60258" lon="5.93499">
        <ele>457.2</ele>
        <time>2025-03-02T10:55:39</time>
      </trkpt>
      <trkpt lat="45.60259" lon="5.935">
        <ele>457.2</ele>
        <time>2025-03-02T10:55:40</time>
      </trkpt>
      <trkpt lat="45.60259" lon="5.93501">
        <ele>457.2</ele>
        <time>2025-03-02T10:55:41</time>
      </trkpt>
      <trkpt lat="45.6026" lon="5.93502">
        <ele>458.2</ele>
        <time>2025-03-02T10:55:43</time>
      </trkpt>
      <trkpt lat="45.60262" lon="5.93503">
        <ele>458.2</ele>
        <time>2025-03-02T10:55:47</time>
      </trkpt>
      <trkpt lat="45.60264" lon="5.93505">
        <ele>459.9</ele>
        <time>2025-03-02T10:55:51</time>
      </trkpt>
      <trkpt lat="45.60265" lon="5.93506">
        <ele>459.9</ele>
        <time>2025-03-02T10:55:52</time>
      </trkpt>
      <trkpt lat="45.60271" lon="5.93512">
        <ele>461.8</ele>
        <time>2025-03-02T10:56:01</time>
      </trkpt>
      <trkpt lat="45.60272" lon="5.93513">
        <ele>461.8</ele>
        <time>2025-03-02T10:56:02</time>
      </trkpt>
      <trkpt lat="45.60273" lon="5.93514">
        <ele>461.8</ele>
        <time>2025-03-02T10:56:04</time>
      </trkpt>
      <trkpt lat="45.60273" lon="5.93514">
        <ele>465.23334</ele>
        <time>2025-03-02T10:56:04</time>
      </trkpt>
      <trkpt lat="45.60275" lon="5.93516">
        <ele>465.23334</ele>
        <time>2025-03-02T10:56:07</time>
      </trkpt>
      <trkpt lat="45.60275" lon="5.93517">
        <ele>465.23334</ele>
        <time>2025-03-02T10:56:08</time>
      </trkpt>
      <trkpt lat="45.60277" lon="5.93519">
        <ele>465.23334</ele>
        <time>2025-03-02T10:56:11</time>
      </trkpt>
      <trkpt lat="45.6028" lon="5.9352">
        <ele>465.8</ele>
        <time>2025-03-02T10:56:13</time>
      </trkpt>
      <trkpt lat="45.60283" lon="5.93524">
        <ele>465.8</ele>
        <time>2025-03-02T10:56:20</time>
      </trkpt>
      <trkpt lat="45.60286" lon="5.93529">
        <ele>466.8</ele>
        <time>2025-03-02T10:56:24</time>
      </trkpt>
      <trkpt lat="45.60287" lon="5.9353">
        <ele>466.8</ele>
        <time>2025-03-02T10:56:26</time>
      </trkpt>
      <trkpt lat="45.60287" lon="5.93531">
        <ele>466.8</ele>
        <time>2025-03-02T10:56:26</time>
      </trkpt>
      <trkpt lat="45.60289" lon="5.93532">
        <ele>468</ele>
        <time>2025-03-02T10:56:28</time>
      </trkpt>
      <trkpt lat="45.60289" lon="5.93533">
        <ele>468</ele>
        <time>2025-03-02T10:56:29</time>
      </trkpt>
      <trkpt lat="45.60289" lon="5.93534">
        <ele>468</ele>
        <time>2025-03-02T10:56:30</time>
      </trkpt>
      <trkpt lat="45.6029" lon="5.93536">
        <ele>468</ele>
        <time>2025-03-02T10:56:31</time>
      </trkpt>
      <trkpt lat="45.60291" lon="5.93537">
        <ele>468</ele>
        <time>2025-03-02T10:56:32</time>
      </trkpt>
      <trkpt lat="45.60292" lon="5.93539">
        <ele>468</ele>
        <time>2025-03-02T10:56:34</time>
      </trkpt>
      <trkpt lat="45.60293" lon="5.93539">
        <ele>468.96667</ele>
        <time>2025-03-02T10:56:35</time>
      </trkpt>
      <trkpt lat="45.60294" lon="5.93539">
        <ele>468.96667</ele>
        <time>2025-03-02T10:56:36</time>
      </trkpt>
      <trkpt lat="45.60295" lon="5.93539">
        <ele>468.96667</ele>
        <time>2025-03-02T10:56:37</time>
      </trkpt>
      <trkpt lat="45.60296" lon="5.9354">
        <ele>468.96667</ele>
        <time>2025-03-02T10:56:39</time>
      </trkpt>
      <trkpt lat="45.60297" lon="5.93541">
        <ele>468.96667</ele>
        <time>2025-03-02T10:56:39</time>
      </trkpt>
      <trkpt lat="45.60297" lon="5.93542">
        <ele>468.96667</ele>
        <time>2025-03-02T10:56:40</time>
      </trkpt>
      <trkpt lat="45.60299" lon="5.93546">
        <ele>470.3</ele>
        <time>2025-03-02T10:56:43</time>
      </trkpt>
      <trkpt lat="45.603" lon="5.93548">
        <ele>470.3</ele>
        <time>2025-03-02T10:56:45</time>
      </trkpt>
      <trkpt lat="45.603" lon="5.93548">
        <ele>470.3</ele>
        <time>2025-03-02T10:56:46</time>
      </trkpt>
      <trkpt lat="45.60301" lon="5.9355">
        <ele>470.3</ele>
        <time>2025-03-02T10:56:47</time>
      </trkpt>
      <trkpt lat="45.60301" lon="5.9355">
        <ele>470.3</ele>
        <time>2025-03-02T10:56:48</time>
      </trkpt>
      <trkpt lat="45.60301" lon="5.9355">
        <ele>470.3</ele>
        <time>2025-03-02T10:56:49</time>
      </trkpt>
      <trkpt lat="45.60302" lon="5.9355">
        <ele>470.3</ele>
        <time>2025-03-02T10:56:49</time>
      </trkpt>
      <trkpt lat="45.60303" lon="5.9355">
        <ele>472.3</ele>
        <time>2025-03-02T10:56:52</time>
      </trkpt>
      <trkpt lat="45.60307" lon="5.93551">
        <ele>472.3</ele>
        <time>2025-03-02T10:56:56</time>
      </trkpt>
      <trkpt lat="45.60307" lon="5.93551">
        <ele>473.5</ele>
        <time>2025-03-02T10:56:57</time>
      </trkpt>
      <trkpt lat="45.60308" lon="5.93553">
        <ele>473.5</ele>
        <time>2025-03-02T10:56:58</time>
      </trkpt>
      <trkpt lat="45.60309" lon="5.93555">
        <ele>473.5</ele>
        <time>2025-03-02T10:57:00</time>
      </trkpt>
      <trkpt lat="45.60309" lon="5.93556">
        <ele>473.5</ele>
        <time>2025-03-02T10:57:00</time>
      </trkpt>
      <trkpt lat="45.60309" lon="5.93557">
        <ele>473.5</ele>
        <time>2025-03-02T10:57:01</time>
      </trkpt>
      <trkpt lat="45.60309" lon="5.93558">
        <ele>473.5</ele>
        <time>2025-03-02T10:57:02</time>
      </trkpt>
      <trkpt lat="45.60309" lon="5.93559">
        <ele>473.5</ele>
        <time>2025-03-02T10:57:02</time>
      </trkpt>
      <trkpt lat="45.60308" lon="5.93563">
        <ele>474.8</ele>
        <time>2025-03-02T10:57:06</time>
      </trkpt>
      <trkpt lat="45.60308" lon="5.93564">
        <ele>474.8</ele>
        <time>2025-03-02T10:57:07</time>
      </trkpt>
      <trkpt lat="45.60306" lon="5.93566">
        <ele>474.8</ele>
        <time>2025-03-02T10:57:10</time>
      </trkpt>
      <trkpt lat="45.60305" lon="5.93566">
        <ele>474.8</ele>
        <time>2025-03-02T10:57:11</time>
      </trkpt>
      <trkpt lat="45.60305" lon="5.93567">
        <ele>474.8</ele>
        <time>2025-03-02T10:57:11</time>
      </trkpt>
      <trkpt lat="45.60304" lon="5.93568">
        <ele>475.4</ele>
        <time>2025-03-02T10:57:12</time>
      </trkpt>
      <trkpt lat="45.60303" lon="5.93567">
        <ele>475.4</ele>
        <time>2025-03-02T10:57:13</time>
      </trkpt>
      <trkpt lat="45.60301" lon="5.93567">
        <ele>475.4</ele>
        <time>2025-03-02T10:57:14</time>
      </trkpt>
      <trkpt lat="45.60296" lon="5.93568">
        <ele>475.1</ele>
        <time>2025-03-02T10:57:19</time>
      </trkpt>
      <trkpt lat="45.60295" lon="5.93569">
        <ele>475.1</ele>
        <time>2025-03-02T10:57:20</time>
      </trkpt>
      <trkpt lat="45.60294" lon="5.93569">
        <ele>475.1</ele>
        <time>2025-03-02T10:57:21</time>
      </trkpt>
      <trkpt lat="45.60292" lon="5.93571">
        <ele>475.1</ele>
        <time>2025-03-02T10:57:23</time>
      </trkpt>
      <trkpt lat="45.60291" lon="5.93571">
        <ele>475.1</ele>
        <time>2025-03-02T10:57:24</time>
      </trkpt>
      <trkpt lat="45.60291" lon="5.93571">
        <ele>477</ele>
        <time>2025-03-02T10:57:25</time>
      </trkpt>
      <trkpt lat="45.60292" lon="5.93571">
        <ele>477</ele>
        <time>2025-03-02T10:57:26</time>
      </trkpt>
      <trkpt lat="45.60292" lon="5.93571">
        <ele>477</ele>
        <time>2025-03-02T10:57:27</time>
      </trkpt>
      <trkpt lat="45.60292" lon="5.93571">
        <ele>477</ele>
        <time>2025-03-02T10:57:27</time>
      </trkpt>
      <trkpt lat="45.60291" lon="5.93572">
        <ele>477</ele>
        <time>2025-03-02T10:57:28</time>
      </trkpt>
      <trkpt lat="45.60289" lon="5.93573">
        <ele>477</ele>
        <time>2025-03-02T10:57:29</time>
      </trkpt>
      <trkpt lat="45.60288" lon="5.93574">
        <ele>477</ele>
        <time>2025-03-02T10:57:31</time>
      </trkpt>
      <trkpt lat="45.60286" lon="5.93575">
        <ele>477</ele>
        <time>2025-03-02T10:57:31</time>
      </trkpt>
      <trkpt lat="45.60285" lon="5.93575">
        <ele>477</ele>
        <time>2025-03-02T10:57:32</time>
      </trkpt>
      <trkpt lat="45.60284" lon="5.93575">
        <ele>477</ele>
        <time>2025-03-02T10:57:33</time>
      </trkpt>
      <trkpt lat="45.60283" lon="5.93577">
        <ele>477</ele>
        <time>2025-03-02T10:57:34</time>
      </trkpt>
      <trkpt lat="45.6028" lon="5.93581">
        <ele>477</ele>
        <time>2025-03-02T10:57:38</time>
      </trkpt>
      <trkpt lat="45.60278" lon="5.93584">
        <ele>476.8</ele>
        <time>2025-03-02T10:57:41</time>
      </trkpt>
      <trkpt lat="45.60278" lon="5.93585">
        <ele>476.8</ele>
        <time>2025-03-02T10:57:43</time>
      </trkpt>
      <trkpt lat="45.60275" lon="5.93587">
        <ele>476.4</ele>
        <time>2025-03-02T10:57:48</time>
      </trkpt>
      <trkpt lat="45.60275" lon="5.93588">
        <ele>476.4</ele>
        <time>2025-03-02T10:57:48</time>
      </trkpt>
      <trkpt lat="45.60274" lon="5.93588">
        <ele>476.4</ele>
        <time>2025-03-02T10:57:49</time>
      </trkpt>
      <trkpt lat="45.60274" lon="5.9359">
        <ele>476.4</ele>
        <time>2025-03-02T10:57:51</time>
      </trkpt>
      <trkpt lat="45.60274" lon="5.9359">
        <ele>476.4</ele>
        <time>2025-03-02T10:57:52</time>
      </trkpt>
      <trkpt lat="45.60275" lon="5.93595">
        <ele>476.6</ele>
        <time>2025-03-02T10:57:56</time>
      </trkpt>
      <trkpt lat="45.60275" lon="5.93596">
        <ele>476.6</ele>
        <time>2025-03-02T10:57:57</time>
      </trkpt>
      <trkpt lat="45.60275" lon="5.93597">
        <ele>476.6</ele>
        <time>2025-03-02T10:57:57</time>
      </trkpt>
      <trkpt lat="45.60276" lon="5.93597">
        <ele>476.6</ele>
        <time>2025-03-02T10:57:58</time>
      </trkpt>
      <trkpt lat="45.60277" lon="5.93598">
        <ele>476.6</ele>
        <time>2025-03-02T10:57:59</time>
      </trkpt>
      <trkpt lat="45.60278" lon="5.93598">
        <ele>476.6</ele>
        <time>2025-03-02T10:57:59</time>
      </trkpt>
      <trkpt lat="45.60278" lon="5.93598">
        <ele>477.3</ele>
        <time>2025-03-02T10:58:00</time>
      </trkpt>
      <trkpt lat="45.60279" lon="5.93598">
        <ele>477.3</ele>
        <time>2025-03-02T10:58:01</time>
      </trkpt>
      <trkpt lat="45.60283" lon="5.93598">
        <ele>477.3</ele>
        <time>2025-03-02T10:58:04</time>
      </trkpt>
      <trkpt lat="45.60284" lon="5.93599">
        <ele>477.3</ele>
        <time>2025-03-02T10:58:06</time>
      </trkpt>
      <trkpt lat="45.60285" lon="5.93599">
        <ele>477.3</ele>
        <time>2025-03-02T10:58:07</time>
      </trkpt>
      <trkpt lat="45.60289" lon="5.93598">
        <ele>477.43332</ele>
        <time>2025-03-02T10:58:10</time>
      </trkpt>
      <trkpt lat="45.60291" lon="5.93598">
        <ele>477.43332</ele>
        <time>2025-03-02T10:58:12</time>
      </trkpt>
      <trkpt lat="45.60291" lon="5.93598">
        <ele>477.43332</ele>
        <time>2025-03-02T10:58:12</time>
      </trkpt>
      <trkpt lat="45.60293" lon="5.93598">
        <ele>481.1</ele>
        <time>2025-03-02T10:58:14</time>
      </trkpt>
      <trkpt lat="45.60293" lon="5.93598">
        <ele>481.1</ele>
        <time>2025-03-02T10:58:15</time>
      </trkpt>
      <trkpt lat="45.60296" lon="5.936">
        <ele>481.1</ele>
        <time>2025-03-02T10:58:18</time>
      </trkpt>
      <trkpt lat="45.60297" lon="5.936">
        <ele>481.1</ele>
        <time>2025-03-02T10:58:18</time>
      </trkpt>
      <trkpt lat="45.60302" lon="5.93598">
        <ele>482.2</ele>
        <time>2025-03-02T10:58:24</time>
      </trkpt>
      <trkpt lat="45.60304" lon="5.93598">
        <ele>482.2</ele>
        <time>2025-03-02T10:58:26</time>
      </trkpt>
      <trkpt lat="45.60308" lon="5.93595">
        <ele>483.66666</ele>
        <time>2025-03-02T10:58:30</time>
      </trkpt>
      <trkpt lat="45.60309" lon="5.93595">
        <ele>483.66666</ele>
        <time>2025-03-02T10:58:31</time>
      </trkpt>
      <trkpt lat="45.6031" lon="5.93595">
        <ele>483.66666</ele>
        <time>2025-03-02T10:58:32</time>
      </trkpt>
      <trkpt lat="45.60315" lon="5.93595">
        <ele>484.66666</ele>
        <time>2025-03-02T10:58:37</time>
      </trkpt>
      <trkpt lat="45.6032" lon="5.93594">
        <ele>485.4</ele>
        <time>2025-03-02T10:58:41</time>
      </trkpt>
      <trkpt lat="45.60321" lon="5.93594">
        <ele>485.4</ele>
        <time>2025-03-02T10:58:42</time>
      </trkpt>
      <trkpt lat="45.60322" lon="5.93595">
        <ele>485.4</ele>
        <time>2025-03-02T10:58:43</time>
      </trkpt>
      <trkpt lat="45.60322" lon="5.93595">
        <ele>485.4</ele>
        <time>2025-03-02T10:58:43</time>
      </trkpt>
      <trkpt lat="45.60323" lon="5.93595">
        <ele>485.4</ele>
        <time>2025-03-02T10:58:44</time>
      </trkpt>
      <trkpt lat="45.60324" lon="5.93594">
        <ele>485.4</ele>
        <time>2025-03-02T10:58:45</time>
      </trkpt>
      <trkpt lat="45.60334" lon="5.9359">
        <ele>487</ele>
        <time>2025-03-02T10:58:53</time>
      </trkpt>
      <trkpt lat="45.60334" lon="5.93591">
        <ele>488.06668</ele>
        <time>2025-03-02T10:58:54</time>
      </trkpt>
      <trkpt lat="45.60335" lon="5.93591">
        <ele>488.06668</ele>
        <time>2025-03-02T10:58:55</time>
      </trkpt>
      <trkpt lat="45.60344" lon="5.93589">
        <ele>487.73334</ele>
        <time>2025-03-02T10:59:02</time>
      </trkpt>
      <trkpt lat="45.60345" lon="5.9359">
        <ele>487.73334</ele>
        <time>2025-03-02T10:59:03</time>
      </trkpt>
      <trkpt lat="45.60346" lon="5.9359">
        <ele>487.73334</ele>
        <time>2025-03-02T10:59:04</time>
      </trkpt>
      <trkpt lat="45.60347" lon="5.9359">
        <ele>487.73334</ele>
        <time>2025-03-02T10:59:05</time>
      </trkpt>
      <trkpt lat="45.60347" lon="5.93591">
        <ele>487.73334</ele>
        <time>2025-03-02T10:59:05</time>
      </trkpt>
      <trkpt lat="45.60348" lon="5.9359">
        <ele>488.1</ele>
        <time>2025-03-02T10:59:06</time>
      </trkpt>
      <trkpt lat="45.60349" lon="5.9359">
        <ele>488.1</ele>
        <time>2025-03-02T10:59:06</time>
      </trkpt>
      <trkpt lat="45.60353" lon="5.93587">
        <ele>488.1</ele>
        <time>2025-03-02T10:59:11</time>
      </trkpt>
      <trkpt lat="45.60357" lon="5.93588">
        <ele>489.1</ele>
        <time>2025-03-02T10:59:14</time>
      </trkpt>
      <trkpt lat="45.60358" lon="5.93588">
        <ele>489.1</ele>
        <time>2025-03-02T10:59:15</time>
      </trkpt>
      <trkpt lat="45.60359" lon="5.93589">
        <ele>489.1</ele>
        <time>2025-03-02T10:59:16</time>
      </trkpt>
      <trkpt lat="45.6036" lon="5.9359">
        <ele>489.1</ele>
        <time>2025-03-02T10:59:17</time>
      </trkpt>
      <trkpt lat="45.60362" lon="5.93591">
        <ele>490.43332</ele>
        <time>2025-03-02T10:59:20</time>
      </trkpt>
      <trkpt lat="45.60364" lon="5.93592">
        <ele>490.43332</ele>
        <time>2025-03-02T10:59:21</time>
      </trkpt>
      <trkpt lat="45.60364" lon="5.93593">
        <ele>490.43332</ele>
        <time>2025-03-02T10:59:23</time>
      </trkpt>
      <trkpt lat="45.60365" lon="5.93595">
        <ele>490.43332</ele>
        <time>2025-03-02T10:59:24</time>
      </trkpt>
      <trkpt lat="45.60365" lon="5.93595">
        <ele>490.43332</ele>
        <time>2025-03-02T10:59:25</time>
      </trkpt>
      <trkpt lat="45.60367" lon="5.93596">
        <ele>490.8</ele>
        <time>2025-03-02T10:59:27</time>
      </trkpt>
      <trkpt lat="45.60368" lon="5.93596">
        <ele>490.8</ele>
        <time>2025-03-02T10:59:27</time>
      </trkpt>
      <trkpt lat="45.60369" lon="5.93596">
        <ele>490.8</ele>
        <time>2025-03-02T10:59:29</time>
      </trkpt>
      <trkpt lat="45.6037" lon="5.93596">
        <ele>490.8</ele>
        <time>2025-03-02T10:59:30</time>
      </trkpt>
      <trkpt lat="45.60371" lon="5.93596">
        <ele>490.8</ele>
        <time>2025-03-02T10:59:32</time>
      </trkpt>
      <trkpt lat="45.60372" lon="5.93596">
        <ele>490.6</ele>
        <time>2025-03-02T10:59:33</time>
      </trkpt>
      <trkpt lat="45.60374" lon="5.93597">
        <ele>490.6</ele>
        <time>2025-03-02T10:59:36</time>
      </trkpt>
      <trkpt lat="45.60379" lon="5.93598">
        <ele>490.6</ele>
        <time>2025-03-02T10:59:39</time>
      </trkpt>
      <trkpt lat="45.60379" lon="5.93599">
        <ele>490.6</ele>
        <time>2025-03-02T10:59:40</time>
      </trkpt>
      <trkpt lat="45.6038" lon="5.936">
        <ele>492</ele>
        <time>2025-03-02T10:59:40</time>
      </trkpt>
      <trkpt lat="45.60382" lon="5.93601">
        <ele>492</ele>
        <time>2025-03-02T10:59:42</time>
      </trkpt>
      <trkpt lat="45.60382" lon="5.93602">
        <ele>492</ele>
        <time>2025-03-02T10:59:42</time>
      </trkpt>
      <trkpt lat="45.60383" lon="5.93604">
        <ele>492</ele>
        <time>2025-03-02T10:59:43</time>
      </trkpt>
      <trkpt lat="45.60383" lon="5.93604">
        <ele>492</ele>
        <time>2025-03-02T10:59:44</time>
      </trkpt>
      <trkpt lat="45.60386" lon="5.93605">
        <ele>492</ele>
        <time>2025-03-02T10:59:47</time>
      </trkpt>
      <trkpt lat="45.60386" lon="5.93606">
        <ele>492.7</ele>
        <time>2025-03-02T10:59:48</time>
      </trkpt>
      <trkpt lat="45.60386" lon="5.93607">
        <ele>492.7</ele>
        <time>2025-03-02T10:59:48</time>
      </trkpt>
      <trkpt lat="45.60386" lon="5.93608">
        <ele>492.7</ele>
        <time>2025-03-02T10:59:50</time>
      </trkpt>
      <trkpt lat="45.60387" lon="5.93609">
        <ele>492.7</ele>
        <time>2025-03-02T10:59:51</time>
      </trkpt>
      <trkpt lat="45.60387" lon="5.93609">
        <ele>492.7</ele>
        <time>2025-03-02T10:59:52</time>
      </trkpt>
      <trkpt lat="45.60388" lon="5.93609">
        <ele>492.7</ele>
        <time>2025-03-02T10:59:52</time>
      </trkpt>
      <trkpt lat="45.6039" lon="5.93609">
        <ele>495.7</ele>
        <time>2025-03-02T10:59:56</time>
      </trkpt>
      <trkpt lat="45.6039" lon="5.93609">
        <ele>495.7</ele>
        <time>2025-03-02T10:59:57</time>
      </trkpt>
      <trkpt lat="45.60391" lon="5.93608">
        <ele>495.7</ele>
        <time>2025-03-02T10:59:58</time>
      </trkpt>
      <trkpt lat="45.60392" lon="5.93608">
        <ele>495.7</ele>
        <time>2025-03-02T11:00:00</time>
      </trkpt>
      <trkpt lat="45.60395" lon="5.93607">
        <ele>496.96667</ele>
        <time>2025-03-02T11:00:02</time>
      </trkpt>
      <trkpt lat="45.60397" lon="5.93608">
        <ele>496.96667</ele>
        <time>2025-03-02T11:00:04</time>
      </trkpt>
      <trkpt lat="45.60398" lon="5.93608">
        <ele>496.96667</ele>
        <time>2025-03-02T11:00:06</time>
      </trkpt>
      <trkpt lat="45.60405" lon="5.93609">
        <ele>497.46667</ele>
        <time>2025-03-02T11:00:12</time>
      </trkpt>
      <trkpt lat="45.60407" lon="5.93609">
        <ele>497.46667</ele>
        <time>2025-03-02T11:00:13</time>
      </trkpt>
      <trkpt lat="45.60412" lon="5.93608">
        <ele>497.76666</ele>
        <time>2025-03-02T11:00:18</time>
      </trkpt>
      <trkpt lat="45.60413" lon="5.93607">
        <ele>497.76666</ele>
        <time>2025-03-02T11:00:19</time>
      </trkpt>
      <trkpt lat="45.60414" lon="5.93607">
        <ele>497.76666</ele>
        <time>2025-03-02T11:00:19</time>
      </trkpt>
      <trkpt lat="45.60414" lon="5.93607">
        <ele>497.76666</ele>
        <time>2025-03-02T11:00:20</time>
      </trkpt>
      <trkpt lat="45.60415" lon="5.93607">
        <ele>497.76666</ele>
        <time>2025-03-02T11:00:21</time>
      </trkpt>
      <trkpt lat="45.60416" lon="5.93607">
        <ele>497.76666</ele>
        <time>2025-03-02T11:00:22</time>
      </trkpt>
      <trkpt lat="45.60417" lon="5.93607">
        <ele>497.7</ele>
        <time>2025-03-02T11:00:23</time>
      </trkpt>
      <trkpt lat="45.60417" lon="5.93606">
        <ele>497.7</ele>
        <time>2025-03-02T11:00:24</time>
      </trkpt>
      <trkpt lat="45.60418" lon="5.93605">
        <ele>497.7</ele>
        <time>2025-03-02T11:00:25</time>
      </trkpt>
      <trkpt lat="45.60418" lon="5.93604">
        <ele>497.7</ele>
        <time>2025-03-02T11:00:27</time>
      </trkpt>
      <trkpt lat="45.60419" lon="5.93604">
        <ele>497.7</ele>
        <time>2025-03-02T11:00:28</time>
      </trkpt>
      <trkpt lat="45.6042" lon="5.93604">
        <ele>497.7</ele>
        <time>2025-03-02T11:00:28</time>
      </trkpt>
      <trkpt lat="45.60421" lon="5.93605">
        <ele>495.7</ele>
        <time>2025-03-02T11:00:29</time>
      </trkpt>
      <trkpt lat="45.60422" lon="5.93605">
        <ele>495.7</ele>
        <time>2025-03-02T11:00:30</time>
      </trkpt>
      <trkpt lat="45.60423" lon="5.93605">
        <ele>495.7</ele>
        <time>2025-03-02T11:00:31</time>
      </trkpt>
      <trkpt lat="45.60424" lon="5.93605">
        <ele>495.7</ele>
        <time>2025-03-02T11:00:33</time>
      </trkpt>
      <trkpt lat="45.60426" lon="5.93605">
        <ele>495.7</ele>
        <time>2025-03-02T11:00:35</time>
      </trkpt>
      <trkpt lat="45.60429" lon="5.93605">
        <ele>493.83334</ele>
        <time>2025-03-02T11:00:37</time>
      </trkpt>
      <trkpt lat="45.6043" lon="5.93604">
        <ele>493.83334</ele>
        <time>2025-03-02T11:00:38</time>
      </trkpt>
      <trkpt lat="45.6044" lon="5.936">
        <ele>495.13333</ele>
        <time>2025-03-02T11:00:47</time>
      </trkpt>
      <trkpt lat="45.60444" lon="5.93601">
        <ele>495.8</ele>
        <time>2025-03-02T11:00:51</time>
      </trkpt>
      <trkpt lat="45.60447" lon="5.93602">
        <ele>495.8</ele>
        <time>2025-03-02T11:00:53</time>
      </trkpt>
      <trkpt lat="45.60449" lon="5.93603">
        <ele>495.8</ele>
        <time>2025-03-02T11:00:55</time>
      </trkpt>
      <trkpt lat="45.60449" lon="5.93603">
        <ele>495.3</ele>
        <time>2025-03-02T11:00:56</time>
      </trkpt>
      <trkpt lat="45.60449" lon="5.93604">
        <ele>495.3</ele>
        <time>2025-03-02T11:00:56</time>
      </trkpt>
      <trkpt lat="45.60449" lon="5.93606">
        <ele>495.3</ele>
        <time>2025-03-02T11:00:57</time>
      </trkpt>
      <trkpt lat="45.6045" lon="5.93607">
        <ele>495.3</ele>
        <time>2025-03-02T11:00:58</time>
      </trkpt>
      <trkpt lat="45.6045" lon="5.93608">
        <ele>495.3</ele>
        <time>2025-03-02T11:01:00</time>
      </trkpt>
      <trkpt lat="45.60449" lon="5.93609">
        <ele>495.3</ele>
        <time>2025-03-02T11:01:01</time>
      </trkpt>
      <trkpt lat="45.60448" lon="5.9361">
        <ele>498.3</ele>
        <time>2025-03-02T11:01:03</time>
      </trkpt>
      <trkpt lat="45.60444" lon="5.93617">
        <ele>499.6</ele>
        <time>2025-03-02T11:01:12</time>
      </trkpt>
      <trkpt lat="45.60444" lon="5.93618">
        <ele>499.6</ele>
        <time>2025-03-02T11:01:13</time>
      </trkpt>
      <trkpt lat="45.60443" lon="5.93618">
        <ele>499.6</ele>
        <time>2025-03-02T11:01:13</time>
      </trkpt>
      <trkpt lat="45.60443" lon="5.93619">
        <ele>499.6</ele>
        <time>2025-03-02T11:01:14</time>
      </trkpt>
      <trkpt lat="45.60444" lon="5.9362">
        <ele>499.6</ele>
        <time>2025-03-02T11:01:14</time>
      </trkpt>
      <trkpt lat="45.60444" lon="5.93621">
        <ele>499.6</ele>
        <time>2025-03-02T11:01:15</time>
      </trkpt>
      <trkpt lat="45.60445" lon="5.93622">
        <ele>499.6</ele>
        <time>2025-03-02T11:01:16</time>
      </trkpt>
      <trkpt lat="45.60445" lon="5.93622">
        <ele>499.6</ele>
        <time>2025-03-02T11:01:17</time>
      </trkpt>
      <trkpt lat="45.60446" lon="5.93622">
        <ele>500.9</ele>
        <time>2025-03-02T11:01:17</time>
      </trkpt>
      <trkpt lat="45.60448" lon="5.93622">
        <ele>500.9</ele>
        <time>2025-03-02T11:01:19</time>
      </trkpt>
      <trkpt lat="45.60449" lon="5.93623">
        <ele>500.9</ele>
        <time>2025-03-02T11:01:22</time>
      </trkpt>
      <trkpt lat="45.6045" lon="5.93624">
        <ele>500.9</ele>
        <time>2025-03-02T11:01:22</time>
      </trkpt>
      <trkpt lat="45.60451" lon="5.93625">
        <ele>502.7</ele>
        <time>2025-03-02T11:01:25</time>
      </trkpt>
      <trkpt lat="45.60453" lon="5.9363">
        <ele>502.7</ele>
        <time>2025-03-02T11:01:30</time>
      </trkpt>
      <trkpt lat="45.60455" lon="5.93632">
        <ele>504.2</ele>
        <time>2025-03-02T11:01:33</time>
      </trkpt>
      <trkpt lat="45.60455" lon="5.93633">
        <ele>504.2</ele>
        <time>2025-03-02T11:01:35</time>
      </trkpt>
      <trkpt lat="45.60456" lon="5.93633">
        <ele>504.2</ele>
        <time>2025-03-02T11:01:35</time>
      </trkpt>
      <trkpt lat="45.60458" lon="5.93633">
        <ele>504.2</ele>
        <time>2025-03-02T11:01:38</time>
      </trkpt>
      <trkpt lat="45.60458" lon="5.93633">
        <ele>504.2</ele>
        <time>2025-03-02T11:01:38</time>
      </trkpt>
      <trkpt lat="45.6046" lon="5.93632">
        <ele>506.2</ele>
        <time>2025-03-02T11:01:40</time>
      </trkpt>
      <trkpt lat="45.60461" lon="5.93632">
        <ele>506.2</ele>
        <time>2025-03-02T11:01:41</time>
      </trkpt>
      <trkpt lat="45.60461" lon="5.93633">
        <ele>506.2</ele>
        <time>2025-03-02T11:01:42</time>
      </trkpt>
      <trkpt lat="45.60462" lon="5.93633">
        <ele>506.2</ele>
        <time>2025-03-02T11:01:42</time>
      </trkpt>
      <trkpt lat="45.60462" lon="5.93634">
        <ele>506.2</ele>
        <time>2025-03-02T11:01:43</time>
      </trkpt>
      <trkpt lat="45.60463" lon="5.93635">
        <ele>506.2</ele>
        <time>2025-03-02T11:01:45</time>
      </trkpt>
      <trkpt lat="45.60464" lon="5.93635">
        <ele>506.2</ele>
        <time>2025-03-02T11:01:46</time>
      </trkpt>
      <trkpt lat="45.60465" lon="5.93635">
        <ele>507.6</ele>
        <time>2025-03-02T11:01:49</time>
      </trkpt>
      <trkpt lat="45.60465" lon="5.93635">
        <ele>507.6</ele>
        <time>2025-03-02T11:01:49</time>
      </trkpt>
      <trkpt lat="45.60466" lon="5.93634">
        <ele>507.6</ele>
        <time>2025-03-02T11:01:50</time>
      </trkpt>
      <trkpt lat="45.60467" lon="5.93633">
        <ele>507.6</ele>
        <time>2025-03-02T11:01:51</time>
      </trkpt>
      <trkpt lat="45.60469" lon="5.93632">
        <ele>509.73334</ele>
        <time>2025-03-02T11:01:54</time>
      </trkpt>
      <trkpt lat="45.60486" lon="5.93625">
        <ele>509</ele>
        <time>2025-03-02T11:02:12</time>
      </trkpt>
      <trkpt lat="45.60501" lon="5.9362">
        <ele>510.4</ele>
        <time>2025-03-02T11:02:27</time>
      </trkpt>
      <trkpt lat="45.60507" lon="5.93621">
        <ele>511.36667</ele>
        <time>2025-03-02T11:02:33</time>
      </trkpt>
      <trkpt lat="45.60508" lon="5.93621">
        <ele>511.36667</ele>
        <time>2025-03-02T11:02:35</time>
      </trkpt>
      <trkpt lat="45.60509" lon="5.93621">
        <ele>513.1</ele>
        <time>2025-03-02T11:02:36</time>
      </trkpt>
      <trkpt lat="45.60513" lon="5.9362">
        <ele>513.1</ele>
        <time>2025-03-02T11:02:41</time>
      </trkpt>
      <trkpt lat="45.60516" lon="5.93621">
        <ele>516.7</ele>
        <time>2025-03-02T11:02:44</time>
      </trkpt>
      <trkpt lat="45.60519" lon="5.93623">
        <ele>517</ele>
        <time>2025-03-02T11:02:50</time>
      </trkpt>
      <trkpt lat="45.60521" lon="5.93624">
        <ele>517</ele>
        <time>2025-03-02T11:02:53</time>
      </trkpt>
      <trkpt lat="45.60524" lon="5.93625">
        <ele>517</ele>
        <time>2025-03-02T11:02:56</time>
      </trkpt>
      <trkpt lat="45.6053" lon="5.93626">
        <ele>519.7</ele>
        <time>2025-03-02T11:03:01</time>
      </trkpt>
      <trkpt lat="45.60531" lon="5.93627">
        <ele>519.7</ele>
        <time>2025-03-02T11:03:03</time>
      </trkpt>
      <trkpt lat="45.60532" lon="5.93628">
        <ele>521.3</ele>
        <time>2025-03-02T11:03:05</time>
      </trkpt>
      <trkpt lat="45.60534" lon="5.93631">
        <ele>521.3</ele>
        <time>2025-03-02T11:03:08</time>
      </trkpt>
      <trkpt lat="45.60534" lon="5.93632">
        <ele>521.3</ele>
        <time>2025-03-02T11:03:09</time>
      </trkpt>
      <trkpt lat="45.60535" lon="5.93633">
        <ele>521.3</ele>
        <time>2025-03-02T11:03:11</time>
      </trkpt>
      <trkpt lat="45.60537" lon="5.93638">
        <ele>522.5</ele>
        <time>2025-03-02T11:03:16</time>
      </trkpt>
      <trkpt lat="45.60537" lon="5.93638">
        <ele>522.5</ele>
        <time>2025-03-02T11:03:17</time>
      </trkpt>
      <trkpt lat="45.60537" lon="5.93639">
        <ele>522.5</ele>
        <time>2025-03-02T11:03:18</time>
      </trkpt>
      <trkpt lat="45.60539" lon="5.93639">
        <ele>524</ele>
        <time>2025-03-02T11:03:19</time>
      </trkpt>
      <trkpt lat="45.6054" lon="5.93639">
        <ele>524</ele>
        <time>2025-03-02T11:03:21</time>
      </trkpt>
      <trkpt lat="45.60544" lon="5.93638">
        <ele>524</ele>
        <time>2025-03-02T11:03:25</time>
      </trkpt>
      <trkpt lat="45.60545" lon="5.93638">
        <ele>525</ele>
        <time>2025-03-02T11:03:27</time>
      </trkpt>
      <trkpt lat="45.60546" lon="5.93639">
        <ele>525</ele>
        <time>2025-03-02T11:03:29</time>
      </trkpt>
      <trkpt lat="45.60549" lon="5.93639">
        <ele>525</ele>
        <time>2025-03-02T11:03:33</time>
      </trkpt>
      <trkpt lat="45.60551" lon="5.93639">
        <ele>525.8</ele>
        <time>2025-03-02T11:03:35</time>
      </trkpt>
      <trkpt lat="45.60551" lon="5.93639">
        <ele>525.8</ele>
        <time>2025-03-02T11:03:36</time>
      </trkpt>
      <trkpt lat="45.60553" lon="5.93639">
        <ele>525.8</ele>
        <time>2025-03-02T11:03:38</time>
      </trkpt>
      <trkpt lat="45.60554" lon="5.93639">
        <ele>525.8</ele>
        <time>2025-03-02T11:03:39</time>
      </trkpt>
      <trkpt lat="45.60555" lon="5.93639">
        <ele>525.8</ele>
        <time>2025-03-02T11:03:41</time>
      </trkpt>
      <trkpt lat="45.60556" lon="5.9364">
        <ele>526.8</ele>
        <time>2025-03-02T11:03:42</time>
      </trkpt>
      <trkpt lat="45.60558" lon="5.93642">
        <ele>526.8</ele>
        <time>2025-03-02T11:03:44</time>
      </trkpt>
      <trkpt lat="45.60559" lon="5.93643">
        <ele>526.8</ele>
        <time>2025-03-02T11:03:46</time>
      </trkpt>
      <trkpt lat="45.6056" lon="5.93644">
        <ele>526.8</ele>
        <time>2025-03-02T11:03:47</time>
      </trkpt>
      <trkpt lat="45.60561" lon="5.93645">
        <ele>526.8</ele>
        <time>2025-03-02T11:03:47</time>
      </trkpt>
      <trkpt lat="45.60564" lon="5.93646">
        <ele>528.4</ele>
        <time>2025-03-02T11:03:50</time>
      </trkpt>
      <trkpt lat="45.60565" lon="5.93647">
        <ele>528.4</ele>
        <time>2025-03-02T11:03:51</time>
      </trkpt>
      <trkpt lat="45.60566" lon="5.93648">
        <ele>528.4</ele>
        <time>2025-03-02T11:03:52</time>
      </trkpt>
      <trkpt lat="45.60567" lon="5.93649">
        <ele>528.4</ele>
        <time>2025-03-02T11:03:53</time>
      </trkpt>
      <trkpt lat="45.6057" lon="5.9365">
        <ele>529.4</ele>
        <time>2025-03-02T11:03:56</time>
      </trkpt>
      <trkpt lat="45.60572" lon="5.93653">
        <ele>529.4</ele>
        <time>2025-03-02T11:03:59</time>
      </trkpt>
      <trkpt lat="45.60578" lon="5.93658">
        <ele>531.76666</ele>
        <time>2025-03-02T11:04:09</time>
      </trkpt>
      <trkpt lat="45.60579" lon="5.93659">
        <ele>531.76666</ele>
        <time>2025-03-02T11:04:11</time>
      </trkpt>
      <trkpt lat="45.60579" lon="5.9366">
        <ele>531.76666</ele>
        <time>2025-03-02T11:04:12</time>
      </trkpt>
      <trkpt lat="45.60581" lon="5.93664">
        <ele>531.76666</ele>
        <time>2025-03-02T11:04:15</time>
      </trkpt>
      <trkpt lat="45.60582" lon="5.93664">
        <ele>531.76666</ele>
        <time>2025-03-02T11:04:15</time>
      </trkpt>
      <trkpt lat="45.60584" lon="5.93666">
        <ele>534.8</ele>
        <time>2025-03-02T11:04:19</time>
      </trkpt>
      <trkpt lat="45.60584" lon="5.93667">
        <ele>534.8</ele>
        <time>2025-03-02T11:04:20</time>
      </trkpt>
      <trkpt lat="45.60584" lon="5.93667">
        <ele>534.8</ele>
        <time>2025-03-02T11:04:22</time>
      </trkpt>
      <trkpt lat="45.60584" lon="5.93667">
        <ele>534.8</ele>
        <time>2025-03-02T11:04:23</time>
      </trkpt>
      <trkpt lat="45.60584" lon="5.93667">
        <ele>534.8</ele>
        <time>2025-03-02T11:04:24</time>
      </trkpt>
      <trkpt lat="45.60585" lon="5.93666">
        <ele>537.1</ele>
        <time>2025-03-02T11:04:30</time>
      </trkpt>
      <trkpt lat="45.60586" lon="5.93665">
        <ele>537.1</ele>
        <time>2025-03-02T11:04:35</time>
      </trkpt>
      <trkpt lat="45.60586" lon="5.93665">
        <ele>537.1</ele>
        <time>2025-03-02T11:04:36</time>
      </trkpt>
      <trkpt lat="45.60585" lon="5.93666">
        <ele>539.4</ele>
        <time>2025-03-02T11:04:37</time>
      </trkpt>
      <trkpt lat="45.60586" lon="5.93669">
        <ele>539.4</ele>
        <time>2025-03-02T11:04:39</time>
      </trkpt>
      <trkpt lat="45.60586" lon="5.93671">
        <ele>539.4</ele>
        <time>2025-03-02T11:04:41</time>
      </trkpt>
      <trkpt lat="45.60586" lon="5.93672">
        <ele>539.4</ele>
        <time>2025-03-02T11:04:42</time>
      </trkpt>
      <trkpt lat="45.60586" lon="5.93673">
        <ele>539.4</ele>
        <time>2025-03-02T11:04:43</time>
      </trkpt>
      <trkpt lat="45.60587" lon="5.93673">
        <ele>539.4</ele>
        <time>2025-03-02T11:04:43</time>
      </trkpt>
      <trkpt lat="45.60587" lon="5.93673">
        <ele>539.5</ele>
        <time>2025-03-02T11:04:44</time>
      </trkpt>
      <trkpt lat="45.60588" lon="5.93673">
        <ele>539.5</ele>
        <time>2025-03-02T11:04:45</time>
      </trkpt>
      <trkpt lat="45.6059" lon="5.93671">
        <ele>539.5</ele>
        <time>2025-03-02T11:04:48</time>
      </trkpt>
      <trkpt lat="45.6059" lon="5.93671">
        <ele>539.5</ele>
        <time>2025-03-02T11:04:49</time>
      </trkpt>
      <trkpt lat="45.60592" lon="5.9367">
        <ele>539.5</ele>
        <time>2025-03-02T11:04:53</time>
      </trkpt>
      <trkpt lat="45.60592" lon="5.9367">
        <ele>537.9</ele>
        <time>2025-03-02T11:04:53</time>
      </trkpt>
      <trkpt lat="45.60592" lon="5.9367">
        <ele>537.9</ele>
        <time>2025-03-02T11:04:54</time>
      </trkpt>
      <trkpt lat="45.60592" lon="5.9367">
        <ele>537.9</ele>
        <time>2025-03-02T11:04:54</time>
      </trkpt>
      <trkpt lat="45.60592" lon="5.9367">
        <ele>537.9</ele>
        <time>2025-03-02T11:04:55</time>
      </trkpt>
      <trkpt lat="45.60593" lon="5.93671">
        <ele>537.9</ele>
        <time>2025-03-02T11:04:57</time>
      </trkpt>
      <trkpt lat="45.60593" lon="5.93671">
        <ele>537.9</ele>
        <time>2025-03-02T11:04:58</time>
      </trkpt>
      <trkpt lat="45.60594" lon="5.93673">
        <ele>537.9</ele>
        <time>2025-03-02T11:04:59</time>
      </trkpt>
      <trkpt lat="45.60594" lon="5.93675">
        <ele>537.9</ele>
        <time>2025-03-02T11:04:59</time>
      </trkpt>
      <trkpt lat="45.60594" lon="5.93676">
        <ele>537.9</ele>
        <time>2025-03-02T11:05:00</time>
      </trkpt>
      <trkpt lat="45.60594" lon="5.93676">
        <ele>538</ele>
        <time>2025-03-02T11:05:01</time>
      </trkpt>
      <trkpt lat="45.60594" lon="5.93677">
        <ele>538</ele>
        <time>2025-03-02T11:05:01</time>
      </trkpt>
      <trkpt lat="45.60595" lon="5.93677">
        <ele>538</ele>
        <time>2025-03-02T11:05:02</time>
      </trkpt>
      <trkpt lat="45.60597" lon="5.93677">
        <ele>538</ele>
        <time>2025-03-02T11:05:05</time>
      </trkpt>
      <trkpt lat="45.606" lon="5.93676">
        <ele>536.9</ele>
        <time>2025-03-02T11:05:08</time>
      </trkpt>
      <trkpt lat="45.606" lon="5.93676">
        <ele>536.9</ele>
        <time>2025-03-02T11:05:09</time>
      </trkpt>
      <trkpt lat="45.60601" lon="5.93676">
        <ele>536.9</ele>
        <time>2025-03-02T11:05:09</time>
      </trkpt>
      <trkpt lat="45.60601" lon="5.93676">
        <ele>536.9</ele>
        <time>2025-03-02T11:05:10</time>
      </trkpt>
      <trkpt lat="45.60602" lon="5.93675">
        <ele>536.9</ele>
        <time>2025-03-02T11:05:12</time>
      </trkpt>
      <trkpt lat="45.60603" lon="5.93675">
        <ele>536.9</ele>
        <time>2025-03-02T11:05:12</time>
      </trkpt>
      <trkpt lat="45.60604" lon="5.93675">
        <ele>536.9</ele>
        <time>2025-03-02T11:05:15</time>
      </trkpt>
      <trkpt lat="45.60605" lon="5.93675">
        <ele>537.4</ele>
        <time>2025-03-02T11:05:15</time>
      </trkpt>
      <trkpt lat="45.60606" lon="5.93675">
        <ele>537.4</ele>
        <time>2025-03-02T11:05:16</time>
      </trkpt>
      <trkpt lat="45.60607" lon="5.93675">
        <ele>537.4</ele>
        <time>2025-03-02T11:05:17</time>
      </trkpt>
      <trkpt lat="45.60608" lon="5.93676">
        <ele>537.4</ele>
        <time>2025-03-02T11:05:18</time>
      </trkpt>
      <trkpt lat="45.60609" lon="5.93677">
        <ele>537.4</ele>
        <time>2025-03-02T11:05:20</time>
      </trkpt>
      <trkpt lat="45.6061" lon="5.93677">
        <ele>537.4</ele>
        <time>2025-03-02T11:05:20</time>
      </trkpt>
      <trkpt lat="45.60613" lon="5.93679">
        <ele>538.36664</ele>
        <time>2025-03-02T11:05:24</time>
      </trkpt>
      <trkpt lat="45.60614" lon="5.9368">
        <ele>538.36664</ele>
        <time>2025-03-02T11:05:25</time>
      </trkpt>
      <trkpt lat="45.60615" lon="5.93681">
        <ele>538.36664</ele>
        <time>2025-03-02T11:05:26</time>
      </trkpt>
      <trkpt lat="45.60616" lon="5.93683">
        <ele>538.36664</ele>
        <time>2025-03-02T11:05:28</time>
      </trkpt>
      <trkpt lat="45.60618" lon="5.93685">
        <ele>538.6</ele>
        <time>2025-03-02T11:05:30</time>
      </trkpt>
      <trkpt lat="45.60618" lon="5.93686">
        <ele>538.6</ele>
        <time>2025-03-02T11:05:32</time>
      </trkpt>
      <trkpt lat="45.60619" lon="5.93686">
        <ele>538.6</ele>
        <time>2025-03-02T11:05:32</time>
      </trkpt>
      <trkpt lat="45.60621" lon="5.93687">
        <ele>538.6</ele>
        <time>2025-03-02T11:05:35</time>
      </trkpt>
      <trkpt lat="45.60623" lon="5.93687">
        <ele>538.6</ele>
        <time>2025-03-02T11:05:36</time>
      </trkpt>
      <trkpt lat="45.60637" lon="5.93693">
        <ele>538.8333</ele>
        <time>2025-03-02T11:05:49</time>
      </trkpt>
      <trkpt lat="45.60638" lon="5.93692">
        <ele>538.8333</ele>
        <time>2025-03-02T11:05:49</time>
      </trkpt>
      <trkpt lat="45.60639" lon="5.93692">
        <ele>538.3333</ele>
        <time>2025-03-02T11:05:51</time>
      </trkpt>
      <trkpt lat="45.60641" lon="5.93693">
        <ele>538.3333</ele>
        <time>2025-03-02T11:05:52</time>
      </trkpt>
      <trkpt lat="45.60644" lon="5.93694">
        <ele>538.3333</ele>
        <time>2025-03-02T11:05:54</time>
      </trkpt>
      <trkpt lat="45.6065" lon="5.93697">
        <ele>538.4</ele>
        <time>2025-03-02T11:06:00</time>
      </trkpt>
      <trkpt lat="45.60657" lon="5.93698">
        <ele>536.5</ele>
        <time>2025-03-02T11:06:05</time>
      </trkpt>
      <trkpt lat="45.60659" lon="5.937">
        <ele>536.5</ele>
        <time>2025-03-02T11:06:08</time>
      </trkpt>
      <trkpt lat="45.6066" lon="5.93701">
        <ele>536.5</ele>
        <time>2025-03-02T11:06:08</time>
      </trkpt>
      <trkpt lat="45.6066" lon="5.93702">
        <ele>536.5</ele>
        <time>2025-03-02T11:06:10</time>
      </trkpt>
      <trkpt lat="45.60661" lon="5.93704">
        <ele>536.5</ele>
        <time>2025-03-02T11:06:12</time>
      </trkpt>
      <trkpt lat="45.60662" lon="5.93706">
        <ele>536.73334</ele>
        <time>2025-03-02T11:06:14</time>
      </trkpt>
      <trkpt lat="45.60662" lon="5.93707">
        <ele>536.73334</ele>
        <time>2025-03-02T11:06:15</time>
      </trkpt>
      <trkpt lat="45.60665" lon="5.9371">
        <ele>536.73334</ele>
        <time>2025-03-02T11:06:19</time>
      </trkpt>
      <trkpt lat="45.60667" lon="5.93712">
        <ele>537.5</ele>
        <time>2025-03-02T11:06:23</time>
      </trkpt>
      <trkpt lat="45.60667" lon="5.93713">
        <ele>537.5</ele>
        <time>2025-03-02T11:06:24</time>
      </trkpt>
      <trkpt lat="45.60667" lon="5.93713">
        <ele>537.5</ele>
        <time>2025-03-02T11:06:24</time>
      </trkpt>
      <trkpt lat="45.60667" lon="5.93714">
        <ele>537.5</ele>
        <time>2025-03-02T11:06:25</time>
      </trkpt>
      <trkpt lat="45.60667" lon="5.93714">
        <ele>537.5</ele>
        <time>2025-03-02T11:06:26</time>
      </trkpt>
      <trkpt lat="45.60667" lon="5.93714">
        <ele>537.5</ele>
        <time>2025-03-02T11:06:26</time>
      </trkpt>
      <trkpt lat="45.60667" lon="5.93715">
        <ele>539</ele>
        <time>2025-03-02T11:06:28</time>
      </trkpt>
      <trkpt lat="45.60667" lon="5.93715">
        <ele>539</ele>
        <time>2025-03-02T11:06:29</time>
      </trkpt>
      <trkpt lat="45.60667" lon="5.93716">
        <ele>539</ele>
        <time>2025-03-02T11:06:30</time>
      </trkpt>
      <trkpt lat="45.60668" lon="5.93716">
        <ele>539</ele>
        <time>2025-03-02T11:06:31</time>
      </trkpt>
      <trkpt lat="45.60669" lon="5.93717">
        <ele>539</ele>
        <time>2025-03-02T11:06:33</time>
      </trkpt>
      <trkpt lat="45.60671" lon="5.93717">
        <ele>544.1</ele>
        <time>2025-03-02T11:06:37</time>
      </trkpt>
      <trkpt lat="45.60672" lon="5.93718">
        <ele>544.1</ele>
        <time>2025-03-02T11:06:38</time>
      </trkpt>
      <trkpt lat="45.60673" lon="5.93718">
        <ele>544.1</ele>
        <time>2025-03-02T11:06:39</time>
      </trkpt>
      <trkpt lat="45.60673" lon="5.93719">
        <ele>544.1</ele>
        <time>2025-03-02T11:06:40</time>
      </trkpt>
      <trkpt lat="45.60674" lon="5.9372">
        <ele>544.1</ele>
        <time>2025-03-02T11:06:41</time>
      </trkpt>
      <trkpt lat="45.60674" lon="5.9372">
        <ele>544.1</ele>
        <time>2025-03-02T11:06:42</time>
      </trkpt>
      <trkpt lat="45.60674" lon="5.93721">
        <ele>545.6</ele>
        <time>2025-03-02T11:06:43</time>
      </trkpt>
      <trkpt lat="45.60675" lon="5.93721">
        <ele>545.6</ele>
        <time>2025-03-02T11:06:44</time>
      </trkpt>
      <trkpt lat="45.60677" lon="5.93722">
        <ele>545.6</ele>
        <time>2025-03-02T11:06:46</time>
      </trkpt>
      <trkpt lat="45.60677" lon="5.93722">
        <ele>545.6</ele>
        <time>2025-03-02T11:06:47</time>
      </trkpt>
      <trkpt lat="45.60678" lon="5.93723">
        <ele>545.6</ele>
        <time>2025-03-02T11:06:48</time>
      </trkpt>
      <trkpt lat="45.60679" lon="5.93724">
        <ele>546.9</ele>
        <time>2025-03-02T11:06:51</time>
      </trkpt>
      <trkpt lat="45.6068" lon="5.93725">
        <ele>546.9</ele>
        <time>2025-03-02T11:06:52</time>
      </trkpt>
      <trkpt lat="45.6068" lon="5.93726">
        <ele>546.9</ele>
        <time>2025-03-02T11:06:53</time>
      </trkpt>
      <trkpt lat="45.6068" lon="5.93726">
        <ele>546.9</ele>
        <time>2025-03-02T11:06:54</time>
      </trkpt>
      <trkpt lat="45.6068" lon="5.93727">
        <ele>546.9</ele>
        <time>2025-03-02T11:06:55</time>
      </trkpt>
      <trkpt lat="45.60681" lon="5.93728">
        <ele>546.9</ele>
        <time>2025-03-02T11:06:56</time>
      </trkpt>
      <trkpt lat="45.6068" lon="5.93729">
        <ele>546.9</ele>
        <time>2025-03-02T11:06:56</time>
      </trkpt>
      <trkpt lat="45.6068" lon="5.9373">
        <ele>546.9</ele>
        <time>2025-03-02T11:06:57</time>
      </trkpt>
      <trkpt lat="45.60678" lon="5.93733">
        <ele>549.2</ele>
        <time>2025-03-02T11:07:01</time>
      </trkpt>
      <trkpt lat="45.60678" lon="5.93734">
        <ele>549.2</ele>
        <time>2025-03-02T11:07:02</time>
      </trkpt>
      <trkpt lat="45.60678" lon="5.93735">
        <ele>549.2</ele>
        <time>2025-03-02T11:07:02</time>
      </trkpt>
      <trkpt lat="45.60678" lon="5.93736">
        <ele>549.2</ele>
        <time>2025-03-02T11:07:04</time>
      </trkpt>
      <trkpt lat="45.60678" lon="5.93737">
        <ele>549.2</ele>
        <time>2025-03-02T11:07:05</time>
      </trkpt>
      <trkpt lat="45.60677" lon="5.93737">
        <ele>554</ele>
        <time>2025-03-02T11:07:05</time>
      </trkpt>
      <trkpt lat="45.60677" lon="5.93738">
        <ele>554</ele>
        <time>2025-03-02T11:07:06</time>
      </trkpt>
      <trkpt lat="45.60676" lon="5.93739">
        <ele>554</ele>
        <time>2025-03-02T11:07:08</time>
      </trkpt>
      <trkpt lat="45.60674" lon="5.9374">
        <ele>554</ele>
        <time>2025-03-02T11:07:09</time>
      </trkpt>
      <trkpt lat="45.60672" lon="5.93742">
        <ele>554</ele>
        <time>2025-03-02T11:07:12</time>
      </trkpt>
      <trkpt lat="45.60671" lon="5.93742">
        <ele>554</ele>
        <time>2025-03-02T11:07:13</time>
      </trkpt>
      <trkpt lat="45.60669" lon="5.93744">
        <ele>554.5</ele>
        <time>2025-03-02T11:07:16</time>
      </trkpt>
      <trkpt lat="45.60667" lon="5.93747">
        <ele>554.5</ele>
        <time>2025-03-02T11:07:19</time>
      </trkpt>
      <trkpt lat="45.60667" lon="5.93747">
        <ele>554.5</ele>
        <time>2025-03-02T11:07:19</time>
      </trkpt>
      <trkpt lat="45.60667" lon="5.93748">
        <ele>554.5</ele>
        <time>2025-03-02T11:07:20</time>
      </trkpt>
      <trkpt lat="45.60668" lon="5.9375">
        <ele>556.1</ele>
        <time>2025-03-02T11:07:22</time>
      </trkpt>
      <trkpt lat="45.60669" lon="5.93753">
        <ele>556.1</ele>
        <time>2025-03-02T11:07:24</time>
      </trkpt>
      <trkpt lat="45.60669" lon="5.93757">
        <ele>556.1</ele>
        <time>2025-03-02T11:07:28</time>
      </trkpt>
      <trkpt lat="45.6067" lon="5.9376">
        <ele>557.76666</ele>
        <time>2025-03-02T11:07:30</time>
      </trkpt>
      <trkpt lat="45.60672" lon="5.93763">
        <ele>557.76666</ele>
        <time>2025-03-02T11:07:33</time>
      </trkpt>
      <trkpt lat="45.60672" lon="5.93763">
        <ele>557.76666</ele>
        <time>2025-03-02T11:07:33</time>
      </trkpt>
      <trkpt lat="45.60673" lon="5.93765">
        <ele>557.76666</ele>
        <time>2025-03-02T11:07:36</time>
      </trkpt>
      <trkpt lat="45.60675" lon="5.93768">
        <ele>558.3</ele>
        <time>2025-03-02T11:07:39</time>
      </trkpt>
      <trkpt lat="45.60676" lon="5.93769">
        <ele>558.3</ele>
        <time>2025-03-02T11:07:41</time>
      </trkpt>
      <trkpt lat="45.60677" lon="5.93769">
        <ele>558.3</ele>
        <time>2025-03-02T11:07:42</time>
      </trkpt>
      <trkpt lat="45.60678" lon="5.9377">
        <ele>559.1</ele>
        <time>2025-03-02T11:07:44</time>
      </trkpt>
      <trkpt lat="45.60681" lon="5.93773">
        <ele>559.1</ele>
        <time>2025-03-02T11:07:50</time>
      </trkpt>
      <trkpt lat="45.60682" lon="5.93775">
        <ele>560.6</ele>
        <time>2025-03-02T11:07:52</time>
      </trkpt>
      <trkpt lat="45.60683" lon="5.93778">
        <ele>560.6</ele>
        <time>2025-03-02T11:07:55</time>
      </trkpt>
      <trkpt lat="45.60686" lon="5.9378">
        <ele>560.6</ele>
        <time>2025-03-02T11:07:59</time>
      </trkpt>
      <trkpt lat="45.60689" lon="5.93781">
        <ele>563.3</ele>
        <time>2025-03-02T11:08:03</time>
      </trkpt>
      <trkpt lat="45.6069" lon="5.93782">
        <ele>563.3</ele>
        <time>2025-03-02T11:08:04</time>
      </trkpt>
      <trkpt lat="45.60691" lon="5.93782">
        <ele>563.3</ele>
        <time>2025-03-02T11:08:06</time>
      </trkpt>
      <trkpt lat="45.60699" lon="5.93786">
        <ele>566.9</ele>
        <time>2025-03-02T11:08:16</time>
      </trkpt>
      <trkpt lat="45.60699" lon="5.93787">
        <ele>566.9</ele>
        <time>2025-03-02T11:08:17</time>
      </trkpt>
      <trkpt lat="45.607" lon="5.93786">
        <ele>566.9</ele>
        <time>2025-03-02T11:08:17</time>
      </trkpt>
      <trkpt lat="45.607" lon="5.93785">
        <ele>566.9</ele>
        <time>2025-03-02T11:08:18</time>
      </trkpt>
      <trkpt lat="45.60701" lon="5.93785">
        <ele>566.9</ele>
        <time>2025-03-02T11:08:19</time>
      </trkpt>
      <trkpt lat="45.60703" lon="5.93785">
        <ele>566.9</ele>
        <time>2025-03-02T11:08:20</time>
      </trkpt>
      <trkpt lat="45.60704" lon="5.93786">
        <ele>569.9</ele>
        <time>2025-03-02T11:08:22</time>
      </trkpt>
      <trkpt lat="45.60707" lon="5.93784">
        <ele>569.9</ele>
        <time>2025-03-02T11:08:27</time>
      </trkpt>
      <trkpt lat="45.60708" lon="5.93785">
        <ele>569.9</ele>
        <time>2025-03-02T11:08:28</time>
      </trkpt>
      <trkpt lat="45.60709" lon="5.93784">
        <ele>569.9</ele>
        <time>2025-03-02T11:08:28</time>
      </trkpt>
      <trkpt lat="45.60709" lon="5.93784">
        <ele>571.1</ele>
        <time>2025-03-02T11:08:29</time>
      </trkpt>
      <trkpt lat="45.60715" lon="5.93778">
        <ele>572.2</ele>
        <time>2025-03-02T11:08:38</time>
      </trkpt>
      <trkpt lat="45.6072" lon="5.93774">
        <ele>572.2</ele>
        <time>2025-03-02T11:08:43</time>
      </trkpt>
      <trkpt lat="45.60721" lon="5.93774">
        <ele>572.4</ele>
        <time>2025-03-02T11:08:44</time>
      </trkpt>
      <trkpt lat="45.60725" lon="5.93772">
        <ele>572.4</ele>
        <time>2025-03-02T11:08:48</time>
      </trkpt>
      <trkpt lat="45.60725" lon="5.93772">
        <ele>572.4</ele>
        <time>2025-03-02T11:08:49</time>
      </trkpt>
      <trkpt lat="45.60725" lon="5.93772">
        <ele>572.4</ele>
        <time>2025-03-02T11:08:50</time>
      </trkpt>
      <trkpt lat="45.60725" lon="5.93772">
        <ele>572.4</ele>
        <time>2025-03-02T11:08:50</time>
      </trkpt>
      <trkpt lat="45.60725" lon="5.93772">
        <ele>572.8</ele>
        <time>2025-03-02T11:08:51</time>
      </trkpt>
      <trkpt lat="45.60725" lon="5.93772">
        <ele>572.8</ele>
        <time>2025-03-02T11:08:52</time>
      </trkpt>
      <trkpt lat="45.60725" lon="5.93772">
        <ele>572.8</ele>
        <time>2025-03-02T11:08:52</time>
      </trkpt>
      <trkpt lat="45.60725" lon="5.93771">
        <ele>572.8</ele>
        <time>2025-03-02T11:08:53</time>
      </trkpt>
      <trkpt lat="45.60726" lon="5.9377">
        <ele>572.8</ele>
        <time>2025-03-02T11:08:54</time>
      </trkpt>
      <trkpt lat="45.60729" lon="5.93768">
        <ele>572.8</ele>
        <time>2025-03-02T11:08:56</time>
      </trkpt>
      <trkpt lat="45.6073" lon="5.93768">
        <ele>572.8</ele>
        <time>2025-03-02T11:08:56</time>
      </trkpt>
      <trkpt lat="45.60732" lon="5.93769">
        <ele>572.8</ele>
        <time>2025-03-02T11:08:57</time>
      </trkpt>
      <trkpt lat="45.60735" lon="5.9377">
        <ele>572.8</ele>
        <time>2025-03-02T11:08:59</time>
      </trkpt>
      <trkpt lat="45.60738" lon="5.93771">
        <ele>572.8</ele>
        <time>2025-03-02T11:09:01</time>
      </trkpt>
      <trkpt lat="45.60738" lon="5.93771">
        <ele>572.8</ele>
        <time>2025-03-02T11:09:02</time>
      </trkpt>
      <trkpt lat="45.60741" lon="5.9377">
        <ele>571.8</ele>
        <time>2025-03-02T11:09:04</time>
      </trkpt>
      <trkpt lat="45.60745" lon="5.93768">
        <ele>571.8</ele>
        <time>2025-03-02T11:09:07</time>
      </trkpt>
      <trkpt lat="45.6075" lon="5.93765">
        <ele>573.2</ele>
        <time>2025-03-02T11:09:12</time>
      </trkpt>
      <trkpt lat="45.60753" lon="5.93764">
        <ele>573.2</ele>
        <time>2025-03-02T11:09:16</time>
      </trkpt>
      <trkpt lat="45.60754" lon="5.93764">
        <ele>573.2</ele>
        <time>2025-03-02T11:09:17</time>
      </trkpt>
      <trkpt lat="45.60756" lon="5.93764">
        <ele>573.4</ele>
        <time>2025-03-02T11:09:20</time>
      </trkpt>
      <trkpt lat="45.60758" lon="5.93764">
        <ele>573.4</ele>
        <time>2025-03-02T11:09:21</time>
      </trkpt>
      <trkpt lat="45.60759" lon="5.93764">
        <ele>573.4</ele>
        <time>2025-03-02T11:09:23</time>
      </trkpt>
      <trkpt lat="45.60759" lon="5.93764">
        <ele>573.4</ele>
        <time>2025-03-02T11:09:23</time>
      </trkpt>
      <trkpt lat="45.6076" lon="5.93764">
        <ele>573.4</ele>
        <time>2025-03-02T11:09:24</time>
      </trkpt>
      <trkpt lat="45.60767" lon="5.93763">
        <ele>573.4</ele>
        <time>2025-03-02T11:09:31</time>
      </trkpt>
      <trkpt lat="45.60777" lon="5.93764">
        <ele>577.2</ele>
        <time>2025-03-02T11:09:43</time>
      </trkpt>
      <trkpt lat="45.60778" lon="5.93764">
        <ele>577.2</ele>
        <time>2025-03-02T11:09:43</time>
      </trkpt>
      <trkpt lat="45.6078" lon="5.93765">
        <ele>577.2</ele>
        <time>2025-03-02T11:09:45</time>
      </trkpt>
      <trkpt lat="45.60782" lon="5.93765">
        <ele>578.6</ele>
        <time>2025-03-02T11:09:47</time>
      </trkpt>
      <trkpt lat="45.60783" lon="5.93766">
        <ele>578.6</ele>
        <time>2025-03-02T11:09:49</time>
      </trkpt>
      <trkpt lat="45.60796" lon="5.93769">
        <ele>580.3333</ele>
        <time>2025-03-02T11:10:01</time>
      </trkpt>
      <trkpt lat="45.608" lon="5.93771">
        <ele>580.3333</ele>
        <time>2025-03-02T11:10:07</time>
      </trkpt>
      <trkpt lat="45.60801" lon="5.93772">
        <ele>582</ele>
        <time>2025-03-02T11:10:07</time>
      </trkpt>
      <trkpt lat="45.60801" lon="5.93772">
        <ele>582</ele>
        <time>2025-03-02T11:10:08</time>
      </trkpt>
      <trkpt lat="45.60802" lon="5.93772">
        <ele>582</ele>
        <time>2025-03-02T11:10:09</time>
      </trkpt>
      <trkpt lat="45.60803" lon="5.93772">
        <ele>582</ele>
        <time>2025-03-02T11:10:10</time>
      </trkpt>
      <trkpt lat="45.60804" lon="5.93773">
        <ele>582</ele>
        <time>2025-03-02T11:10:11</time>
      </trkpt>
      <trkpt lat="45.60804" lon="5.93774">
        <ele>582</ele>
        <time>2025-03-02T11:10:12</time>
      </trkpt>
      <trkpt lat="45.60805" lon="5.93774">
        <ele>582</ele>
        <time>2025-03-02T11:10:13</time>
      </trkpt>
      <trkpt lat="45.60805" lon="5.93774">
        <ele>582</ele>
        <time>2025-03-02T11:10:13</time>
      </trkpt>
      <trkpt lat="45.60805" lon="5.93775">
        <ele>582</ele>
        <time>2025-03-02T11:10:14</time>
      </trkpt>
      <trkpt lat="45.60805" lon="5.93776">
        <ele>585.13336</ele>
        <time>2025-03-02T11:10:15</time>
      </trkpt>
      <trkpt lat="45.60805" lon="5.93776">
        <ele>585.13336</ele>
        <time>2025-03-02T11:10:16</time>
      </trkpt>
      <trkpt lat="45.60806" lon="5.93777">
        <ele>585.13336</ele>
        <time>2025-03-02T11:10:17</time>
      </trkpt>
      <trkpt lat="45.60806" lon="5.93776">
        <ele>585.13336</ele>
        <time>2025-03-02T11:10:18</time>
      </trkpt>
      <trkpt lat="45.60807" lon="5.93775">
        <ele>585.13336</ele>
        <time>2025-03-02T11:10:19</time>
      </trkpt>
      <trkpt lat="45.60807" lon="5.93775">
        <ele>585.13336</ele>
        <time>2025-03-02T11:10:20</time>
      </trkpt>
      <trkpt lat="45.60808" lon="5.93775">
        <ele>585.13336</ele>
        <time>2025-03-02T11:10:21</time>
      </trkpt>
      <trkpt lat="45.60809" lon="5.93775">
        <ele>585.13336</ele>
        <time>2025-03-02T11:10:22</time>
      </trkpt>
      <trkpt lat="45.60809" lon="5.93775">
        <ele>585.6</ele>
        <time>2025-03-02T11:10:24</time>
      </trkpt>
      <trkpt lat="45.6081" lon="5.9378">
        <ele>585.6</ele>
        <time>2025-03-02T11:10:25</time>
      </trkpt>
      <trkpt lat="45.60811" lon="5.93783">
        <ele>585.6</ele>
        <time>2025-03-02T11:10:26</time>
      </trkpt>
      <trkpt lat="45.60811" lon="5.93785">
        <ele>585.6</ele>
        <time>2025-03-02T11:10:27</time>
      </trkpt>
      <trkpt lat="45.6081" lon="5.93786">
        <ele>585.6</ele>
        <time>2025-03-02T11:10:29</time>
      </trkpt>
      <trkpt lat="45.6081" lon="5.93787">
        <ele>585.6</ele>
        <time>2025-03-02T11:10:30</time>
      </trkpt>
      <trkpt lat="45.6081" lon="5.93787">
        <ele>585.6</ele>
        <time>2025-03-02T11:10:30</time>
      </trkpt>
      <trkpt lat="45.6081" lon="5.93787">
        <ele>587.3</ele>
        <time>2025-03-02T11:10:33</time>
      </trkpt>
      <trkpt lat="45.6081" lon="5.93788">
        <ele>587.3</ele>
        <time>2025-03-02T11:10:35</time>
      </trkpt>
      <trkpt lat="45.6081" lon="5.93788">
        <ele>587.3</ele>
        <time>2025-03-02T11:10:38</time>
      </trkpt>
      <trkpt lat="45.6081" lon="5.93788">
        <ele>587.3</ele>
        <time>2025-03-02T11:10:39</time>
      </trkpt>
      <trkpt lat="45.60809" lon="5.93789">
        <ele>587.3</ele>
        <time>2025-03-02T11:10:40</time>
      </trkpt>
      <trkpt lat="45.60809" lon="5.93789">
        <ele>587.3</ele>
        <time>2025-03-02T11:10:41</time>
      </trkpt>
      <trkpt lat="45.60809" lon="5.93789">
        <ele>587.3</ele>
        <time>2025-03-02T11:10:41</time>
      </trkpt>
      <trkpt lat="45.60809" lon="5.93789">
        <ele>588.4</ele>
        <time>2025-03-02T11:10:42</time>
      </trkpt>
      <trkpt lat="45.60809" lon="5.93789">
        <ele>588.4</ele>
        <time>2025-03-02T11:10:43</time>
      </trkpt>
      <trkpt lat="45.6081" lon="5.93792">
        <ele>588.4</ele>
        <time>2025-03-02T11:10:45</time>
      </trkpt>
      <trkpt lat="45.60811" lon="5.93796">
        <ele>588.4</ele>
        <time>2025-03-02T11:10:48</time>
      </trkpt>
      <trkpt lat="45.60811" lon="5.93798">
        <ele>588.1</ele>
        <time>2025-03-02T11:10:50</time>
      </trkpt>
      <trkpt lat="45.60812" lon="5.938">
        <ele>588.1</ele>
        <time>2025-03-02T11:10:51</time>
      </trkpt>
      <trkpt lat="45.60812" lon="5.93801">
        <ele>588.1</ele>
        <time>2025-03-02T11:10:53</time>
      </trkpt>
      <trkpt lat="45.60814" lon="5.93806">
        <ele>587.6</ele>
        <time>2025-03-02T11:10:56</time>
      </trkpt>
      <trkpt lat="45.60814" lon="5.93807">
        <ele>587.6</ele>
        <time>2025-03-02T11:10:57</time>
      </trkpt>
      <trkpt lat="45.60815" lon="5.93811">
        <ele>587.6</ele>
        <time>2025-03-02T11:11:00</time>
      </trkpt>
      <trkpt lat="45.60816" lon="5.93814">
        <ele>587.6</ele>
        <time>2025-03-02T11:11:03</time>
      </trkpt>
      <trkpt lat="45.60819" lon="5.93819">
        <ele>587.6</ele>
        <time>2025-03-02T11:11:07</time>
      </trkpt>
      <trkpt lat="45.60822" lon="5.93823">
        <ele>588.5</ele>
        <time>2025-03-02T11:11:11</time>
      </trkpt>
      <trkpt lat="45.60823" lon="5.93825">
        <ele>588.5</ele>
        <time>2025-03-02T11:11:13</time>
      </trkpt>
      <trkpt lat="45.60824" lon="5.93828">
        <ele>588.5</ele>
        <time>2025-03-02T11:11:16</time>
      </trkpt>
      <trkpt lat="45.60834" lon="5.93842">
        <ele>589.2</ele>
        <time>2025-03-02T11:11:31</time>
      </trkpt>
      <trkpt lat="45.60834" lon="5.93844">
        <ele>590.6</ele>
        <time>2025-03-02T11:11:32</time>
      </trkpt>
      <trkpt lat="45.60834" lon="5.93846">
        <ele>590.6</ele>
        <time>2025-03-02T11:11:34</time>
      </trkpt>
      <trkpt lat="45.60835" lon="5.93849">
        <ele>590.6</ele>
        <time>2025-03-02T11:11:36</time>
      </trkpt>
      <trkpt lat="45.60837" lon="5.93858">
        <ele>593.86664</ele>
        <time>2025-03-02T11:11:42</time>
      </trkpt>
      <trkpt lat="45.60838" lon="5.9386">
        <ele>593.86664</ele>
        <time>2025-03-02T11:11:44</time>
      </trkpt>
      <trkpt lat="45.60839" lon="5.93862">
        <ele>597.43335</ele>
        <time>2025-03-02T11:11:46</time>
      </trkpt>
      <trkpt lat="45.60839" lon="5.93864">
        <ele>597.43335</ele>
        <time>2025-03-02T11:11:48</time>
      </trkpt>
      <trkpt lat="45.60839" lon="5.93864">
        <ele>597.43335</ele>
        <time>2025-03-02T11:11:49</time>
      </trkpt>
      <trkpt lat="45.60839" lon="5.93866">
        <ele>597.43335</ele>
        <time>2025-03-02T11:11:49</time>
      </trkpt>
      <trkpt lat="45.60843" lon="5.93883">
        <ele>599.3</ele>
        <time>2025-03-02T11:12:03</time>
      </trkpt>
      <trkpt lat="45.60847" lon="5.93892">
        <ele>598.4</ele>
        <time>2025-03-02T11:12:09</time>
      </trkpt>
      <trkpt lat="45.6085" lon="5.93896">
        <ele>601.9</ele>
        <time>2025-03-02T11:12:13</time>
      </trkpt>
      <trkpt lat="45.60851" lon="5.93898">
        <ele>601.9</ele>
        <time>2025-03-02T11:12:15</time>
      </trkpt>
      <trkpt lat="45.60852" lon="5.93898">
        <ele>601.9</ele>
        <time>2025-03-02T11:12:16</time>
      </trkpt>
      <trkpt lat="45.60854" lon="5.93899">
        <ele>601.9</ele>
        <time>2025-03-02T11:12:18</time>
      </trkpt>
      <trkpt lat="45.60855" lon="5.93899">
        <ele>601.9</ele>
        <time>2025-03-02T11:12:19</time>
      </trkpt>
      <trkpt lat="45.60856" lon="5.93899">
        <ele>600.3</ele>
        <time>2025-03-02T11:12:21</time>
      </trkpt>
      <trkpt lat="45.60859" lon="5.93897">
        <ele>600.3</ele>
        <time>2025-03-02T11:12:23</time>
      </trkpt>
      <trkpt lat="45.60861" lon="5.93896">
        <ele>600.3</ele>
        <time>2025-03-02T11:12:26</time>
      </trkpt>
      <trkpt lat="45.60863" lon="5.93893">
        <ele>599.5</ele>
        <time>2025-03-02T11:12:28</time>
      </trkpt>
      <trkpt lat="45.60864" lon="5.93889">
        <ele>599.5</ele>
        <time>2025-03-02T11:12:32</time>
      </trkpt>
      <trkpt lat="45.60865" lon="5.93887">
        <ele>602.9</ele>
        <time>2025-03-02T11:12:34</time>
      </trkpt>
      <trkpt lat="45.60866" lon="5.93886">
        <ele>602.9</ele>
        <time>2025-03-02T11:12:36</time>
      </trkpt>
      <trkpt lat="45.60867" lon="5.93884">
        <ele>602.9</ele>
        <time>2025-03-02T11:12:38</time>
      </trkpt>
      <trkpt lat="45.60873" lon="5.93881">
        <ele>603.1</ele>
        <time>2025-03-02T11:12:43</time>
      </trkpt>
      <trkpt lat="45.60875" lon="5.9388">
        <ele>603.1</ele>
        <time>2025-03-02T11:12:45</time>
      </trkpt>
      <trkpt lat="45.60877" lon="5.9388">
        <ele>603.1</ele>
        <time>2025-03-02T11:12:46</time>
      </trkpt>
      <trkpt lat="45.60885" lon="5.93878">
        <ele>603.6</ele>
        <time>2025-03-02T11:12:55</time>
      </trkpt>
      <trkpt lat="45.60887" lon="5.93877">
        <ele>603.6</ele>
        <time>2025-03-02T11:12:57</time>
      </trkpt>
      <trkpt lat="45.6089" lon="5.93878">
        <ele>603.6</ele>
        <time>2025-03-02T11:13:00</time>
      </trkpt>
      <trkpt lat="45.60891" lon="5.93878">
        <ele>605</ele>
        <time>2025-03-02T11:13:01</time>
      </trkpt>
      <trkpt lat="45.60895" lon="5.9388">
        <ele>605</ele>
        <time>2025-03-02T11:13:06</time>
      </trkpt>
      <trkpt lat="45.60898" lon="5.93879">
        <ele>607.1</ele>
        <time>2025-03-02T11:13:11</time>
      </trkpt>
      <trkpt lat="45.60899" lon="5.93879">
        <ele>607.1</ele>
        <time>2025-03-02T11:13:12</time>
      </trkpt>
      <trkpt lat="45.609" lon="5.93878">
        <ele>607.1</ele>
        <time>2025-03-02T11:13:13</time>
      </trkpt>
      <trkpt lat="45.60901" lon="5.93878">
        <ele>607.1</ele>
        <time>2025-03-02T11:13:14</time>
      </trkpt>
      <trkpt lat="45.60901" lon="5.93878">
        <ele>607.1</ele>
        <time>2025-03-02T11:13:14</time>
      </trkpt>
      <trkpt lat="45.60902" lon="5.93878">
        <ele>606.4</ele>
        <time>2025-03-02T11:13:15</time>
      </trkpt>
      <trkpt lat="45.60903" lon="5.93878">
        <ele>606.4</ele>
        <time>2025-03-02T11:13:16</time>
      </trkpt>
      <trkpt lat="45.60904" lon="5.93877">
        <ele>606.4</ele>
        <time>2025-03-02T11:13:18</time>
      </trkpt>
      <trkpt lat="45.60904" lon="5.93878">
        <ele>606.4</ele>
        <time>2025-03-02T11:13:18</time>
      </trkpt>
      <trkpt lat="45.60908" lon="5.93879">
        <ele>606.4</ele>
        <time>2025-03-02T11:13:22</time>
      </trkpt>
      <trkpt lat="45.6091" lon="5.9388">
        <ele>606.7</ele>
        <time>2025-03-02T11:13:24</time>
      </trkpt>
      <trkpt lat="45.60912" lon="5.9388">
        <ele>606.7</ele>
        <time>2025-03-02T11:13:26</time>
      </trkpt>
      <trkpt lat="45.60913" lon="5.9388">
        <ele>606.7</ele>
        <time>2025-03-02T11:13:28</time>
      </trkpt>
      <trkpt lat="45.60914" lon="5.93881">
        <ele>609.63336</ele>
        <time>2025-03-02T11:13:30</time>
      </trkpt>
      <trkpt lat="45.60915" lon="5.93881">
        <ele>609.63336</ele>
        <time>2025-03-02T11:13:32</time>
      </trkpt>
      <trkpt lat="45.60916" lon="5.93882">
        <ele>609.63336</ele>
        <time>2025-03-02T11:13:33</time>
      </trkpt>
      <trkpt lat="45.60919" lon="5.93883">
        <ele>611.1</ele>
        <time>2025-03-02T11:13:38</time>
      </trkpt>
      <trkpt lat="45.6092" lon="5.93883">
        <ele>611.1</ele>
        <time>2025-03-02T11:13:39</time>
      </trkpt>
      <trkpt lat="45.60922" lon="5.93884">
        <ele>611.1</ele>
        <time>2025-03-02T11:13:42</time>
      </trkpt>
      <trkpt lat="45.60923" lon="5.93884">
        <ele>611.1</ele>
        <time>2025-03-02T11:13:43</time>
      </trkpt>
      <trkpt lat="45.60924" lon="5.93885">
        <ele>612.4</ele>
        <time>2025-03-02T11:13:45</time>
      </trkpt>
      <trkpt lat="45.60925" lon="5.93885">
        <ele>612.4</ele>
        <time>2025-03-02T11:13:46</time>
      </trkpt>
      <trkpt lat="45.60925" lon="5.93885">
        <ele>612.4</ele>
        <time>2025-03-02T11:13:47</time>
      </trkpt>
      <trkpt lat="45.60926" lon="5.93886">
        <ele>612.4</ele>
        <time>2025-03-02T11:13:48</time>
      </trkpt>
      <trkpt lat="45.60927" lon="5.93887">
        <ele>612.4</ele>
        <time>2025-03-02T11:13:49</time>
      </trkpt>
      <trkpt lat="45.60928" lon="5.93889">
        <ele>612.4</ele>
        <time>2025-03-02T11:13:51</time>
      </trkpt>
      <trkpt lat="45.60929" lon="5.93889">
        <ele>614.3</ele>
        <time>2025-03-02T11:13:52</time>
      </trkpt>
      <trkpt lat="45.6093" lon="5.93889">
        <ele>614.3</ele>
        <time>2025-03-02T11:13:53</time>
      </trkpt>
      <trkpt lat="45.6093" lon="5.93889">
        <ele>614.3</ele>
        <time>2025-03-02T11:13:54</time>
      </trkpt>
      <trkpt lat="45.6093" lon="5.93889">
        <ele>614.3</ele>
        <time>2025-03-02T11:13:55</time>
      </trkpt>
      <trkpt lat="45.60931" lon="5.93889">
        <ele>614.3</ele>
        <time>2025-03-02T11:13:55</time>
      </trkpt>
      <trkpt lat="45.60931" lon="5.93889">
        <ele>614.3</ele>
        <time>2025-03-02T11:13:56</time>
      </trkpt>
      <trkpt lat="45.60932" lon="5.9389">
        <ele>614.3</ele>
        <time>2025-03-02T11:13:57</time>
      </trkpt>
      <trkpt lat="45.60933" lon="5.93891">
        <ele>614.3</ele>
        <time>2025-03-02T11:13:58</time>
      </trkpt>
      <trkpt lat="45.60933" lon="5.93892">
        <ele>617</ele>
        <time>2025-03-02T11:13:59</time>
      </trkpt>
      <trkpt lat="45.60934" lon="5.93893">
        <ele>617</ele>
        <time>2025-03-02T11:14:00</time>
      </trkpt>
      <trkpt lat="45.60935" lon="5.93893">
        <ele>617</ele>
        <time>2025-03-02T11:14:01</time>
      </trkpt>
      <trkpt lat="45.60935" lon="5.93893">
        <ele>617</ele>
        <time>2025-03-02T11:14:02</time>
      </trkpt>
      <trkpt lat="45.60939" lon="5.93895">
        <ele>619.1</ele>
        <time>2025-03-02T11:14:07</time>
      </trkpt>
      <trkpt lat="45.6094" lon="5.93896">
        <ele>619.1</ele>
        <time>2025-03-02T11:14:08</time>
      </trkpt>
      <trkpt lat="45.60941" lon="5.93898">
        <ele>619.1</ele>
        <time>2025-03-02T11:14:10</time>
      </trkpt>
      <trkpt lat="45.60942" lon="5.93898">
        <ele>619.1</ele>
        <time>2025-03-02T11:14:11</time>
      </trkpt>
      <trkpt lat="45.60942" lon="5.93898">
        <ele>619.1</ele>
        <time>2025-03-02T11:14:12</time>
      </trkpt>
      <trkpt lat="45.60943" lon="5.93898">
        <ele>619.1</ele>
        <time>2025-03-02T11:14:13</time>
      </trkpt>
      <trkpt lat="45.60943" lon="5.93897">
        <ele>621.2</ele>
        <time>2025-03-02T11:14:14</time>
      </trkpt>
      <trkpt lat="45.60944" lon="5.93897">
        <ele>621.2</ele>
        <time>2025-03-02T11:14:15</time>
      </trkpt>
      <trkpt lat="45.60944" lon="5.93897">
        <ele>621.2</ele>
        <time>2025-03-02T11:14:16</time>
      </trkpt>
      <trkpt lat="45.60944" lon="5.93897">
        <ele>621.2</ele>
        <time>2025-03-02T11:14:16</time>
      </trkpt>
      <trkpt lat="45.60945" lon="5.93898">
        <ele>621.2</ele>
        <time>2025-03-02T11:14:18</time>
      </trkpt>
      <trkpt lat="45.60947" lon="5.93899">
        <ele>621.2</ele>
        <time>2025-03-02T11:14:20</time>
      </trkpt>
      <trkpt lat="45.60948" lon="5.93899">
        <ele>624.4</ele>
        <time>2025-03-02T11:14:21</time>
      </trkpt>
      <trkpt lat="45.6095" lon="5.939">
        <ele>624.4</ele>
        <time>2025-03-02T11:14:24</time>
      </trkpt>
      <trkpt lat="45.6095" lon="5.939">
        <ele>624.4</ele>
        <time>2025-03-02T11:14:24</time>
      </trkpt>
      <trkpt lat="45.60951" lon="5.93902">
        <ele>624.4</ele>
        <time>2025-03-02T11:14:27</time>
      </trkpt>
      <trkpt lat="45.60952" lon="5.93902">
        <ele>624.4</ele>
        <time>2025-03-02T11:14:27</time>
      </trkpt>
      <trkpt lat="45.60953" lon="5.93902">
        <ele>626.3</ele>
        <time>2025-03-02T11:14:30</time>
      </trkpt>
      <trkpt lat="45.60954" lon="5.93902">
        <ele>626.3</ele>
        <time>2025-03-02T11:14:30</time>
      </trkpt>
      <trkpt lat="45.60954" lon="5.93902">
        <ele>626.3</ele>
        <time>2025-03-02T11:14:31</time>
      </trkpt>
      <trkpt lat="45.60954" lon="5.93902">
        <ele>626.3</ele>
        <time>2025-03-02T11:14:32</time>
      </trkpt>
      <trkpt lat="45.60955" lon="5.93903">
        <ele>626.3</ele>
        <time>2025-03-02T11:14:33</time>
      </trkpt>
      <trkpt lat="45.60957" lon="5.93905">
        <ele>629.6</ele>
        <time>2025-03-02T11:14:36</time>
      </trkpt>
      <trkpt lat="45.60957" lon="5.93905">
        <ele>629.6</ele>
        <time>2025-03-02T11:14:37</time>
      </trkpt>
      <trkpt lat="45.60958" lon="5.93905">
        <ele>629.6</ele>
        <time>2025-03-02T11:14:37</time>
      </trkpt>
      <trkpt lat="45.60958" lon="5.93904">
        <ele>629.6</ele>
        <time>2025-03-02T11:14:38</time>
      </trkpt>
      <trkpt lat="45.60959" lon="5.93902">
        <ele>629.6</ele>
        <time>2025-03-02T11:14:42</time>
      </trkpt>
      <trkpt lat="45.6096" lon="5.93901">
        <ele>631.1</ele>
        <time>2025-03-02T11:14:43</time>
      </trkpt>
      <trkpt lat="45.60961" lon="5.93901">
        <ele>631.1</ele>
        <time>2025-03-02T11:14:45</time>
      </trkpt>
      <trkpt lat="45.60963" lon="5.939">
        <ele>631.1</ele>
        <time>2025-03-02T11:14:48</time>
      </trkpt>
      <trkpt lat="45.60964" lon="5.93899">
        <ele>631.1</ele>
        <time>2025-03-02T11:14:50</time>
      </trkpt>
      <trkpt lat="45.60964" lon="5.93899">
        <ele>632.3</ele>
        <time>2025-03-02T11:14:51</time>
      </trkpt>
      <trkpt lat="45.60965" lon="5.93899">
        <ele>632.3</ele>
        <time>2025-03-02T11:14:52</time>
      </trkpt>
      <trkpt lat="45.60966" lon="5.93899">
        <ele>632.3</ele>
        <time>2025-03-02T11:14:53</time>
      </trkpt>
      <trkpt lat="45.60966" lon="5.93898">
        <ele>632.3</ele>
        <time>2025-03-02T11:14:53</time>
      </trkpt>
      <trkpt lat="45.60967" lon="5.93898">
        <ele>632.3</ele>
        <time>2025-03-02T11:14:54</time>
      </trkpt>
      <trkpt lat="45.60971" lon="5.93896">
        <ele>632.7</ele>
        <time>2025-03-02T11:14:59</time>
      </trkpt>
      <trkpt lat="45.60976" lon="5.93895">
        <ele>633.1</ele>
        <time>2025-03-02T11:15:05</time>
      </trkpt>
      <trkpt lat="45.60976" lon="5.93895">
        <ele>633.1</ele>
        <time>2025-03-02T11:15:06</time>
      </trkpt>
      <trkpt lat="45.60977" lon="5.93896">
        <ele>633.1</ele>
        <time>2025-03-02T11:15:06</time>
      </trkpt>
      <trkpt lat="45.60977" lon="5.93896">
        <ele>633.1</ele>
        <time>2025-03-02T11:15:07</time>
      </trkpt>
      <trkpt lat="45.60979" lon="5.93896">
        <ele>633.1</ele>
        <time>2025-03-02T11:15:08</time>
      </trkpt>
      <trkpt lat="45.60979" lon="5.93897">
        <ele>633.1</ele>
        <time>2025-03-02T11:15:09</time>
      </trkpt>
      <trkpt lat="45.6098" lon="5.93897">
        <ele>633.1</ele>
        <time>2025-03-02T11:15:10</time>
      </trkpt>
      <trkpt lat="45.6098" lon="5.93897">
        <ele>633.1</ele>
        <time>2025-03-02T11:15:10</time>
      </trkpt>
      <trkpt lat="45.60981" lon="5.93897">
        <ele>633.1</ele>
        <time>2025-03-02T11:15:11</time>
      </trkpt>
      <trkpt lat="45.60982" lon="5.93897">
        <ele>632.3</ele>
        <time>2025-03-02T11:15:12</time>
      </trkpt>
      <trkpt lat="45.60982" lon="5.93898">
        <ele>632.3</ele>
        <time>2025-03-02T11:15:13</time>
      </trkpt>
      <trkpt lat="45.60985" lon="5.939">
        <ele>632.3</ele>
        <time>2025-03-02T11:15:15</time>
      </trkpt>
      <trkpt lat="45.60991" lon="5.93906">
        <ele>633.4</ele>
        <time>2025-03-02T11:15:22</time>
      </trkpt>
      <trkpt lat="45.60994" lon="5.93907">
        <ele>633.4</ele>
        <time>2025-03-02T11:15:24</time>
      </trkpt>
      <trkpt lat="45.61001" lon="5.93916">
        <ele>633.7</ele>
        <time>2025-03-02T11:15:36</time>
      </trkpt>
      <trkpt lat="45.61007" lon="5.93923">
        <ele>635.7</ele>
        <time>2025-03-02T11:15:45</time>
      </trkpt>
      <trkpt lat="45.61009" lon="5.93924">
        <ele>635.7</ele>
        <time>2025-03-02T11:15:47</time>
      </trkpt>
      <trkpt lat="45.6101" lon="5.93925">
        <ele>637.86664</ele>
        <time>2025-03-02T11:15:49</time>
      </trkpt>
      <trkpt lat="45.61011" lon="5.93925">
        <ele>637.86664</ele>
        <time>2025-03-02T11:15:50</time>
      </trkpt>
      <trkpt lat="45.61012" lon="5.93925">
        <ele>637.86664</ele>
        <time>2025-03-02T11:15:52</time>
      </trkpt>
      <trkpt lat="45.61013" lon="5.93925">
        <ele>637.86664</ele>
        <time>2025-03-02T11:15:53</time>
      </trkpt>
      <trkpt lat="45.61014" lon="5.93925">
        <ele>637.86664</ele>
        <time>2025-03-02T11:15:54</time>
      </trkpt>
      <trkpt lat="45.61015" lon="5.93925">
        <ele>637.86664</ele>
        <time>2025-03-02T11:15:55</time>
      </trkpt>
      <trkpt lat="45.61017" lon="5.93924">
        <ele>639.2</ele>
        <time>2025-03-02T11:15:57</time>
      </trkpt>
      <trkpt lat="45.61018" lon="5.93924">
        <ele>639.2</ele>
        <time>2025-03-02T11:15:59</time>
      </trkpt>
      <trkpt lat="45.61019" lon="5.93924">
        <ele>639.2</ele>
        <time>2025-03-02T11:16:00</time>
      </trkpt>
      <trkpt lat="45.61019" lon="5.93924">
        <ele>639.2</ele>
        <time>2025-03-02T11:16:00</time>
      </trkpt>
      <trkpt lat="45.6102" lon="5.93924">
        <ele>639.2</ele>
        <time>2025-03-02T11:16:01</time>
      </trkpt>
      <trkpt lat="45.6102" lon="5.93925">
        <ele>639.2</ele>
        <time>2025-03-02T11:16:02</time>
      </trkpt>
      <trkpt lat="45.61021" lon="5.93927">
        <ele>640.5</ele>
        <time>2025-03-02T11:16:03</time>
      </trkpt>
      <trkpt lat="45.61021" lon="5.93926">
        <ele>640.5</ele>
        <time>2025-03-02T11:16:04</time>
      </trkpt>
      <trkpt lat="45.61021" lon="5.93926">
        <ele>640.5</ele>
        <time>2025-03-02T11:16:05</time>
      </trkpt>
      <trkpt lat="45.61021" lon="5.93926">
        <ele>640.5</ele>
        <time>2025-03-02T11:16:06</time>
      </trkpt>
      <trkpt lat="45.61022" lon="5.93929">
        <ele>640.5</ele>
        <time>2025-03-02T11:16:08</time>
      </trkpt>
      <trkpt lat="45.61022" lon="5.93929">
        <ele>640.5</ele>
        <time>2025-03-02T11:16:09</time>
      </trkpt>
      <trkpt lat="45.61022" lon="5.9393">
        <ele>640.5</ele>
        <time>2025-03-02T11:16:10</time>
      </trkpt>
      <trkpt lat="45.61021" lon="5.93928">
        <ele>643.3</ele>
        <time>2025-03-02T11:16:18</time>
      </trkpt>
      <trkpt lat="45.61021" lon="5.93928">
        <ele>643.3</ele>
        <time>2025-03-02T11:16:21</time>
      </trkpt>
      <trkpt lat="45.61021" lon="5.93928">
        <ele>645</ele>
        <time>2025-03-02T11:16:27</time>
      </trkpt>
      <trkpt lat="45.61021" lon="5.93932">
        <ele>645</ele>
        <time>2025-03-02T11:16:40</time>
      </trkpt>
      <trkpt lat="45.61023" lon="5.93934">
        <ele>645</ele>
        <time>2025-03-02T11:16:43</time>
      </trkpt>
      <trkpt lat="45.61023" lon="5.93934">
        <ele>645</ele>
        <time>2025-03-02T11:16:44</time>
      </trkpt>
      <trkpt lat="45.61024" lon="5.93935">
        <ele>645</ele>
        <time>2025-03-02T11:16:44</time>
      </trkpt>
      <trkpt lat="45.61025" lon="5.93934">
        <ele>645</ele>
        <time>2025-03-02T11:16:45</time>
      </trkpt>
      <trkpt lat="45.61027" lon="5.93935">
        <ele>645</ele>
        <time>2025-03-02T11:16:47</time>
      </trkpt>
      <trkpt lat="45.61028" lon="5.93936">
        <ele>645</ele>
        <time>2025-03-02T11:16:49</time>
      </trkpt>
      <trkpt lat="45.61028" lon="5.93936">
        <ele>645</ele>
        <time>2025-03-02T11:16:50</time>
      </trkpt>
      <trkpt lat="45.61027" lon="5.93936">
        <ele>647.9</ele>
        <time>2025-03-02T11:16:51</time>
      </trkpt>
      <trkpt lat="45.61027" lon="5.93936">
        <ele>647.9</ele>
        <time>2025-03-02T11:16:52</time>
      </trkpt>
      <trkpt lat="45.61027" lon="5.93937">
        <ele>647.9</ele>
        <time>2025-03-02T11:16:53</time>
      </trkpt>
      <trkpt lat="45.61027" lon="5.93937">
        <ele>647.9</ele>
        <time>2025-03-02T11:16:53</time>
      </trkpt>
      <trkpt lat="45.6103" lon="5.93938">
        <ele>647.9</ele>
        <time>2025-03-02T11:16:56</time>
      </trkpt>
      <trkpt lat="45.61032" lon="5.9394">
        <ele>647.9</ele>
        <time>2025-03-02T11:16:58</time>
      </trkpt>
      <trkpt lat="45.61033" lon="5.93943">
        <ele>648.2</ele>
        <time>2025-03-02T11:17:00</time>
      </trkpt>
      <trkpt lat="45.61036" lon="5.93948">
        <ele>648.2</ele>
        <time>2025-03-02T11:17:05</time>
      </trkpt>
      <trkpt lat="45.61037" lon="5.93949">
        <ele>647.3</ele>
        <time>2025-03-02T11:17:06</time>
      </trkpt>
      <trkpt lat="45.61038" lon="5.93951">
        <ele>647.3</ele>
        <time>2025-03-02T11:17:08</time>
      </trkpt>
      <trkpt lat="45.6104" lon="5.93953">
        <ele>647.3</ele>
        <time>2025-03-02T11:17:10</time>
      </trkpt>
      <trkpt lat="45.61041" lon="5.93954">
        <ele>647.3</ele>
        <time>2025-03-02T11:17:12</time>
      </trkpt>
      <trkpt lat="45.61043" lon="5.93957">
        <ele>648.3</ele>
        <time>2025-03-02T11:17:15</time>
      </trkpt>
      <trkpt lat="45.61045" lon="5.93963">
        <ele>648.3</ele>
        <time>2025-03-02T11:17:20</time>
      </trkpt>
      <trkpt lat="45.61046" lon="5.93964">
        <ele>648.5</ele>
        <time>2025-03-02T11:17:22</time>
      </trkpt>
      <trkpt lat="45.61048" lon="5.93968">
        <ele>648.5</ele>
        <time>2025-03-02T11:17:26</time>
      </trkpt>
      <trkpt lat="45.61049" lon="5.93969">
        <ele>648.5</ele>
        <time>2025-03-02T11:17:27</time>
      </trkpt>
      <trkpt lat="45.61049" lon="5.9397">
        <ele>648.4</ele>
        <time>2025-03-02T11:17:28</time>
      </trkpt>
      <trkpt lat="45.61049" lon="5.9397">
        <ele>648.4</ele>
        <time>2025-03-02T11:17:29</time>
      </trkpt>
      <trkpt lat="45.61052" lon="5.93972">
        <ele>648.4</ele>
        <time>2025-03-02T11:17:34</time>
      </trkpt>
      <trkpt lat="45.61053" lon="5.93973">
        <ele>648.4</ele>
        <time>2025-03-02T11:17:35</time>
      </trkpt>
      <trkpt lat="45.61054" lon="5.93973">
        <ele>649.1</ele>
        <time>2025-03-02T11:17:38</time>
      </trkpt>
      <trkpt lat="45.61054" lon="5.93973">
        <ele>649.1</ele>
        <time>2025-03-02T11:17:39</time>
      </trkpt>
      <trkpt lat="45.61054" lon="5.93973">
        <ele>649.1</ele>
        <time>2025-03-02T11:17:39</time>
      </trkpt>
      <trkpt lat="45.61055" lon="5.93972">
        <ele>649.1</ele>
        <time>2025-03-02T11:17:44</time>
      </trkpt>
      <trkpt lat="45.61055" lon="5.93972">
        <ele>652.1</ele>
        <time>2025-03-02T11:17:46</time>
      </trkpt>
      <trkpt lat="45.61055" lon="5.93972">
        <ele>652.1</ele>
        <time>2025-03-02T11:17:51</time>
      </trkpt>
      <trkpt lat="45.61055" lon="5.93972">
        <ele>652.1</ele>
        <time>2025-03-02T11:17:54</time>
      </trkpt>
      <trkpt lat="45.61055" lon="5.93971">
        <ele>653</ele>
        <time>2025-03-02T11:17:54</time>
      </trkpt>
      <trkpt lat="45.61055" lon="5.93972">
        <ele>653</ele>
        <time>2025-03-02T11:17:57</time>
      </trkpt>
      <trkpt lat="45.61055" lon="5.93972">
        <ele>653</ele>
        <time>2025-03-02T11:17:57</time>
      </trkpt>
      <trkpt lat="45.61055" lon="5.93972">
        <ele>653</ele>
        <time>2025-03-02T11:17:58</time>
      </trkpt>
      <trkpt lat="45.61055" lon="5.93972">
        <ele>653</ele>
        <time>2025-03-02T11:17:59</time>
      </trkpt>
      <trkpt lat="45.61055" lon="5.93971">
        <ele>653</ele>
        <time>2025-03-02T11:18:05</time>
      </trkpt>
      <trkpt lat="45.61055" lon="5.93972">
        <ele>653</ele>
        <time>2025-03-02T11:18:16</time>
      </trkpt>
      <trkpt lat="45.61055" lon="5.93972">
        <ele>653</ele>
        <time>2025-03-02T11:18:18</time>
      </trkpt>
      <trkpt lat="45.61055" lon="5.93972">
        <ele>653</ele>
        <time>2025-03-02T11:18:18</time>
      </trkpt>
      <trkpt lat="45.61055" lon="5.93972">
        <ele>653</ele>
        <time>2025-03-02T11:19:27</time>
      </trkpt>
      <trkpt lat="45.61055" lon="5.93971">
        <ele>653</ele>
        <time>2025-03-02T11:19:38</time>
      </trkpt>
      <trkpt lat="45.61055" lon="5.93971">
        <ele>653</ele>
        <time>2025-03-02T11:19:40</time>
      </trkpt>
      <trkpt lat="45.61055" lon="5.93971">
        <ele>653</ele>
        <time>2025-03-02T11:19:42</time>
      </trkpt>
      <trkpt lat="45.61055" lon="5.93971">
        <ele>653</ele>
        <time>2025-03-02T11:19:44</time>
      </trkpt>
      <trkpt lat="45.61055" lon="5.93971">
        <ele>653</ele>
        <time>2025-03-02T11:19:47</time>
      </trkpt>
      <trkpt lat="45.61055" lon="5.93971">
        <ele>653</ele>
        <time>2025-03-02T11:19:48</time>
      </trkpt>
      <trkpt lat="45.61055" lon="5.93971">
        <ele>653</ele>
        <time>2025-03-02T11:19:49</time>
      </trkpt>
      <trkpt lat="45.61061" lon="5.93971">
        <ele>653</ele>
        <time>2025-03-02T11:19:52</time>
      </trkpt>
      <trkpt lat="45.61062" lon="5.93972">
        <ele>653</ele>
        <time>2025-03-02T11:19:53</time>
      </trkpt>
      <trkpt lat="45.61063" lon="5.93974">
        <ele>653</ele>
        <time>2025-03-02T11:19:54</time>
      </trkpt>
      <trkpt lat="45.61064" lon="5.93973">
        <ele>653</ele>
        <time>2025-03-02T11:19:55</time>
      </trkpt>
      <trkpt lat="45.61065" lon="5.93973">
        <ele>653</ele>
        <time>2025-03-02T11:19:57</time>
      </trkpt>
      <trkpt lat="45.61067" lon="5.93974">
        <ele>661.9</ele>
        <time>2025-03-02T11:20:00</time>
      </trkpt>
      <trkpt lat="45.61067" lon="5.93974">
        <ele>661.9</ele>
        <time>2025-03-02T11:20:04</time>
      </trkpt>
      <trkpt lat="45.61067" lon="5.93974">
        <ele>663.2</ele>
        <time>2025-03-02T11:20:11</time>
      </trkpt>
      <trkpt lat="45.61067" lon="5.93974">
        <ele>663.2</ele>
        <time>2025-03-02T11:20:14</time>
      </trkpt>
      <trkpt lat="45.61067" lon="5.93974">
        <ele>663.2</ele>
        <time>2025-03-02T11:21:13</time>
      </trkpt>
      <trkpt lat="45.61067" lon="5.93974">
        <ele>663.2</ele>
        <time>2025-03-02T11:21:13</time>
      </trkpt>
      <trkpt lat="45.61067" lon="5.93974">
        <ele>663.2</ele>
        <time>2025-03-02T11:21:14</time>
      </trkpt>
      <trkpt lat="45.61069" lon="5.93974">
        <ele>663.2</ele>
        <time>2025-03-02T11:21:15</time>
      </trkpt>
      <trkpt lat="45.61071" lon="5.93972">
        <ele>663.2</ele>
        <time>2025-03-02T11:21:17</time>
      </trkpt>
      <trkpt lat="45.61073" lon="5.9397">
        <ele>663.2</ele>
        <time>2025-03-02T11:21:19</time>
      </trkpt>
      <trkpt lat="45.61075" lon="5.9397">
        <ele>663.2</ele>
        <time>2025-03-02T11:21:21</time>
      </trkpt>
      <trkpt lat="45.61076" lon="5.93971">
        <ele>663.2</ele>
        <time>2025-03-02T11:21:23</time>
      </trkpt>
      <trkpt lat="45.61078" lon="5.93973">
        <ele>666.9</ele>
        <time>2025-03-02T11:21:25</time>
      </trkpt>
      <trkpt lat="45.61079" lon="5.93974">
        <ele>666.9</ele>
        <time>2025-03-02T11:21:26</time>
      </trkpt>
      <trkpt lat="45.6108" lon="5.93975">
        <ele>666.9</ele>
        <time>2025-03-02T11:21:27</time>
      </trkpt>
      <trkpt lat="45.61081" lon="5.93976">
        <ele>666.9</ele>
        <time>2025-03-02T11:21:29</time>
      </trkpt>
      <trkpt lat="45.61082" lon="5.93978">
        <ele>666.9</ele>
        <time>2025-03-02T11:21:31</time>
      </trkpt>
      <trkpt lat="45.61085" lon="5.93981">
        <ele>667.1</ele>
        <time>2025-03-02T11:21:34</time>
      </trkpt>
      <trkpt lat="45.61087" lon="5.93983">
        <ele>667.1</ele>
        <time>2025-03-02T11:21:37</time>
      </trkpt>
      <trkpt lat="45.61088" lon="5.93983">
        <ele>668.8</ele>
        <time>2025-03-02T11:21:38</time>
      </trkpt>
      <trkpt lat="45.61093" lon="5.93988">
        <ele>669.0333</ele>
        <time>2025-03-02T11:21:46</time>
      </trkpt>
      <trkpt lat="45.61097" lon="5.93993">
        <ele>670.9</ele>
        <time>2025-03-02T11:21:52</time>
      </trkpt>
      <trkpt lat="45.61099" lon="5.93997">
        <ele>670.9</ele>
        <time>2025-03-02T11:21:54</time>
      </trkpt>
      <trkpt lat="45.61102" lon="5.94005">
        <ele>671.63336</ele>
        <time>2025-03-02T11:22:01</time>
      </trkpt>
      <trkpt lat="45.61103" lon="5.94007">
        <ele>671.63336</ele>
        <time>2025-03-02T11:22:02</time>
      </trkpt>
      <trkpt lat="45.61104" lon="5.94008">
        <ele>671.63336</ele>
        <time>2025-03-02T11:22:04</time>
      </trkpt>
      <trkpt lat="45.61105" lon="5.9401">
        <ele>671.63336</ele>
        <time>2025-03-02T11:22:05</time>
      </trkpt>
      <trkpt lat="45.6111" lon="5.94018">
        <ele>672</ele>
        <time>2025-03-02T11:22:16</time>
      </trkpt>
      <trkpt lat="45.61113" lon="5.94024">
        <ele>672</ele>
        <time>2025-03-02T11:22:21</time>
      </trkpt>
      <trkpt lat="45.61117" lon="5.94026">
        <ele>673.7</ele>
        <time>2025-03-02T11:22:24</time>
      </trkpt>
      <trkpt lat="45.61121" lon="5.94027">
        <ele>673.7</ele>
        <time>2025-03-02T11:22:28</time>
      </trkpt>
      <trkpt lat="45.61127" lon="5.94027">
        <ele>674.3</ele>
        <time>2025-03-02T11:22:37</time>
      </trkpt>
      <trkpt lat="45.6113" lon="5.94026">
        <ele>674.3</ele>
        <time>2025-03-02T11:22:40</time>
      </trkpt>
      <trkpt lat="45.61135" lon="5.94025">
        <ele>673.8</ele>
        <time>2025-03-02T11:22:44</time>
      </trkpt>
      <trkpt lat="45.61137" lon="5.94024">
        <ele>673.8</ele>
        <time>2025-03-02T11:22:47</time>
      </trkpt>
      <trkpt lat="45.61138" lon="5.94023">
        <ele>673.8</ele>
        <time>2025-03-02T11:22:49</time>
      </trkpt>
      <trkpt lat="45.61139" lon="5.94023">
        <ele>675.2</ele>
        <time>2025-03-02T11:22:49</time>
      </trkpt>
      <trkpt lat="45.6114" lon="5.94022">
        <ele>675.2</ele>
        <time>2025-03-02T11:22:51</time>
      </trkpt>
      <trkpt lat="45.61141" lon="5.94022">
        <ele>675.2</ele>
        <time>2025-03-02T11:22:53</time>
      </trkpt>
      <trkpt lat="45.61143" lon="5.94019">
        <ele>678</ele>
        <time>2025-03-02T11:22:56</time>
      </trkpt>
      <trkpt lat="45.61144" lon="5.94017">
        <ele>678</ele>
        <time>2025-03-02T11:22:58</time>
      </trkpt>
      <trkpt lat="45.61145" lon="5.94015">
        <ele>678</ele>
        <time>2025-03-02T11:23:01</time>
      </trkpt>
      <trkpt lat="45.61146" lon="5.94015">
        <ele>678</ele>
        <time>2025-03-02T11:23:01</time>
      </trkpt>
      <trkpt lat="45.61148" lon="5.94013">
        <ele>678.7</ele>
        <time>2025-03-02T11:23:06</time>
      </trkpt>
      <trkpt lat="45.61149" lon="5.94012">
        <ele>678.7</ele>
        <time>2025-03-02T11:23:07</time>
      </trkpt>
      <trkpt lat="45.6115" lon="5.94012">
        <ele>678.7</ele>
        <time>2025-03-02T11:23:08</time>
      </trkpt>
      <trkpt lat="45.6115" lon="5.94011">
        <ele>678.7</ele>
        <time>2025-03-02T11:23:09</time>
      </trkpt>
      <trkpt lat="45.61151" lon="5.9401">
        <ele>678.7</ele>
        <time>2025-03-02T11:23:10</time>
      </trkpt>
      <trkpt lat="45.61151" lon="5.9401">
        <ele>681.7</ele>
        <time>2025-03-02T11:23:11</time>
      </trkpt>
      <trkpt lat="45.61153" lon="5.94009">
        <ele>681.7</ele>
        <time>2025-03-02T11:23:12</time>
      </trkpt>
      <trkpt lat="45.61155" lon="5.94008">
        <ele>681.7</ele>
        <time>2025-03-02T11:23:14</time>
      </trkpt>
      <trkpt lat="45.61157" lon="5.94006">
        <ele>685.5</ele>
        <time>2025-03-02T11:23:17</time>
      </trkpt>
      <trkpt lat="45.61161" lon="5.94003">
        <ele>685.5</ele>
        <time>2025-03-02T11:23:22</time>
      </trkpt>
      <trkpt lat="45.61178" lon="5.93994">
        <ele>688.06665</ele>
        <time>2025-03-02T11:23:42</time>
      </trkpt>
      <trkpt lat="45.61179" lon="5.93994">
        <ele>688.2</ele>
        <time>2025-03-02T11:23:45</time>
      </trkpt>
      <trkpt lat="45.6118" lon="5.93993">
        <ele>688.2</ele>
        <time>2025-03-02T11:23:46</time>
      </trkpt>
      <trkpt lat="45.61181" lon="5.93992">
        <ele>688.2</ele>
        <time>2025-03-02T11:23:48</time>
      </trkpt>
      <trkpt lat="45.61185" lon="5.93989">
        <ele>689.3</ele>
        <time>2025-03-02T11:23:54</time>
      </trkpt>
      <trkpt lat="45.61186" lon="5.93988">
        <ele>689.3</ele>
        <time>2025-03-02T11:23:55</time>
      </trkpt>
      <trkpt lat="45.61198" lon="5.93978">
        <ele>692.8333</ele>
        <time>2025-03-02T11:24:08</time>
      </trkpt>
      <trkpt lat="45.61199" lon="5.93977">
        <ele>692.8333</ele>
        <time>2025-03-02T11:24:10</time>
      </trkpt>
      <trkpt lat="45.612" lon="5.93976">
        <ele>692.8333</ele>
        <time>2025-03-02T11:24:10</time>
      </trkpt>
      <trkpt lat="45.612" lon="5.93976">
        <ele>692.8333</ele>
        <time>2025-03-02T11:24:11</time>
      </trkpt>
      <trkpt lat="45.61201" lon="5.93975">
        <ele>692.8333</ele>
        <time>2025-03-02T11:24:13</time>
      </trkpt>
      <trkpt lat="45.61202" lon="5.93975">
        <ele>692.8333</ele>
        <time>2025-03-02T11:24:14</time>
      </trkpt>
      <trkpt lat="45.61203" lon="5.93974">
        <ele>695.4</ele>
        <time>2025-03-02T11:24:16</time>
      </trkpt>
      <trkpt lat="45.61206" lon="5.93973">
        <ele>695.4</ele>
        <time>2025-03-02T11:24:18</time>
      </trkpt>
      <trkpt lat="45.61211" lon="5.9397">
        <ele>696.4</ele>
        <time>2025-03-02T11:24:23</time>
      </trkpt>
      <trkpt lat="45.61215" lon="5.93968">
        <ele>696.3333</ele>
        <time>2025-03-02T11:24:29</time>
      </trkpt>
      <trkpt lat="45.61219" lon="5.93967">
        <ele>696.3333</ele>
        <time>2025-03-02T11:24:32</time>
      </trkpt>
      <trkpt lat="45.6122" lon="5.93967">
        <ele>696.3333</ele>
        <time>2025-03-02T11:24:34</time>
      </trkpt>
      <trkpt lat="45.61222" lon="5.93966">
        <ele>697.5</ele>
        <time>2025-03-02T11:24:36</time>
      </trkpt>
      <trkpt lat="45.61223" lon="5.93966">
        <ele>697.5</ele>
        <time>2025-03-02T11:24:37</time>
      </trkpt>
      <trkpt lat="45.61224" lon="5.93966">
        <ele>697.5</ele>
        <time>2025-03-02T11:24:38</time>
      </trkpt>
      <trkpt lat="45.61225" lon="5.93965">
        <ele>697.5</ele>
        <time>2025-03-02T11:24:39</time>
      </trkpt>
      <trkpt lat="45.61239" lon="5.93961">
        <ele>702.8</ele>
        <time>2025-03-02T11:24:56</time>
      </trkpt>
      <trkpt lat="45.61245" lon="5.93959">
        <ele>707.5</ele>
        <time>2025-03-02T11:25:04</time>
      </trkpt>
      <trkpt lat="45.61253" lon="5.93959">
        <ele>710.5</ele>
        <time>2025-03-02T11:25:11</time>
      </trkpt>
      <trkpt lat="45.61259" lon="5.9396">
        <ele>710.5</ele>
        <time>2025-03-02T11:25:16</time>
      </trkpt>
      <trkpt lat="45.6128" lon="5.9396">
        <ele>712.7</ele>
        <time>2025-03-02T11:25:33</time>
      </trkpt>
      <trkpt lat="45.61282" lon="5.93961">
        <ele>712.7</ele>
        <time>2025-03-02T11:25:35</time>
      </trkpt>
      <trkpt lat="45.61283" lon="5.93961">
        <ele>712.7</ele>
        <time>2025-03-02T11:25:36</time>
      </trkpt>
      <trkpt lat="45.61284" lon="5.93962">
        <ele>716.76666</ele>
        <time>2025-03-02T11:25:38</time>
      </trkpt>
      <trkpt lat="45.61295" lon="5.93968">
        <ele>717.8333</ele>
        <time>2025-03-02T11:25:48</time>
      </trkpt>
      <trkpt lat="45.61315" lon="5.93974">
        <ele>718.5</ele>
        <time>2025-03-02T11:26:05</time>
      </trkpt>
      <trkpt lat="45.61319" lon="5.93977">
        <ele>718.6</ele>
        <time>2025-03-02T11:26:09</time>
      </trkpt>
      <trkpt lat="45.6132" lon="5.93978">
        <ele>718.6</ele>
        <time>2025-03-02T11:26:11</time>
      </trkpt>
      <trkpt lat="45.61329" lon="5.93989">
        <ele>718.7</ele>
        <time>2025-03-02T11:26:20</time>
      </trkpt>
      <trkpt lat="45.61335" lon="5.94">
        <ele>718.8</ele>
        <time>2025-03-02T11:26:29</time>
      </trkpt>
      <trkpt lat="45.61338" lon="5.94008">
        <ele>719.26666</ele>
        <time>2025-03-02T11:26:34</time>
      </trkpt>
      <trkpt lat="45.61339" lon="5.9401">
        <ele>719.26666</ele>
        <time>2025-03-02T11:26:35</time>
      </trkpt>
      <trkpt lat="45.61343" lon="5.94018">
        <ele>720.3</ele>
        <time>2025-03-02T11:26:41</time>
      </trkpt>
      <trkpt lat="45.61345" lon="5.94023">
        <ele>719.7</ele>
        <time>2025-03-02T11:26:45</time>
      </trkpt>
      <trkpt lat="45.61349" lon="5.94029">
        <ele>719.7</ele>
        <time>2025-03-02T11:26:49</time>
      </trkpt>
      <trkpt lat="45.61358" lon="5.94035">
        <ele>717.6</ele>
        <time>2025-03-02T11:26:57</time>
      </trkpt>
      <trkpt lat="45.61366" lon="5.9404">
        <ele>717.6</ele>
        <time>2025-03-02T11:27:04</time>
      </trkpt>
      <trkpt lat="45.6138" lon="5.94055">
        <ele>715.8</ele>
        <time>2025-03-02T11:27:19</time>
      </trkpt>
      <trkpt lat="45.61383" lon="5.94056">
        <ele>715.8</ele>
        <time>2025-03-02T11:27:22</time>
      </trkpt>
      <trkpt lat="45.61387" lon="5.94057">
        <ele>716.6</ele>
        <time>2025-03-02T11:27:26</time>
      </trkpt>
      <trkpt lat="45.61389" lon="5.94057">
        <ele>717.8</ele>
        <time>2025-03-02T11:27:29</time>
      </trkpt>
      <trkpt lat="45.6139" lon="5.94057">
        <ele>717.8</ele>
        <time>2025-03-02T11:27:30</time>
      </trkpt>
      <trkpt lat="45.61391" lon="5.94057">
        <ele>717.8</ele>
        <time>2025-03-02T11:27:31</time>
      </trkpt>
      <trkpt lat="45.61393" lon="5.94057">
        <ele>717.8</ele>
        <time>2025-03-02T11:27:32</time>
      </trkpt>
      <trkpt lat="45.61399" lon="5.94058">
        <ele>720.1</ele>
        <time>2025-03-02T11:27:41</time>
      </trkpt>
      <trkpt lat="45.61402" lon="5.9406">
        <ele>722</ele>
        <time>2025-03-02T11:27:43</time>
      </trkpt>
      <trkpt lat="45.61403" lon="5.9406">
        <ele>722</ele>
        <time>2025-03-02T11:27:44</time>
      </trkpt>
      <trkpt lat="45.61404" lon="5.94061">
        <ele>722</ele>
        <time>2025-03-02T11:27:45</time>
      </trkpt>
      <trkpt lat="45.61405" lon="5.94061">
        <ele>722</ele>
        <time>2025-03-02T11:27:46</time>
      </trkpt>
      <trkpt lat="45.61408" lon="5.94063">
        <ele>723.4</ele>
        <time>2025-03-02T11:27:48</time>
      </trkpt>
      <trkpt lat="45.61414" lon="5.94067">
        <ele>724.6</ele>
        <time>2025-03-02T11:27:54</time>
      </trkpt>
      <trkpt lat="45.61418" lon="5.94069">
        <ele>724.6</ele>
        <time>2025-03-02T11:27:57</time>
      </trkpt>
      <trkpt lat="45.61421" lon="5.94071">
        <ele>725.7</ele>
        <time>2025-03-02T11:28:02</time>
      </trkpt>
      <trkpt lat="45.61426" lon="5.94074">
        <ele>725.7</ele>
        <time>2025-03-02T11:28:06</time>
      </trkpt>
      <trkpt lat="45.61429" lon="5.94075">
        <ele>726.4</ele>
        <time>2025-03-02T11:28:09</time>
      </trkpt>
      <trkpt lat="45.61445" lon="5.94084">
        <ele>725</ele>
        <time>2025-03-02T11:28:23</time>
      </trkpt>
      <trkpt lat="45.61458" lon="5.94087">
        <ele>723.2</ele>
        <time>2025-03-02T11:28:34</time>
      </trkpt>
      <trkpt lat="45.6146" lon="5.94088">
        <ele>723.2</ele>
        <time>2025-03-02T11:28:36</time>
      </trkpt>
      <trkpt lat="45.61462" lon="5.94089">
        <ele>723.2</ele>
        <time>2025-03-02T11:28:38</time>
      </trkpt>
      <trkpt lat="45.61473" lon="5.94094">
        <ele>726.4</ele>
        <time>2025-03-02T11:28:48</time>
      </trkpt>
      <trkpt lat="45.61475" lon="5.94094">
        <ele>726.4</ele>
        <time>2025-03-02T11:28:50</time>
      </trkpt>
      <trkpt lat="45.61476" lon="5.94094">
        <ele>726.4</ele>
        <time>2025-03-02T11:28:52</time>
      </trkpt>
      <trkpt lat="45.61476" lon="5.94094">
        <ele>726.4</ele>
        <time>2025-03-02T11:28:52</time>
      </trkpt>
      <trkpt lat="45.61476" lon="5.94094">
        <ele>726.4</ele>
        <time>2025-03-02T11:28:53</time>
      </trkpt>
      <trkpt lat="45.61476" lon="5.94094">
        <ele>726.4</ele>
        <time>2025-03-02T11:28:55</time>
      </trkpt>
      <trkpt lat="45.61476" lon="5.94094">
        <ele>727.8</ele>
        <time>2025-03-02T11:28:55</time>
      </trkpt>
      <trkpt lat="45.61478" lon="5.94096">
        <ele>727.8</ele>
        <time>2025-03-02T11:28:59</time>
      </trkpt>
      <trkpt lat="45.61488" lon="5.941">
        <ele>728.2</ele>
        <time>2025-03-02T11:29:07</time>
      </trkpt>
      <trkpt lat="45.61492" lon="5.94102">
        <ele>727.9</ele>
        <time>2025-03-02T11:29:10</time>
      </trkpt>
      <trkpt lat="45.61494" lon="5.94103">
        <ele>727.9</ele>
        <time>2025-03-02T11:29:12</time>
      </trkpt>
      <trkpt lat="45.61496" lon="5.94105">
        <ele>728.4</ele>
        <time>2025-03-02T11:29:14</time>
      </trkpt>
      <trkpt lat="45.61498" lon="5.94108">
        <ele>728.4</ele>
        <time>2025-03-02T11:29:18</time>
      </trkpt>
      <trkpt lat="45.61499" lon="5.94109">
        <ele>728.4</ele>
        <time>2025-03-02T11:29:18</time>
      </trkpt>
      <trkpt lat="45.61502" lon="5.94117">
        <ele>729.2</ele>
        <time>2025-03-02T11:29:25</time>
      </trkpt>
      <trkpt lat="45.61504" lon="5.94123">
        <ele>729.5</ele>
        <time>2025-03-02T11:29:29</time>
      </trkpt>
      <trkpt lat="45.61508" lon="5.94137">
        <ele>730.23334</ele>
        <time>2025-03-02T11:29:40</time>
      </trkpt>
      <trkpt lat="45.61508" lon="5.94138">
        <ele>730.23334</ele>
        <time>2025-03-02T11:29:41</time>
      </trkpt>
      <trkpt lat="45.61507" lon="5.94139">
        <ele>730.23334</ele>
        <time>2025-03-02T11:29:41</time>
      </trkpt>
      <trkpt lat="45.61507" lon="5.94141">
        <ele>731.1</ele>
        <time>2025-03-02T11:29:43</time>
      </trkpt>
      <trkpt lat="45.61507" lon="5.94143">
        <ele>731.1</ele>
        <time>2025-03-02T11:29:44</time>
      </trkpt>
      <trkpt lat="45.61507" lon="5.94144">
        <ele>731.1</ele>
        <time>2025-03-02T11:29:45</time>
      </trkpt>
      <trkpt lat="45.61506" lon="5.94145">
        <ele>731.1</ele>
        <time>2025-03-02T11:29:46</time>
      </trkpt>
      <trkpt lat="45.61506" lon="5.94146">
        <ele>731.1</ele>
        <time>2025-03-02T11:29:47</time>
      </trkpt>
      <trkpt lat="45.61505" lon="5.94152">
        <ele>731</ele>
        <time>2025-03-02T11:29:51</time>
      </trkpt>
      <trkpt lat="45.61505" lon="5.94157">
        <ele>731</ele>
        <time>2025-03-02T11:29:54</time>
      </trkpt>
      <trkpt lat="45.61505" lon="5.94158">
        <ele>731</ele>
        <time>2025-03-02T11:29:55</time>
      </trkpt>
      <trkpt lat="45.61507" lon="5.94166">
        <ele>732.7</ele>
        <time>2025-03-02T11:30:02</time>
      </trkpt>
      <trkpt lat="45.61507" lon="5.94168">
        <ele>732.7</ele>
        <time>2025-03-02T11:30:04</time>
      </trkpt>
      <trkpt lat="45.61509" lon="5.94175">
        <ele>734.2</ele>
        <time>2025-03-02T11:30:11</time>
      </trkpt>
      <trkpt lat="45.6151" lon="5.94178">
        <ele>737.4</ele>
        <time>2025-03-02T11:30:14</time>
      </trkpt>
      <trkpt lat="45.6151" lon="5.94179">
        <ele>737.4</ele>
        <time>2025-03-02T11:30:16</time>
      </trkpt>
      <trkpt lat="45.61511" lon="5.94179">
        <ele>737.4</ele>
        <time>2025-03-02T11:30:17</time>
      </trkpt>
      <trkpt lat="45.61511" lon="5.94179">
        <ele>738.8</ele>
        <time>2025-03-02T11:30:18</time>
      </trkpt>
      <trkpt lat="45.61512" lon="5.94181">
        <ele>738.8</ele>
        <time>2025-03-02T11:30:21</time>
      </trkpt>
      <trkpt lat="45.61513" lon="5.94181">
        <ele>738.8</ele>
        <time>2025-03-02T11:30:22</time>
      </trkpt>
      <trkpt lat="45.61515" lon="5.94182">
        <ele>738.8</ele>
        <time>2025-03-02T11:30:24</time>
      </trkpt>
      <trkpt lat="45.61516" lon="5.94183">
        <ele>742.1</ele>
        <time>2025-03-02T11:30:27</time>
      </trkpt>
      <trkpt lat="45.61517" lon="5.94183">
        <ele>742.1</ele>
        <time>2025-03-02T11:30:28</time>
      </trkpt>
      <trkpt lat="45.61518" lon="5.94183">
        <ele>742.1</ele>
        <time>2025-03-02T11:30:29</time>
      </trkpt>
      <trkpt lat="45.61518" lon="5.94183">
        <ele>742.1</ele>
        <time>2025-03-02T11:30:30</time>
      </trkpt>
      <trkpt lat="45.61521" lon="5.94181">
        <ele>741</ele>
        <time>2025-03-02T11:30:34</time>
      </trkpt>
      <trkpt lat="45.61522" lon="5.94181">
        <ele>741</ele>
        <time>2025-03-02T11:30:35</time>
      </trkpt>
      <trkpt lat="45.61522" lon="5.9418">
        <ele>741</ele>
        <time>2025-03-02T11:30:37</time>
      </trkpt>
      <trkpt lat="45.61524" lon="5.94178">
        <ele>741.5</ele>
        <time>2025-03-02T11:30:40</time>
      </trkpt>
      <trkpt lat="45.61525" lon="5.94176">
        <ele>741.5</ele>
        <time>2025-03-02T11:30:44</time>
      </trkpt>
      <trkpt lat="45.61526" lon="5.94175">
        <ele>741.5</ele>
        <time>2025-03-02T11:30:45</time>
      </trkpt>
      <trkpt lat="45.61527" lon="5.94174">
        <ele>742.7</ele>
        <time>2025-03-02T11:30:47</time>
      </trkpt>
      <trkpt lat="45.6153" lon="5.94168">
        <ele>742.7</ele>
        <time>2025-03-02T11:30:54</time>
      </trkpt>
      <trkpt lat="45.61531" lon="5.94167">
        <ele>746.1</ele>
        <time>2025-03-02T11:30:55</time>
      </trkpt>
      <trkpt lat="45.61532" lon="5.94166">
        <ele>746.1</ele>
        <time>2025-03-02T11:30:56</time>
      </trkpt>
      <trkpt lat="45.61533" lon="5.94165">
        <ele>746.1</ele>
        <time>2025-03-02T11:30:58</time>
      </trkpt>
      <trkpt lat="45.61535" lon="5.94161">
        <ele>747.3</ele>
        <time>2025-03-02T11:31:02</time>
      </trkpt>
      <trkpt lat="45.61537" lon="5.9416">
        <ele>747.3</ele>
        <time>2025-03-02T11:31:03</time>
      </trkpt>
      <trkpt lat="45.61538" lon="5.94159">
        <ele>747.3</ele>
        <time>2025-03-02T11:31:05</time>
      </trkpt>
      <trkpt lat="45.61548" lon="5.94156">
        <ele>747.9</ele>
        <time>2025-03-02T11:31:13</time>
      </trkpt>
      <trkpt lat="45.61548" lon="5.94156">
        <ele>747.9</ele>
        <time>2025-03-02T11:31:14</time>
      </trkpt>
      <trkpt lat="45.61554" lon="5.94156">
        <ele>749.3</ele>
        <time>2025-03-02T11:31:20</time>
      </trkpt>
      <trkpt lat="45.61555" lon="5.94156">
        <ele>749.3</ele>
        <time>2025-03-02T11:31:21</time>
      </trkpt>
      <trkpt lat="45.61557" lon="5.94157">
        <ele>749.3</ele>
        <time>2025-03-02T11:31:22</time>
      </trkpt>
      <trkpt lat="45.61558" lon="5.94158">
        <ele>751.2</ele>
        <time>2025-03-02T11:31:24</time>
      </trkpt>
      <trkpt lat="45.61561" lon="5.9416">
        <ele>751.2</ele>
        <time>2025-03-02T11:31:26</time>
      </trkpt>
      <trkpt lat="45.61562" lon="5.94161">
        <ele>751.2</ele>
        <time>2025-03-02T11:31:28</time>
      </trkpt>
      <trkpt lat="45.61567" lon="5.94167">
        <ele>753.2</ele>
        <time>2025-03-02T11:31:36</time>
      </trkpt>
      <trkpt lat="45.61568" lon="5.94168">
        <ele>753.2</ele>
        <time>2025-03-02T11:31:36</time>
      </trkpt>
      <trkpt lat="45.61571" lon="5.94169">
        <ele>755</ele>
        <time>2025-03-02T11:31:41</time>
      </trkpt>
      <trkpt lat="45.61573" lon="5.94169">
        <ele>755</ele>
        <time>2025-03-02T11:31:43</time>
      </trkpt>
      <trkpt lat="45.61573" lon="5.94169">
        <ele>755</ele>
        <time>2025-03-02T11:31:44</time>
      </trkpt>
      <trkpt lat="45.61576" lon="5.94171">
        <ele>755.6</ele>
        <time>2025-03-02T11:31:47</time>
      </trkpt>
      <trkpt lat="45.61583" lon="5.94172">
        <ele>756.4</ele>
        <time>2025-03-02T11:31:53</time>
      </trkpt>
      <trkpt lat="45.61585" lon="5.94172">
        <ele>756.4</ele>
        <time>2025-03-02T11:31:55</time>
      </trkpt>
      <trkpt lat="45.61586" lon="5.94172">
        <ele>756.4</ele>
        <time>2025-03-02T11:31:56</time>
      </trkpt>
      <trkpt lat="45.61587" lon="5.94172">
        <ele>756.8</ele>
        <time>2025-03-02T11:31:58</time>
      </trkpt>
      <trkpt lat="45.61593" lon="5.94171">
        <ele>756.8</ele>
        <time>2025-03-02T11:32:03</time>
      </trkpt>
      <trkpt lat="45.61596" lon="5.94172">
        <ele>757.4</ele>
        <time>2025-03-02T11:32:06</time>
      </trkpt>
      <trkpt lat="45.61597" lon="5.94173">
        <ele>757.4</ele>
        <time>2025-03-02T11:32:08</time>
      </trkpt>
      <trkpt lat="45.61601" lon="5.94175">
        <ele>758.7</ele>
        <time>2025-03-02T11:32:11</time>
      </trkpt>
      <trkpt lat="45.61607" lon="5.94179">
        <ele>758.7</ele>
        <time>2025-03-02T11:32:16</time>
      </trkpt>
      <trkpt lat="45.61613" lon="5.94183">
        <ele>759</ele>
        <time>2025-03-02T11:32:20</time>
      </trkpt>
      <trkpt lat="45.61619" lon="5.94189">
        <ele>760</ele>
        <time>2025-03-02T11:32:27</time>
      </trkpt>
      <trkpt lat="45.6162" lon="5.94191">
        <ele>760</ele>
        <time>2025-03-02T11:32:29</time>
      </trkpt>
      <trkpt lat="45.61622" lon="5.94192">
        <ele>760.2</ele>
        <time>2025-03-02T11:32:30</time>
      </trkpt>
      <trkpt lat="45.61624" lon="5.94193">
        <ele>760.2</ele>
        <time>2025-03-02T11:32:32</time>
      </trkpt>
      <trkpt lat="45.61626" lon="5.94195">
        <ele>759.8</ele>
        <time>2025-03-02T11:32:36</time>
      </trkpt>
      <trkpt lat="45.6163" lon="5.94195">
        <ele>759.8</ele>
        <time>2025-03-02T11:32:39</time>
      </trkpt>
      <trkpt lat="45.61634" lon="5.94197">
        <ele>761</ele>
        <time>2025-03-02T11:32:42</time>
      </trkpt>
      <trkpt lat="45.61639" lon="5.94201">
        <ele>761</ele>
        <time>2025-03-02T11:32:47</time>
      </trkpt>
      <trkpt lat="45.61642" lon="5.94203">
        <ele>760.5</ele>
        <time>2025-03-02T11:32:50</time>
      </trkpt>
      <trkpt lat="45.61645" lon="5.94205">
        <ele>760.5</ele>
        <time>2025-03-02T11:32:53</time>
      </trkpt>
      <trkpt lat="45.61647" lon="5.94205">
        <ele>760.5</ele>
        <time>2025-03-02T11:32:54</time>
      </trkpt>
      <trkpt lat="45.61649" lon="5.94205">
        <ele>760.3</ele>
        <time>2025-03-02T11:32:56</time>
      </trkpt>
      <trkpt lat="45.61651" lon="5.94205">
        <ele>760.3</ele>
        <time>2025-03-02T11:32:57</time>
      </trkpt>
      <trkpt lat="45.61652" lon="5.94205">
        <ele>760.3</ele>
        <time>2025-03-02T11:32:59</time>
      </trkpt>
      <trkpt lat="45.61656" lon="5.94204">
        <ele>760.3</ele>
        <time>2025-03-02T11:33:02</time>
      </trkpt>
      <trkpt lat="45.61659" lon="5.94203">
        <ele>761.1</ele>
        <time>2025-03-02T11:33:05</time>
      </trkpt>
      <trkpt lat="45.61664" lon="5.94201">
        <ele>762.7</ele>
        <time>2025-03-02T11:33:09</time>
      </trkpt>
      <trkpt lat="45.61666" lon="5.94201">
        <ele>762.7</ele>
        <time>2025-03-02T11:33:11</time>
      </trkpt>
      <trkpt lat="45.61667" lon="5.94202">
        <ele>762.7</ele>
        <time>2025-03-02T11:33:13</time>
      </trkpt>
      <trkpt lat="45.61668" lon="5.94202">
        <ele>762.7</ele>
        <time>2025-03-02T11:33:15</time>
      </trkpt>
      <trkpt lat="45.61668" lon="5.94201">
        <ele>762.7</ele>
        <time>2025-03-02T11:33:15</time>
      </trkpt>
      <trkpt lat="45.61671" lon="5.94201">
        <ele>765.2</ele>
        <time>2025-03-02T11:33:18</time>
      </trkpt>
      <trkpt lat="45.61674" lon="5.94201">
        <ele>765.2</ele>
        <time>2025-03-02T11:33:21</time>
      </trkpt>
      <trkpt lat="45.61676" lon="5.94202">
        <ele>766.7</ele>
        <time>2025-03-02T11:33:24</time>
      </trkpt>
      <trkpt lat="45.61677" lon="5.94202">
        <ele>766.7</ele>
        <time>2025-03-02T11:33:25</time>
      </trkpt>
      <trkpt lat="45.61681" lon="5.94201">
        <ele>766.7</ele>
        <time>2025-03-02T11:33:28</time>
      </trkpt>
      <trkpt lat="45.61684" lon="5.94201">
        <ele>767.9</ele>
        <time>2025-03-02T11:33:31</time>
      </trkpt>
      <trkpt lat="45.61687" lon="5.94202">
        <ele>767.9</ele>
        <time>2025-03-02T11:33:34</time>
      </trkpt>
      <trkpt lat="45.61693" lon="5.94207">
        <ele>769.3</ele>
        <time>2025-03-02T11:33:41</time>
      </trkpt>
      <trkpt lat="45.617" lon="5.94217">
        <ele>773.2</ele>
        <time>2025-03-02T11:33:50</time>
      </trkpt>
      <trkpt lat="45.61703" lon="5.94221">
        <ele>773.2</ele>
        <time>2025-03-02T11:33:54</time>
      </trkpt>
      <trkpt lat="45.61709" lon="5.94228">
        <ele>773.7</ele>
        <time>2025-03-02T11:34:03</time>
      </trkpt>
      <trkpt lat="45.6171" lon="5.94228">
        <ele>773.7</ele>
        <time>2025-03-02T11:34:05</time>
      </trkpt>
      <trkpt lat="45.61711" lon="5.94229">
        <ele>773.4</ele>
        <time>2025-03-02T11:34:06</time>
      </trkpt>
      <trkpt lat="45.61712" lon="5.94229">
        <ele>773.4</ele>
        <time>2025-03-02T11:34:07</time>
      </trkpt>
      <trkpt lat="45.61713" lon="5.94229">
        <ele>773.4</ele>
        <time>2025-03-02T11:34:09</time>
      </trkpt>
      <trkpt lat="45.61718" lon="5.94229">
        <ele>773.8</ele>
        <time>2025-03-02T11:34:15</time>
      </trkpt>
      <trkpt lat="45.6172" lon="5.94229">
        <ele>773.8</ele>
        <time>2025-03-02T11:34:18</time>
      </trkpt>
      <trkpt lat="45.61724" lon="5.9423">
        <ele>777</ele>
        <time>2025-03-02T11:34:23</time>
      </trkpt>
      <trkpt lat="45.61728" lon="5.94233">
        <ele>778.3</ele>
        <time>2025-03-02T11:34:28</time>
      </trkpt>
      <trkpt lat="45.6173" lon="5.94235">
        <ele>778.3</ele>
        <time>2025-03-02T11:34:30</time>
      </trkpt>
      <trkpt lat="45.61732" lon="5.94236">
        <ele>778.3</ele>
        <time>2025-03-02T11:34:32</time>
      </trkpt>
      <trkpt lat="45.61733" lon="5.94237">
        <ele>778.3</ele>
        <time>2025-03-02T11:34:33</time>
      </trkpt>
      <trkpt lat="45.61737" lon="5.9424">
        <ele>779</ele>
        <time>2025-03-02T11:34:38</time>
      </trkpt>
      <trkpt lat="45.61738" lon="5.94241">
        <ele>779</ele>
        <time>2025-03-02T11:34:39</time>
      </trkpt>
      <trkpt lat="45.61739" lon="5.94242">
        <ele>779</ele>
        <time>2025-03-02T11:34:41</time>
      </trkpt>
      <trkpt lat="45.6174" lon="5.94245">
        <ele>780.7</ele>
        <time>2025-03-02T11:34:43</time>
      </trkpt>
      <trkpt lat="45.61741" lon="5.94247">
        <ele>780.7</ele>
        <time>2025-03-02T11:34:44</time>
      </trkpt>
      <trkpt lat="45.61743" lon="5.94249">
        <ele>780.7</ele>
        <time>2025-03-02T11:34:47</time>
      </trkpt>
      <trkpt lat="45.61745" lon="5.94252">
        <ele>783.8</ele>
        <time>2025-03-02T11:34:49</time>
      </trkpt>
      <trkpt lat="45.61758" lon="5.94271">
        <ele>784</ele>
        <time>2025-03-02T11:35:04</time>
      </trkpt>
      <trkpt lat="45.6176" lon="5.94274">
        <ele>783.3</ele>
        <time>2025-03-02T11:35:07</time>
      </trkpt>
      <trkpt lat="45.61762" lon="5.94277">
        <ele>783.3</ele>
        <time>2025-03-02T11:35:10</time>
      </trkpt>
      <trkpt lat="45.61764" lon="5.94279">
        <ele>783.3</ele>
        <time>2025-03-02T11:35:13</time>
      </trkpt>
      <trkpt lat="45.61768" lon="5.94281">
        <ele>784.3</ele>
        <time>2025-03-02T11:35:17</time>
      </trkpt>
      <trkpt lat="45.61771" lon="5.94283">
        <ele>784.3</ele>
        <time>2025-03-02T11:35:20</time>
      </trkpt>
      <trkpt lat="45.61771" lon="5.94284">
        <ele>785.7</ele>
        <time>2025-03-02T11:35:20</time>
      </trkpt>
      <trkpt lat="45.61772" lon="5.94287">
        <ele>785.7</ele>
        <time>2025-03-02T11:35:22</time>
      </trkpt>
      <trkpt lat="45.61775" lon="5.94293">
        <ele>786.6</ele>
        <time>2025-03-02T11:35:27</time>
      </trkpt>
      <trkpt lat="45.61776" lon="5.94294">
        <ele>786.6</ele>
        <time>2025-03-02T11:35:28</time>
      </trkpt>
      <trkpt lat="45.61777" lon="5.94296">
        <ele>786.6</ele>
        <time>2025-03-02T11:35:30</time>
      </trkpt>
      <trkpt lat="45.61779" lon="5.94297">
        <ele>786.6</ele>
        <time>2025-03-02T11:35:31</time>
      </trkpt>
      <trkpt lat="45.61781" lon="5.94299">
        <ele>788</ele>
        <time>2025-03-02T11:35:34</time>
      </trkpt>
      <trkpt lat="45.61782" lon="5.94298">
        <ele>788</ele>
        <time>2025-03-02T11:35:35</time>
      </trkpt>
      <trkpt lat="45.61784" lon="5.94297">
        <ele>788</ele>
        <time>2025-03-02T11:35:38</time>
      </trkpt>
      <trkpt lat="45.61787" lon="5.94295">
        <ele>788.5</ele>
        <time>2025-03-02T11:35:43</time>
      </trkpt>
      <trkpt lat="45.61789" lon="5.94294">
        <ele>788.5</ele>
        <time>2025-03-02T11:35:45</time>
      </trkpt>
      <trkpt lat="45.6179" lon="5.94294">
        <ele>788.5</ele>
        <time>2025-03-02T11:35:46</time>
      </trkpt>
      <trkpt lat="45.61791" lon="5.94294">
        <ele>788.5</ele>
        <time>2025-03-02T11:35:47</time>
      </trkpt>
      <trkpt lat="45.61792" lon="5.94295">
        <ele>789.6</ele>
        <time>2025-03-02T11:35:49</time>
      </trkpt>
      <trkpt lat="45.61798" lon="5.94298">
        <ele>790</ele>
        <time>2025-03-02T11:35:55</time>
      </trkpt>
      <trkpt lat="45.61802" lon="5.943">
        <ele>790</ele>
        <time>2025-03-02T11:35:59</time>
      </trkpt>
      <trkpt lat="45.61804" lon="5.94302">
        <ele>790</ele>
        <time>2025-03-02T11:36:01</time>
      </trkpt>
      <trkpt lat="45.61806" lon="5.94304">
        <ele>790</ele>
        <time>2025-03-02T11:36:03</time>
      </trkpt>
      <trkpt lat="45.61818" lon="5.94308">
        <ele>790.7</ele>
        <time>2025-03-02T11:36:14</time>
      </trkpt>
      <trkpt lat="45.61819" lon="5.94308">
        <ele>790.7</ele>
        <time>2025-03-02T11:36:15</time>
      </trkpt>
      <trkpt lat="45.61821" lon="5.94308">
        <ele>790.7</ele>
        <time>2025-03-02T11:36:18</time>
      </trkpt>
      <trkpt lat="45.61825" lon="5.9431">
        <ele>791.7</ele>
        <time>2025-03-02T11:36:23</time>
      </trkpt>
      <trkpt lat="45.61826" lon="5.9431">
        <ele>791.7</ele>
        <time>2025-03-02T11:36:23</time>
      </trkpt>
      <trkpt lat="45.61827" lon="5.9431">
        <ele>791.7</ele>
        <time>2025-03-02T11:36:25</time>
      </trkpt>
      <trkpt lat="45.6183" lon="5.94311">
        <ele>792.5</ele>
        <time>2025-03-02T11:36:27</time>
      </trkpt>
      <trkpt lat="45.61831" lon="5.94311">
        <ele>792.5</ele>
        <time>2025-03-02T11:36:28</time>
      </trkpt>
      <trkpt lat="45.61832" lon="5.9431">
        <ele>792.5</ele>
        <time>2025-03-02T11:36:29</time>
      </trkpt>
      <trkpt lat="45.61836" lon="5.9431">
        <ele>793.3</ele>
        <time>2025-03-02T11:36:35</time>
      </trkpt>
      <trkpt lat="45.61836" lon="5.9431">
        <ele>793.3</ele>
        <time>2025-03-02T11:36:35</time>
      </trkpt>
      <trkpt lat="45.61845" lon="5.94312">
        <ele>795</ele>
        <time>2025-03-02T11:36:44</time>
      </trkpt>
      <trkpt lat="45.61848" lon="5.94312">
        <ele>797.6</ele>
        <time>2025-03-02T11:36:48</time>
      </trkpt>
      <trkpt lat="45.61849" lon="5.94312">
        <ele>797.6</ele>
        <time>2025-03-02T11:36:50</time>
      </trkpt>
      <trkpt lat="45.6185" lon="5.94312">
        <ele>797.6</ele>
        <time>2025-03-02T11:36:52</time>
      </trkpt>
      <trkpt lat="45.61851" lon="5.94312">
        <ele>797.6</ele>
        <time>2025-03-02T11:36:52</time>
      </trkpt>
      <trkpt lat="45.61852" lon="5.94312">
        <ele>797.6</ele>
        <time>2025-03-02T11:36:54</time>
      </trkpt>
      <trkpt lat="45.61853" lon="5.94312">
        <ele>798.1</ele>
        <time>2025-03-02T11:36:56</time>
      </trkpt>
      <trkpt lat="45.61854" lon="5.94312">
        <ele>798.1</ele>
        <time>2025-03-02T11:36:57</time>
      </trkpt>
      <trkpt lat="45.61854" lon="5.94312">
        <ele>798.1</ele>
        <time>2025-03-02T11:36:58</time>
      </trkpt>
      <trkpt lat="45.61857" lon="5.94312">
        <ele>798.1</ele>
        <time>2025-03-02T11:37:01</time>
      </trkpt>
      <trkpt lat="45.61858" lon="5.94312">
        <ele>798.1</ele>
        <time>2025-03-02T11:37:01</time>
      </trkpt>
      <trkpt lat="45.61859" lon="5.94312">
        <ele>800.6</ele>
        <time>2025-03-02T11:37:03</time>
      </trkpt>
      <trkpt lat="45.6186" lon="5.94312">
        <ele>800.6</ele>
        <time>2025-03-02T11:37:03</time>
      </trkpt>
      <trkpt lat="45.61861" lon="5.94313">
        <ele>800.6</ele>
        <time>2025-03-02T11:37:05</time>
      </trkpt>
      <trkpt lat="45.61862" lon="5.94314">
        <ele>800.6</ele>
        <time>2025-03-02T11:37:06</time>
      </trkpt>
      <trkpt lat="45.61864" lon="5.94314">
        <ele>800.6</ele>
        <time>2025-03-02T11:37:08</time>
      </trkpt>
      <trkpt lat="45.61867" lon="5.94314">
        <ele>802.7</ele>
        <time>2025-03-02T11:37:10</time>
      </trkpt>
      <trkpt lat="45.61872" lon="5.94317">
        <ele>803.23334</ele>
        <time>2025-03-02T11:37:17</time>
      </trkpt>
      <trkpt lat="45.61873" lon="5.94317">
        <ele>803.23334</ele>
        <time>2025-03-02T11:37:18</time>
      </trkpt>
      <trkpt lat="45.6188" lon="5.94322">
        <ele>803.5</ele>
        <time>2025-03-02T11:37:24</time>
      </trkpt>
      <trkpt lat="45.61882" lon="5.94323">
        <ele>803.5</ele>
        <time>2025-03-02T11:37:25</time>
      </trkpt>
      <trkpt lat="45.61885" lon="5.94328">
        <ele>803.1</ele>
        <time>2025-03-02T11:37:29</time>
      </trkpt>
      <trkpt lat="45.61887" lon="5.9433">
        <ele>803.1</ele>
        <time>2025-03-02T11:37:31</time>
      </trkpt>
      <trkpt lat="45.6189" lon="5.94334">
        <ele>803.1</ele>
        <time>2025-03-02T11:37:34</time>
      </trkpt>
      <trkpt lat="45.61893" lon="5.94339">
        <ele>803</ele>
        <time>2025-03-02T11:37:38</time>
      </trkpt>
      <trkpt lat="45.61894" lon="5.9434">
        <ele>803</ele>
        <time>2025-03-02T11:37:40</time>
      </trkpt>
      <trkpt lat="45.61896" lon="5.94344">
        <ele>803</ele>
        <time>2025-03-02T11:37:41</time>
      </trkpt>
      <trkpt lat="45.61898" lon="5.94349">
        <ele>802.86664</ele>
        <time>2025-03-02T11:37:44</time>
      </trkpt>
      <trkpt lat="45.619" lon="5.94351">
        <ele>802.86664</ele>
        <time>2025-03-02T11:37:47</time>
      </trkpt>
      <trkpt lat="45.61904" lon="5.94355">
        <ele>801.86664</ele>
        <time>2025-03-02T11:37:53</time>
      </trkpt>
      <trkpt lat="45.61906" lon="5.94356">
        <ele>801.86664</ele>
        <time>2025-03-02T11:37:55</time>
      </trkpt>
      <trkpt lat="45.6191" lon="5.94357">
        <ele>801.8</ele>
        <time>2025-03-02T11:37:58</time>
      </trkpt>
      <trkpt lat="45.61911" lon="5.94356">
        <ele>801.8</ele>
        <time>2025-03-02T11:37:59</time>
      </trkpt>
      <trkpt lat="45.61913" lon="5.94356">
        <ele>801.8</ele>
        <time>2025-03-02T11:38:01</time>
      </trkpt>
      <trkpt lat="45.61914" lon="5.94356">
        <ele>801.8</ele>
        <time>2025-03-02T11:38:01</time>
      </trkpt>
      <trkpt lat="45.61914" lon="5.94356">
        <ele>801.8</ele>
        <time>2025-03-02T11:38:02</time>
      </trkpt>
      <trkpt lat="45.61918" lon="5.94352">
        <ele>801.8</ele>
        <time>2025-03-02T11:38:08</time>
      </trkpt>
      <trkpt lat="45.61918" lon="5.94352">
        <ele>801.8</ele>
        <time>2025-03-02T11:38:09</time>
      </trkpt>
      <trkpt lat="45.61919" lon="5.94351">
        <ele>802.63336</ele>
        <time>2025-03-02T11:38:11</time>
      </trkpt>
      <trkpt lat="45.6192" lon="5.94351">
        <ele>802.63336</ele>
        <time>2025-03-02T11:38:12</time>
      </trkpt>
      <trkpt lat="45.61921" lon="5.94351">
        <ele>802.63336</ele>
        <time>2025-03-02T11:38:13</time>
      </trkpt>
      <trkpt lat="45.61921" lon="5.94351">
        <ele>802.63336</ele>
        <time>2025-03-02T11:38:14</time>
      </trkpt>
      <trkpt lat="45.61922" lon="5.94351">
        <ele>802.63336</ele>
        <time>2025-03-02T11:38:15</time>
      </trkpt>
      <trkpt lat="45.61923" lon="5.94351">
        <ele>802.63336</ele>
        <time>2025-03-02T11:38:16</time>
      </trkpt>
      <trkpt lat="45.61925" lon="5.9435">
        <ele>803.06665</ele>
        <time>2025-03-02T11:38:18</time>
      </trkpt>
      <trkpt lat="45.61926" lon="5.94349">
        <ele>803.06665</ele>
        <time>2025-03-02T11:38:19</time>
      </trkpt>
      <trkpt lat="45.61927" lon="5.94348">
        <ele>803.06665</ele>
        <time>2025-03-02T11:38:21</time>
      </trkpt>
      <trkpt lat="45.61928" lon="5.94348">
        <ele>803.06665</ele>
        <time>2025-03-02T11:38:22</time>
      </trkpt>
      <trkpt lat="45.61929" lon="5.94348">
        <ele>803.06665</ele>
        <time>2025-03-02T11:38:23</time>
      </trkpt>
      <trkpt lat="45.6193" lon="5.94348">
        <ele>803.7</ele>
        <time>2025-03-02T11:38:24</time>
      </trkpt>
      <trkpt lat="45.61933" lon="5.94348">
        <ele>803.7</ele>
        <time>2025-03-02T11:38:26</time>
      </trkpt>
      <trkpt lat="45.61934" lon="5.94347">
        <ele>803.7</ele>
        <time>2025-03-02T11:38:28</time>
      </trkpt>
      <trkpt lat="45.61937" lon="5.94346">
        <ele>807.13336</ele>
        <time>2025-03-02T11:38:31</time>
      </trkpt>
      <trkpt lat="45.61938" lon="5.94346">
        <ele>807.13336</ele>
        <time>2025-03-02T11:38:32</time>
      </trkpt>
      <trkpt lat="45.61939" lon="5.94345">
        <ele>807.13336</ele>
        <time>2025-03-02T11:38:34</time>
      </trkpt>
      <trkpt lat="45.6194" lon="5.94345">
        <ele>807.13336</ele>
        <time>2025-03-02T11:38:34</time>
      </trkpt>
      <trkpt lat="45.61942" lon="5.94346">
        <ele>807.13336</ele>
        <time>2025-03-02T11:38:37</time>
      </trkpt>
      <trkpt lat="45.61942" lon="5.94346">
        <ele>807.13336</ele>
        <time>2025-03-02T11:38:37</time>
      </trkpt>
      <trkpt lat="45.61944" lon="5.94346">
        <ele>808.2</ele>
        <time>2025-03-02T11:38:39</time>
      </trkpt>
      <trkpt lat="45.61945" lon="5.94345">
        <ele>808.2</ele>
        <time>2025-03-02T11:38:41</time>
      </trkpt>
      <trkpt lat="45.61948" lon="5.94344">
        <ele>808.9</ele>
        <time>2025-03-02T11:38:45</time>
      </trkpt>
      <trkpt lat="45.6195" lon="5.94341">
        <ele>808.9</ele>
        <time>2025-03-02T11:38:50</time>
      </trkpt>
      <trkpt lat="45.61956" lon="5.94338">
        <ele>813.1</ele>
        <time>2025-03-02T11:38:57</time>
      </trkpt>
      <trkpt lat="45.61957" lon="5.94338">
        <ele>813.1</ele>
        <time>2025-03-02T11:38:58</time>
      </trkpt>
      <trkpt lat="45.61958" lon="5.94339">
        <ele>815.9</ele>
        <time>2025-03-02T11:38:59</time>
      </trkpt>
      <trkpt lat="45.61968" lon="5.94343">
        <ele>818.7</ele>
        <time>2025-03-02T11:39:07</time>
      </trkpt>
      <trkpt lat="45.61978" lon="5.9435">
        <ele>819.6</ele>
        <time>2025-03-02T11:39:15</time>
      </trkpt>
      <trkpt lat="45.61987" lon="5.94353">
        <ele>822.2</ele>
        <time>2025-03-02T11:39:22</time>
      </trkpt>
      <trkpt lat="45.6199" lon="5.94354">
        <ele>822.2</ele>
        <time>2025-03-02T11:39:25</time>
      </trkpt>
      <trkpt lat="45.61993" lon="5.94355">
        <ele>823.2</ele>
        <time>2025-03-02T11:39:27</time>
      </trkpt>
      <trkpt lat="45.61994" lon="5.94355">
        <ele>823.2</ele>
        <time>2025-03-02T11:39:28</time>
      </trkpt>
      <trkpt lat="45.61995" lon="5.94355">
        <ele>823.2</ele>
        <time>2025-03-02T11:39:29</time>
      </trkpt>
      <trkpt lat="45.61997" lon="5.94355">
        <ele>823.2</ele>
        <time>2025-03-02T11:39:30</time>
      </trkpt>
      <trkpt lat="45.61998" lon="5.94354">
        <ele>823.2</ele>
        <time>2025-03-02T11:39:32</time>
      </trkpt>
      <trkpt lat="45.62" lon="5.94354">
        <ele>822.8</ele>
        <time>2025-03-02T11:39:34</time>
      </trkpt>
      <trkpt lat="45.62001" lon="5.94354">
        <ele>822.8</ele>
        <time>2025-03-02T11:39:35</time>
      </trkpt>
      <trkpt lat="45.62003" lon="5.94354">
        <ele>822.8</ele>
        <time>2025-03-02T11:39:36</time>
      </trkpt>
      <trkpt lat="45.62004" lon="5.94354">
        <ele>822.8</ele>
        <time>2025-03-02T11:39:38</time>
      </trkpt>
      <trkpt lat="45.62008" lon="5.94353">
        <ele>822.8</ele>
        <time>2025-03-02T11:39:42</time>
      </trkpt>
      <trkpt lat="45.6201" lon="5.94351">
        <ele>824.6</ele>
        <time>2025-03-02T11:39:46</time>
      </trkpt>
      <trkpt lat="45.62018" lon="5.9435">
        <ele>826.4</ele>
        <time>2025-03-02T11:39:55</time>
      </trkpt>
      <trkpt lat="45.62019" lon="5.9435">
        <ele>826.4</ele>
        <time>2025-03-02T11:39:56</time>
      </trkpt>
      <trkpt lat="45.62021" lon="5.9435">
        <ele>826.4</ele>
        <time>2025-03-02T11:39:58</time>
      </trkpt>
      <trkpt lat="45.62022" lon="5.9435">
        <ele>826.4</ele>
        <time>2025-03-02T11:39:59</time>
      </trkpt>
      <trkpt lat="45.62022" lon="5.9435">
        <ele>826.4</ele>
        <time>2025-03-02T11:39:59</time>
      </trkpt>
      <trkpt lat="45.62026" lon="5.9435">
        <ele>828.1</ele>
        <time>2025-03-02T11:40:03</time>
      </trkpt>
      <trkpt lat="45.62026" lon="5.9435">
        <ele>828.1</ele>
        <time>2025-03-02T11:40:03</time>
      </trkpt>
      <trkpt lat="45.6203" lon="5.94351">
        <ele>829.3</ele>
        <time>2025-03-02T11:40:07</time>
      </trkpt>
      <trkpt lat="45.62035" lon="5.94355">
        <ele>829.3</ele>
        <time>2025-03-02T11:40:13</time>
      </trkpt>
      <trkpt lat="45.62037" lon="5.94356">
        <ele>829.6</ele>
        <time>2025-03-02T11:40:16</time>
      </trkpt>
      <trkpt lat="45.62037" lon="5.94356">
        <ele>829.6</ele>
        <time>2025-03-02T11:40:17</time>
      </trkpt>
      <trkpt lat="45.62038" lon="5.94356">
        <ele>829.6</ele>
        <time>2025-03-02T11:40:17</time>
      </trkpt>
      <trkpt lat="45.62039" lon="5.94356">
        <ele>829.6</ele>
        <time>2025-03-02T11:40:18</time>
      </trkpt>
      <trkpt lat="45.62041" lon="5.94355">
        <ele>828.9</ele>
        <time>2025-03-02T11:40:21</time>
      </trkpt>
      <trkpt lat="45.62043" lon="5.94356">
        <ele>828.9</ele>
        <time>2025-03-02T11:40:23</time>
      </trkpt>
      <trkpt lat="45.62043" lon="5.94356">
        <ele>828.9</ele>
        <time>2025-03-02T11:40:24</time>
      </trkpt>
      <trkpt lat="45.62044" lon="5.94356">
        <ele>828.9</ele>
        <time>2025-03-02T11:40:25</time>
      </trkpt>
      <trkpt lat="45.62044" lon="5.94357">
        <ele>828.9</ele>
        <time>2025-03-02T11:40:25</time>
      </trkpt>
      <trkpt lat="45.62045" lon="5.94358">
        <ele>828.9</ele>
        <time>2025-03-02T11:40:27</time>
      </trkpt>
      <trkpt lat="45.62047" lon="5.94359">
        <ele>829.9</ele>
        <time>2025-03-02T11:40:28</time>
      </trkpt>
      <trkpt lat="45.62053" lon="5.94369">
        <ele>830.1</ele>
        <time>2025-03-02T11:40:34</time>
      </trkpt>
      <trkpt lat="45.62054" lon="5.94372">
        <ele>830.1</ele>
        <time>2025-03-02T11:40:36</time>
      </trkpt>
      <trkpt lat="45.62056" lon="5.94376">
        <ele>830.1</ele>
        <time>2025-03-02T11:40:38</time>
      </trkpt>
      <trkpt lat="45.62059" lon="5.94381">
        <ele>829.4</ele>
        <time>2025-03-02T11:40:41</time>
      </trkpt>
      <trkpt lat="45.62059" lon="5.94382">
        <ele>829.4</ele>
        <time>2025-03-02T11:40:42</time>
      </trkpt>
      <trkpt lat="45.6206" lon="5.94383">
        <ele>829.4</ele>
        <time>2025-03-02T11:40:43</time>
      </trkpt>
      <trkpt lat="45.62061" lon="5.94383">
        <ele>829.4</ele>
        <time>2025-03-02T11:40:45</time>
      </trkpt>
      <trkpt lat="45.62063" lon="5.94384">
        <ele>829.4</ele>
        <time>2025-03-02T11:40:47</time>
      </trkpt>
      <trkpt lat="45.62064" lon="5.94384">
        <ele>829.4</ele>
        <time>2025-03-02T11:40:49</time>
      </trkpt>
      <trkpt lat="45.62064" lon="5.94384">
        <ele>829.4</ele>
        <time>2025-03-02T11:40:50</time>
      </trkpt>
      <trkpt lat="45.62065" lon="5.94384">
        <ele>829.4</ele>
        <time>2025-03-02T11:40:51</time>
      </trkpt>
      <trkpt lat="45.62066" lon="5.94384">
        <ele>829.4</ele>
        <time>2025-03-02T11:40:53</time>
      </trkpt>
      <trkpt lat="45.62066" lon="5.94384">
        <ele>833.73334</ele>
        <time>2025-03-02T11:40:53</time>
      </trkpt>
      <trkpt lat="45.62067" lon="5.94384">
        <ele>833.73334</ele>
        <time>2025-03-02T11:40:55</time>
      </trkpt>
      <trkpt lat="45.62068" lon="5.94384">
        <ele>833.73334</ele>
        <time>2025-03-02T11:40:56</time>
      </trkpt>
      <trkpt lat="45.62068" lon="5.94384">
        <ele>833.73334</ele>
        <time>2025-03-02T11:40:56</time>
      </trkpt>
      <trkpt lat="45.62072" lon="5.94382">
        <ele>835.1</ele>
        <time>2025-03-02T11:41:01</time>
      </trkpt>
      <trkpt lat="45.62073" lon="5.94382">
        <ele>835.1</ele>
        <time>2025-03-02T11:41:02</time>
      </trkpt>
      <trkpt lat="45.62075" lon="5.94381">
        <ele>835.1</ele>
        <time>2025-03-02T11:41:04</time>
      </trkpt>
      <trkpt lat="45.62076" lon="5.94381">
        <ele>835.1</ele>
        <time>2025-03-02T11:41:06</time>
      </trkpt>
      <trkpt lat="45.62078" lon="5.94381">
        <ele>837.5</ele>
        <time>2025-03-02T11:41:08</time>
      </trkpt>
      <trkpt lat="45.62078" lon="5.94381">
        <ele>837.5</ele>
        <time>2025-03-02T11:41:09</time>
      </trkpt>
      <trkpt lat="45.62079" lon="5.94382">
        <ele>837.5</ele>
        <time>2025-03-02T11:41:10</time>
      </trkpt>
      <trkpt lat="45.62081" lon="5.94383">
        <ele>837.5</ele>
        <time>2025-03-02T11:41:12</time>
      </trkpt>
      <trkpt lat="45.62083" lon="5.94384">
        <ele>838</ele>
        <time>2025-03-02T11:41:14</time>
      </trkpt>
      <trkpt lat="45.62084" lon="5.94384">
        <ele>838</ele>
        <time>2025-03-02T11:41:15</time>
      </trkpt>
      <trkpt lat="45.62094" lon="5.94384">
        <ele>838.4</ele>
        <time>2025-03-02T11:41:24</time>
      </trkpt>
      <trkpt lat="45.62096" lon="5.94384">
        <ele>838.4</ele>
        <time>2025-03-02T11:41:25</time>
      </trkpt>
      <trkpt lat="45.62101" lon="5.94384">
        <ele>838.9</ele>
        <time>2025-03-02T11:41:30</time>
      </trkpt>
      <trkpt lat="45.6211" lon="5.94384">
        <ele>840.2</ele>
        <time>2025-03-02T11:41:37</time>
      </trkpt>
      <trkpt lat="45.62113" lon="5.94385">
        <ele>840.2</ele>
        <time>2025-03-02T11:41:42</time>
      </trkpt>
      <trkpt lat="45.6212" lon="5.94388">
        <ele>841.3</ele>
        <time>2025-03-02T11:41:47</time>
      </trkpt>
      <trkpt lat="45.62123" lon="5.94388">
        <ele>841.3</ele>
        <time>2025-03-02T11:41:50</time>
      </trkpt>
      <trkpt lat="45.62126" lon="5.94389">
        <ele>841.3</ele>
        <time>2025-03-02T11:41:52</time>
      </trkpt>
      <trkpt lat="45.62129" lon="5.9439">
        <ele>842.1</ele>
        <time>2025-03-02T11:41:55</time>
      </trkpt>
      <trkpt lat="45.62137" lon="5.94395">
        <ele>843.3</ele>
        <time>2025-03-02T11:42:05</time>
      </trkpt>
      <trkpt lat="45.62141" lon="5.94397">
        <ele>845.2</ele>
        <time>2025-03-02T11:42:10</time>
      </trkpt>
      <trkpt lat="45.62144" lon="5.94399">
        <ele>845.2</ele>
        <time>2025-03-02T11:42:13</time>
      </trkpt>
      <trkpt lat="45.62149" lon="5.94402">
        <ele>846.6</ele>
        <time>2025-03-02T11:42:20</time>
      </trkpt>
      <trkpt lat="45.6215" lon="5.94402">
        <ele>846.6</ele>
        <time>2025-03-02T11:42:21</time>
      </trkpt>
      <trkpt lat="45.62151" lon="5.94402">
        <ele>846.6</ele>
        <time>2025-03-02T11:42:23</time>
      </trkpt>
      <trkpt lat="45.62151" lon="5.94402">
        <ele>846.6</ele>
        <time>2025-03-02T11:42:23</time>
      </trkpt>
      <trkpt lat="45.62155" lon="5.94401">
        <ele>848.0333</ele>
        <time>2025-03-02T11:42:28</time>
      </trkpt>
      <trkpt lat="45.62156" lon="5.94401">
        <ele>848.0333</ele>
        <time>2025-03-02T11:42:30</time>
      </trkpt>
      <trkpt lat="45.62158" lon="5.94401">
        <ele>848.0333</ele>
        <time>2025-03-02T11:42:31</time>
      </trkpt>
      <trkpt lat="45.62158" lon="5.94401">
        <ele>848.0333</ele>
        <time>2025-03-02T11:42:32</time>
      </trkpt>
      <trkpt lat="45.62163" lon="5.94402">
        <ele>849.1</ele>
        <time>2025-03-02T11:42:36</time>
      </trkpt>
      <trkpt lat="45.62164" lon="5.94402">
        <ele>849.1</ele>
        <time>2025-03-02T11:42:37</time>
      </trkpt>
      <trkpt lat="45.62164" lon="5.94402">
        <ele>849.1</ele>
        <time>2025-03-02T11:42:38</time>
      </trkpt>
      <trkpt lat="45.62165" lon="5.94402">
        <ele>849.1</ele>
        <time>2025-03-02T11:42:38</time>
      </trkpt>
      <trkpt lat="45.62168" lon="5.94402">
        <ele>850.5</ele>
        <time>2025-03-02T11:42:43</time>
      </trkpt>
      <trkpt lat="45.62171" lon="5.94402">
        <ele>850.5</ele>
        <time>2025-03-02T11:42:47</time>
      </trkpt>
      <trkpt lat="45.62172" lon="5.94402">
        <ele>850.5</ele>
        <time>2025-03-02T11:42:48</time>
      </trkpt>
      <trkpt lat="45.62173" lon="5.94402">
        <ele>851.3</ele>
        <time>2025-03-02T11:42:49</time>
      </trkpt>
      <trkpt lat="45.62174" lon="5.94402">
        <ele>851.3</ele>
        <time>2025-03-02T11:42:50</time>
      </trkpt>
      <trkpt lat="45.62174" lon="5.94402">
        <ele>851.3</ele>
        <time>2025-03-02T11:42:51</time>
      </trkpt>
      <trkpt lat="45.62177" lon="5.94403">
        <ele>851.3</ele>
        <time>2025-03-02T11:42:54</time>
      </trkpt>
      <trkpt lat="45.62195" lon="5.94407">
        <ele>853.3333</ele>
        <time>2025-03-02T11:43:15</time>
      </trkpt>
      <trkpt lat="45.62197" lon="5.94407">
        <ele>854.7</ele>
        <time>2025-03-02T11:43:16</time>
      </trkpt>
      <trkpt lat="45.62198" lon="5.94408">
        <ele>854.7</ele>
        <time>2025-03-02T11:43:18</time>
      </trkpt>
      <trkpt lat="45.62206" lon="5.94412">
        <ele>855.6</ele>
        <time>2025-03-02T11:43:27</time>
      </trkpt>
      <trkpt lat="45.62211" lon="5.94413">
        <ele>857.7</ele>
        <time>2025-03-02T11:43:30</time>
      </trkpt>
      <trkpt lat="45.62212" lon="5.94414">
        <ele>857.7</ele>
        <time>2025-03-02T11:43:32</time>
      </trkpt>
      <trkpt lat="45.62216" lon="5.94417">
        <ele>857.7</ele>
        <time>2025-03-02T11:43:36</time>
      </trkpt>
      <trkpt lat="45.6222" lon="5.94419">
        <ele>857.8</ele>
        <time>2025-03-02T11:43:39</time>
      </trkpt>
      <trkpt lat="45.62222" lon="5.9442">
        <ele>857.8</ele>
        <time>2025-03-02T11:43:41</time>
      </trkpt>
      <trkpt lat="45.62224" lon="5.9442">
        <ele>857.8</ele>
        <time>2025-03-02T11:43:42</time>
      </trkpt>
      <trkpt lat="45.62225" lon="5.94421">
        <ele>857.8</ele>
        <time>2025-03-02T11:43:43</time>
      </trkpt>
      <trkpt lat="45.62226" lon="5.94422">
        <ele>857.93335</ele>
        <time>2025-03-02T11:43:45</time>
      </trkpt>
      <trkpt lat="45.62229" lon="5.94424">
        <ele>857.93335</ele>
        <time>2025-03-02T11:43:48</time>
      </trkpt>
      <trkpt lat="45.62231" lon="5.94425">
        <ele>857.93335</ele>
        <time>2025-03-02T11:43:50</time>
      </trkpt>
      <trkpt lat="45.62233" lon="5.94426">
        <ele>857.8</ele>
        <time>2025-03-02T11:43:52</time>
      </trkpt>
      <trkpt lat="45.62233" lon="5.94426">
        <ele>857.8</ele>
        <time>2025-03-02T11:43:52</time>
      </trkpt>
      <trkpt lat="45.62235" lon="5.94428">
        <ele>857.8</ele>
        <time>2025-03-02T11:43:54</time>
      </trkpt>
      <trkpt lat="45.62236" lon="5.94429">
        <ele>857.8</ele>
        <time>2025-03-02T11:43:55</time>
      </trkpt>
      <trkpt lat="45.62236" lon="5.94429">
        <ele>857.8</ele>
        <time>2025-03-02T11:43:55</time>
      </trkpt>
      <trkpt lat="45.62246" lon="5.94431">
        <ele>858.2</ele>
        <time>2025-03-02T11:44:03</time>
      </trkpt>
      <trkpt lat="45.62247" lon="5.94432">
        <ele>857.6</ele>
        <time>2025-03-02T11:44:04</time>
      </trkpt>
      <trkpt lat="45.62249" lon="5.94432">
        <ele>857.6</ele>
        <time>2025-03-02T11:44:06</time>
      </trkpt>
      <trkpt lat="45.62269" lon="5.9443">
        <ele>859.9</ele>
        <time>2025-03-02T11:44:25</time>
      </trkpt>
      <trkpt lat="45.62274" lon="5.94429">
        <ele>860.9</ele>
        <time>2025-03-02T11:44:30</time>
      </trkpt>
      <trkpt lat="45.62279" lon="5.9443">
        <ele>860.9</ele>
        <time>2025-03-02T11:44:35</time>
      </trkpt>
      <trkpt lat="45.6228" lon="5.9443">
        <ele>861.9</ele>
        <time>2025-03-02T11:44:36</time>
      </trkpt>
      <trkpt lat="45.62283" lon="5.94432">
        <ele>861.9</ele>
        <time>2025-03-02T11:44:38</time>
      </trkpt>
      <trkpt lat="45.62284" lon="5.94434">
        <ele>861.9</ele>
        <time>2025-03-02T11:44:39</time>
      </trkpt>
      <trkpt lat="45.62286" lon="5.94438">
        <ele>861.9</ele>
        <time>2025-03-02T11:44:42</time>
      </trkpt>
      <trkpt lat="45.62296" lon="5.94454">
        <ele>861.5</ele>
        <time>2025-03-02T11:44:52</time>
      </trkpt>
      <trkpt lat="45.62297" lon="5.94456">
        <ele>861.5</ele>
        <time>2025-03-02T11:44:54</time>
      </trkpt>
      <trkpt lat="45.62299" lon="5.94457">
        <ele>862</ele>
        <time>2025-03-02T11:44:56</time>
      </trkpt>
      <trkpt lat="45.62304" lon="5.94461">
        <ele>861.9</ele>
        <time>2025-03-02T11:45:01</time>
      </trkpt>
      <trkpt lat="45.62309" lon="5.94464">
        <ele>863.8</ele>
        <time>2025-03-02T11:45:08</time>
      </trkpt>
      <trkpt lat="45.6231" lon="5.94464">
        <ele>863.8</ele>
        <time>2025-03-02T11:45:10</time>
      </trkpt>
      <trkpt lat="45.62311" lon="5.94465">
        <ele>863.8</ele>
        <time>2025-03-02T11:45:11</time>
      </trkpt>
      <trkpt lat="45.62312" lon="5.94465">
        <ele>863.8</ele>
        <time>2025-03-02T11:45:12</time>
      </trkpt>
      <trkpt lat="45.62314" lon="5.94466">
        <ele>863.8</ele>
        <time>2025-03-02T11:45:15</time>
      </trkpt>
      <trkpt lat="45.62315" lon="5.94466">
        <ele>863.8</ele>
        <time>2025-03-02T11:45:16</time>
      </trkpt>
      <trkpt lat="45.62315" lon="5.94468">
        <ele>863.73334</ele>
        <time>2025-03-02T11:45:25</time>
      </trkpt>
      <trkpt lat="45.62315" lon="5.94468">
        <ele>865.2</ele>
        <time>2025-03-02T11:45:32</time>
      </trkpt>
      <trkpt lat="45.62315" lon="5.94471">
        <ele>865.13336</ele>
        <time>2025-03-02T11:45:37</time>
      </trkpt>
      <trkpt lat="45.62315" lon="5.94471">
        <ele>865.13336</ele>
        <time>2025-03-02T11:45:38</time>
      </trkpt>
      <trkpt lat="45.62315" lon="5.94472">
        <ele>865.13336</ele>
        <time>2025-03-02T11:45:39</time>
      </trkpt>
      <trkpt lat="45.62314" lon="5.94473">
        <ele>865.13336</ele>
        <time>2025-03-02T11:45:40</time>
      </trkpt>
      <trkpt lat="45.62314" lon="5.94474">
        <ele>865.13336</ele>
        <time>2025-03-02T11:45:42</time>
      </trkpt>
      <trkpt lat="45.62313" lon="5.94474">
        <ele>865.1</ele>
        <time>2025-03-02T11:45:59</time>
      </trkpt>
      <trkpt lat="45.62312" lon="5.94474">
        <ele>865.2</ele>
        <time>2025-03-02T11:46:22</time>
      </trkpt>
      <trkpt lat="45.62313" lon="5.94474">
        <ele>865.2</ele>
        <time>2025-03-02T11:46:23</time>
      </trkpt>
      <trkpt lat="45.62313" lon="5.94473">
        <ele>865.2</ele>
        <time>2025-03-02T11:46:24</time>
      </trkpt>
      <trkpt lat="45.62313" lon="5.94473">
        <ele>865.2</ele>
        <time>2025-03-02T11:46:25</time>
      </trkpt>
      <trkpt lat="45.62314" lon="5.94472">
        <ele>865.2</ele>
        <time>2025-03-02T11:46:25</time>
      </trkpt>
      <trkpt lat="45.62314" lon="5.9447">
        <ele>865.2</ele>
        <time>2025-03-02T11:46:33</time>
      </trkpt>
      <trkpt lat="45.62314" lon="5.94469">
        <ele>863.6</ele>
        <time>2025-03-02T11:46:36</time>
      </trkpt>
      <trkpt lat="45.62314" lon="5.94469">
        <ele>863.6</ele>
        <time>2025-03-02T11:46:37</time>
      </trkpt>
      <trkpt lat="45.62314" lon="5.94469">
        <ele>863.6</ele>
        <time>2025-03-02T11:46:37</time>
      </trkpt>
      <trkpt lat="45.62314" lon="5.94468">
        <ele>863.6</ele>
        <time>2025-03-02T11:46:38</time>
      </trkpt>
      <trkpt lat="45.62316" lon="5.94467">
        <ele>863.6</ele>
        <time>2025-03-02T11:46:40</time>
      </trkpt>
      <trkpt lat="45.62318" lon="5.94467">
        <ele>863.6</ele>
        <time>2025-03-02T11:46:41</time>
      </trkpt>
      <trkpt lat="45.62324" lon="5.94469">
        <ele>862.1</ele>
        <time>2025-03-02T11:46:46</time>
      </trkpt>
      <trkpt lat="45.62326" lon="5.9447">
        <ele>862.1</ele>
        <time>2025-03-02T11:46:48</time>
      </trkpt>
      <trkpt lat="45.62329" lon="5.94471">
        <ele>862.1</ele>
        <time>2025-03-02T11:46:50</time>
      </trkpt>
      <trkpt lat="45.62331" lon="5.94473">
        <ele>863.5</ele>
        <time>2025-03-02T11:46:53</time>
      </trkpt>
      <trkpt lat="45.62335" lon="5.9448">
        <ele>863.5</ele>
        <time>2025-03-02T11:46:57</time>
      </trkpt>
      <trkpt lat="45.62336" lon="5.94483">
        <ele>863.5</ele>
        <time>2025-03-02T11:46:59</time>
      </trkpt>
      <trkpt lat="45.62337" lon="5.94484">
        <ele>864.5</ele>
        <time>2025-03-02T11:47:00</time>
      </trkpt>
      <trkpt lat="45.62337" lon="5.94484">
        <ele>864.5</ele>
        <time>2025-03-02T11:47:01</time>
      </trkpt>
      <trkpt lat="45.62338" lon="5.94484">
        <ele>864.5</ele>
        <time>2025-03-02T11:47:02</time>
      </trkpt>
      <trkpt lat="45.62339" lon="5.94484">
        <ele>864.5</ele>
        <time>2025-03-02T11:47:02</time>
      </trkpt>
      <trkpt lat="45.6234" lon="5.94483">
        <ele>864.5</ele>
        <time>2025-03-02T11:47:03</time>
      </trkpt>
      <trkpt lat="45.62342" lon="5.94482">
        <ele>864.5</ele>
        <time>2025-03-02T11:47:05</time>
      </trkpt>
      <trkpt lat="45.62344" lon="5.94482">
        <ele>864.8</ele>
        <time>2025-03-02T11:47:08</time>
      </trkpt>
      <trkpt lat="45.62346" lon="5.94482">
        <ele>864.8</ele>
        <time>2025-03-02T11:47:10</time>
      </trkpt>
      <trkpt lat="45.62347" lon="5.94482">
        <ele>864.8</ele>
        <time>2025-03-02T11:47:10</time>
      </trkpt>
      <trkpt lat="45.62348" lon="5.94482">
        <ele>864.8</ele>
        <time>2025-03-02T11:47:11</time>
      </trkpt>
      <trkpt lat="45.62348" lon="5.94482">
        <ele>864.8</ele>
        <time>2025-03-02T11:47:11</time>
      </trkpt>
      <trkpt lat="45.62349" lon="5.94482">
        <ele>865.86664</ele>
        <time>2025-03-02T11:47:13</time>
      </trkpt>
      <trkpt lat="45.62349" lon="5.94482">
        <ele>865.86664</ele>
        <time>2025-03-02T11:47:13</time>
      </trkpt>
      <trkpt lat="45.62349" lon="5.94483">
        <ele>865.86664</ele>
        <time>2025-03-02T11:47:14</time>
      </trkpt>
      <trkpt lat="45.6235" lon="5.94483">
        <ele>865.86664</ele>
        <time>2025-03-02T11:47:15</time>
      </trkpt>
      <trkpt lat="45.62352" lon="5.94484">
        <ele>865.86664</ele>
        <time>2025-03-02T11:47:17</time>
      </trkpt>
      <trkpt lat="45.62353" lon="5.94484">
        <ele>865.86664</ele>
        <time>2025-03-02T11:47:18</time>
      </trkpt>
      <trkpt lat="45.62355" lon="5.94485">
        <ele>866</ele>
        <time>2025-03-02T11:47:20</time>
      </trkpt>
      <trkpt lat="45.62356" lon="5.94485">
        <ele>866</ele>
        <time>2025-03-02T11:47:21</time>
      </trkpt>
      <trkpt lat="45.62357" lon="5.94486">
        <ele>866</ele>
        <time>2025-03-02T11:47:22</time>
      </trkpt>
      <trkpt lat="45.62358" lon="5.94487">
        <ele>866</ele>
        <time>2025-03-02T11:47:23</time>
      </trkpt>
      <trkpt lat="45.62359" lon="5.94488">
        <ele>866</ele>
        <time>2025-03-02T11:47:24</time>
      </trkpt>
      <trkpt lat="45.6236" lon="5.9449">
        <ele>866</ele>
        <time>2025-03-02T11:47:26</time>
      </trkpt>
      <trkpt lat="45.6236" lon="5.94491">
        <ele>866.6</ele>
        <time>2025-03-02T11:47:27</time>
      </trkpt>
      <trkpt lat="45.62361" lon="5.94492">
        <ele>866.6</ele>
        <time>2025-03-02T11:47:27</time>
      </trkpt>
      <trkpt lat="45.62361" lon="5.94493">
        <ele>866.6</ele>
        <time>2025-03-02T11:47:28</time>
      </trkpt>
      <trkpt lat="45.62362" lon="5.94493">
        <ele>866.6</ele>
        <time>2025-03-02T11:47:29</time>
      </trkpt>
      <trkpt lat="45.62363" lon="5.94494">
        <ele>866.6</ele>
        <time>2025-03-02T11:47:31</time>
      </trkpt>
      <trkpt lat="45.62365" lon="5.94494">
        <ele>866.6</ele>
        <time>2025-03-02T11:47:32</time>
      </trkpt>
      <trkpt lat="45.62367" lon="5.94494">
        <ele>868.1</ele>
        <time>2025-03-02T11:47:34</time>
      </trkpt>
      <trkpt lat="45.62368" lon="5.94494">
        <ele>868.1</ele>
        <time>2025-03-02T11:47:36</time>
      </trkpt>
      <trkpt lat="45.62371" lon="5.94495">
        <ele>868.1</ele>
        <time>2025-03-02T11:47:38</time>
      </trkpt>
      <trkpt lat="45.62371" lon="5.94495">
        <ele>868.1</ele>
        <time>2025-03-02T11:47:38</time>
      </trkpt>
      <trkpt lat="45.62372" lon="5.94495">
        <ele>868.1</ele>
        <time>2025-03-02T11:47:39</time>
      </trkpt>
      <trkpt lat="45.62372" lon="5.94495">
        <ele>868.1</ele>
        <time>2025-03-02T11:47:39</time>
      </trkpt>
      <trkpt lat="45.62373" lon="5.94494">
        <ele>869.6</ele>
        <time>2025-03-02T11:47:40</time>
      </trkpt>
      <trkpt lat="45.62374" lon="5.94494">
        <ele>869.6</ele>
        <time>2025-03-02T11:47:41</time>
      </trkpt>
      <trkpt lat="45.62375" lon="5.94495">
        <ele>869.6</ele>
        <time>2025-03-02T11:47:42</time>
      </trkpt>
      <trkpt lat="45.62376" lon="5.94496">
        <ele>869.6</ele>
        <time>2025-03-02T11:47:43</time>
      </trkpt>
      <trkpt lat="45.62377" lon="5.94497">
        <ele>869.6</ele>
        <time>2025-03-02T11:47:44</time>
      </trkpt>
      <trkpt lat="45.62379" lon="5.94499">
        <ele>869.6</ele>
        <time>2025-03-02T11:47:47</time>
      </trkpt>
      <trkpt lat="45.62381" lon="5.945">
        <ele>869.6</ele>
        <time>2025-03-02T11:47:48</time>
      </trkpt>
      <trkpt lat="45.62384" lon="5.94503">
        <ele>866.56665</ele>
        <time>2025-03-02T11:47:51</time>
      </trkpt>
      <trkpt lat="45.62385" lon="5.94504">
        <ele>866.56665</ele>
        <time>2025-03-02T11:47:52</time>
      </trkpt>
      <trkpt lat="45.62387" lon="5.94504">
        <ele>866.56665</ele>
        <time>2025-03-02T11:47:53</time>
      </trkpt>
      <trkpt lat="45.62389" lon="5.94504">
        <ele>865.7</ele>
        <time>2025-03-02T11:47:55</time>
      </trkpt>
      <trkpt lat="45.62398" lon="5.94503">
        <ele>866.7</ele>
        <time>2025-03-02T11:48:03</time>
      </trkpt>
      <trkpt lat="45.62401" lon="5.94503">
        <ele>866.7</ele>
        <time>2025-03-02T11:48:06</time>
      </trkpt>
      <trkpt lat="45.62403" lon="5.94503">
        <ele>866.7</ele>
        <time>2025-03-02T11:48:07</time>
      </trkpt>
      <trkpt lat="45.62404" lon="5.94503">
        <ele>867.8</ele>
        <time>2025-03-02T11:48:09</time>
      </trkpt>
      <trkpt lat="45.62405" lon="5.94504">
        <ele>867.8</ele>
        <time>2025-03-02T11:48:09</time>
      </trkpt>
      <trkpt lat="45.62406" lon="5.94504">
        <ele>867.8</ele>
        <time>2025-03-02T11:48:10</time>
      </trkpt>
      <trkpt lat="45.62406" lon="5.94505">
        <ele>867.8</ele>
        <time>2025-03-02T11:48:10</time>
      </trkpt>
      <trkpt lat="45.62406" lon="5.94505">
        <ele>867.8</ele>
        <time>2025-03-02T11:48:11</time>
      </trkpt>
      <trkpt lat="45.62409" lon="5.94508">
        <ele>870.3</ele>
        <time>2025-03-02T11:48:14</time>
      </trkpt>
      <trkpt lat="45.62417" lon="5.94517">
        <ele>870.5</ele>
        <time>2025-03-02T11:48:22</time>
      </trkpt>
      <trkpt lat="45.62419" lon="5.94522">
        <ele>870.5</ele>
        <time>2025-03-02T11:48:27</time>
      </trkpt>
      <trkpt lat="45.6242" lon="5.94524">
        <ele>870</ele>
        <time>2025-03-02T11:48:29</time>
      </trkpt>
      <trkpt lat="45.62422" lon="5.94527">
        <ele>870</ele>
        <time>2025-03-02T11:48:32</time>
      </trkpt>
      <trkpt lat="45.62422" lon="5.94528">
        <ele>870</ele>
        <time>2025-03-02T11:48:32</time>
      </trkpt>
      <trkpt lat="45.62424" lon="5.94528">
        <ele>870</ele>
        <time>2025-03-02T11:48:33</time>
      </trkpt>
      <trkpt lat="45.62425" lon="5.94528">
        <ele>869.7</ele>
        <time>2025-03-02T11:48:35</time>
      </trkpt>
      <trkpt lat="45.62426" lon="5.94528">
        <ele>869.7</ele>
        <time>2025-03-02T11:48:36</time>
      </trkpt>
      <trkpt lat="45.62427" lon="5.94527">
        <ele>869.7</ele>
        <time>2025-03-02T11:48:37</time>
      </trkpt>
      <trkpt lat="45.62429" lon="5.94527">
        <ele>869.7</ele>
        <time>2025-03-02T11:48:39</time>
      </trkpt>
      <trkpt lat="45.62433" lon="5.94528">
        <ele>868.7</ele>
        <time>2025-03-02T11:48:43</time>
      </trkpt>
      <trkpt lat="45.62434" lon="5.94528">
        <ele>868.7</ele>
        <time>2025-03-02T11:48:44</time>
      </trkpt>
      <trkpt lat="45.62439" lon="5.94526">
        <ele>869.4</ele>
        <time>2025-03-02T11:48:49</time>
      </trkpt>
      <trkpt lat="45.62448" lon="5.9452">
        <ele>874.5</ele>
        <time>2025-03-02T11:48:59</time>
      </trkpt>
      <trkpt lat="45.62453" lon="5.9452">
        <ele>875</ele>
        <time>2025-03-02T11:49:05</time>
      </trkpt>
      <trkpt lat="45.62455" lon="5.94521">
        <ele>875</ele>
        <time>2025-03-02T11:49:07</time>
      </trkpt>
      <trkpt lat="45.62457" lon="5.94522">
        <ele>878</ele>
        <time>2025-03-02T11:49:09</time>
      </trkpt>
      <trkpt lat="45.62459" lon="5.94522">
        <ele>878</ele>
        <time>2025-03-02T11:49:11</time>
      </trkpt>
      <trkpt lat="45.6246" lon="5.94522">
        <ele>878</ele>
        <time>2025-03-02T11:49:12</time>
      </trkpt>
      <trkpt lat="45.6246" lon="5.94523">
        <ele>878</ele>
        <time>2025-03-02T11:49:13</time>
      </trkpt>
      <trkpt lat="45.62463" lon="5.94524">
        <ele>878.9</ele>
        <time>2025-03-02T11:49:15</time>
      </trkpt>
      <trkpt lat="45.62467" lon="5.94525">
        <ele>878.9</ele>
        <time>2025-03-02T11:49:19</time>
      </trkpt>
      <trkpt lat="45.62469" lon="5.94525">
        <ele>879.5</ele>
        <time>2025-03-02T11:49:21</time>
      </trkpt>
      <trkpt lat="45.62471" lon="5.94525">
        <ele>879.5</ele>
        <time>2025-03-02T11:49:23</time>
      </trkpt>
      <trkpt lat="45.62475" lon="5.94526">
        <ele>880.5</ele>
        <time>2025-03-02T11:49:28</time>
      </trkpt>
      <trkpt lat="45.6248" lon="5.94525">
        <ele>880.5</ele>
        <time>2025-03-02T11:49:32</time>
      </trkpt>
      <trkpt lat="45.62481" lon="5.94525">
        <ele>880.5</ele>
        <time>2025-03-02T11:49:33</time>
      </trkpt>
      <trkpt lat="45.62484" lon="5.94526">
        <ele>879.9</ele>
        <time>2025-03-02T11:49:36</time>
      </trkpt>
      <trkpt lat="45.62507" lon="5.94533">
        <ele>882.3</ele>
        <time>2025-03-02T11:49:57</time>
      </trkpt>
      <trkpt lat="45.62514" lon="5.94535">
        <ele>882.5</ele>
        <time>2025-03-02T11:50:02</time>
      </trkpt>
      <trkpt lat="45.62522" lon="5.94539">
        <ele>883</ele>
        <time>2025-03-02T11:50:10</time>
      </trkpt>
      <trkpt lat="45.62524" lon="5.94541">
        <ele>883</ele>
        <time>2025-03-02T11:50:13</time>
      </trkpt>
      <trkpt lat="45.62525" lon="5.94543">
        <ele>883</ele>
        <time>2025-03-02T11:50:14</time>
      </trkpt>
      <trkpt lat="45.62533" lon="5.94553">
        <ele>884.76666</ele>
        <time>2025-03-02T11:50:22</time>
      </trkpt>
      <trkpt lat="45.62538" lon="5.94563">
        <ele>886.4</ele>
        <time>2025-03-02T11:50:31</time>
      </trkpt>
      <trkpt lat="45.62539" lon="5.94563">
        <ele>886.4</ele>
        <time>2025-03-02T11:50:31</time>
      </trkpt>
      <trkpt lat="45.62543" lon="5.94564">
        <ele>886.4</ele>
        <time>2025-03-02T11:50:36</time>
      </trkpt>
      <trkpt lat="45.62546" lon="5.94565">
        <ele>887.5</ele>
        <time>2025-03-02T11:50:39</time>
      </trkpt>
      <trkpt lat="45.6255" lon="5.94567">
        <ele>888.4</ele>
        <time>2025-03-02T11:50:44</time>
      </trkpt>
      <trkpt lat="45.62554" lon="5.94568">
        <ele>888.4</ele>
        <time>2025-03-02T11:50:46</time>
      </trkpt>
      <trkpt lat="45.62554" lon="5.94569">
        <ele>888.4</ele>
        <time>2025-03-02T11:50:47</time>
      </trkpt>
      <trkpt lat="45.62556" lon="5.9457">
        <ele>888.4</ele>
        <time>2025-03-02T11:50:48</time>
      </trkpt>
      <trkpt lat="45.62558" lon="5.94573">
        <ele>889.2</ele>
        <time>2025-03-02T11:50:50</time>
      </trkpt>
      <trkpt lat="45.62565" lon="5.94582">
        <ele>889.6</ele>
        <time>2025-03-02T11:50:57</time>
      </trkpt>
      <trkpt lat="45.62567" lon="5.94586">
        <ele>889.6</ele>
        <time>2025-03-02T11:51:01</time>
      </trkpt>
      <trkpt lat="45.62568" lon="5.94587">
        <ele>889.6</ele>
        <time>2025-03-02T11:51:02</time>
      </trkpt>
      <trkpt lat="45.62572" lon="5.94594">
        <ele>890.2</ele>
        <time>2025-03-02T11:51:08</time>
      </trkpt>
      <trkpt lat="45.62574" lon="5.94596">
        <ele>891.2</ele>
        <time>2025-03-02T11:51:10</time>
      </trkpt>
      <trkpt lat="45.62577" lon="5.94596">
        <ele>891.2</ele>
        <time>2025-03-02T11:51:12</time>
      </trkpt>
      <trkpt lat="45.6258" lon="5.94597">
        <ele>891.7</ele>
        <time>2025-03-02T11:51:16</time>
      </trkpt>
      <trkpt lat="45.62582" lon="5.94597">
        <ele>891.7</ele>
        <time>2025-03-02T11:51:17</time>
      </trkpt>
      <trkpt lat="45.62585" lon="5.94598">
        <ele>891.7</ele>
        <time>2025-03-02T11:51:19</time>
      </trkpt>
      <trkpt lat="45.62589" lon="5.94599">
        <ele>893.1</ele>
        <time>2025-03-02T11:51:24</time>
      </trkpt>
      <trkpt lat="45.62597" lon="5.94603">
        <ele>894.5333</ele>
        <time>2025-03-02T11:51:32</time>
      </trkpt>
      <trkpt lat="45.62601" lon="5.94606">
        <ele>895.5</ele>
        <time>2025-03-02T11:51:37</time>
      </trkpt>
      <trkpt lat="45.62607" lon="5.94611">
        <ele>896.4</ele>
        <time>2025-03-02T11:51:43</time>
      </trkpt>
      <trkpt lat="45.62609" lon="5.94615">
        <ele>896.4</ele>
        <time>2025-03-02T11:51:46</time>
      </trkpt>
      <trkpt lat="45.62615" lon="5.9462">
        <ele>897.4</ele>
        <time>2025-03-02T11:51:52</time>
      </trkpt>
      <trkpt lat="45.6262" lon="5.94622">
        <ele>898.6</ele>
        <time>2025-03-02T11:51:57</time>
      </trkpt>
      <trkpt lat="45.62621" lon="5.94622">
        <ele>898.6</ele>
        <time>2025-03-02T11:51:59</time>
      </trkpt>
      <trkpt lat="45.62623" lon="5.94622">
        <ele>899.4</ele>
        <time>2025-03-02T11:52:02</time>
      </trkpt>
      <trkpt lat="45.62625" lon="5.94622">
        <ele>899.4</ele>
        <time>2025-03-02T11:52:04</time>
      </trkpt>
      <trkpt lat="45.62626" lon="5.94622">
        <ele>899.4</ele>
        <time>2025-03-02T11:52:04</time>
      </trkpt>
      <trkpt lat="45.62631" lon="5.94625">
        <ele>899.73334</ele>
        <time>2025-03-02T11:52:10</time>
      </trkpt>
      <trkpt lat="45.62632" lon="5.94626">
        <ele>899.73334</ele>
        <time>2025-03-02T11:52:12</time>
      </trkpt>
      <trkpt lat="45.62634" lon="5.94626">
        <ele>899.73334</ele>
        <time>2025-03-02T11:52:14</time>
      </trkpt>
      <trkpt lat="45.62635" lon="5.94626">
        <ele>899.73334</ele>
        <time>2025-03-02T11:52:14</time>
      </trkpt>
      <trkpt lat="45.62637" lon="5.94626">
        <ele>900.9</ele>
        <time>2025-03-02T11:52:17</time>
      </trkpt>
      <trkpt lat="45.62637" lon="5.94626">
        <ele>900.9</ele>
        <time>2025-03-02T11:52:17</time>
      </trkpt>
      <trkpt lat="45.62638" lon="5.94627">
        <ele>900.9</ele>
        <time>2025-03-02T11:52:18</time>
      </trkpt>
      <trkpt lat="45.6264" lon="5.94628">
        <ele>900.9</ele>
        <time>2025-03-02T11:52:22</time>
      </trkpt>
      <trkpt lat="45.62641" lon="5.94629">
        <ele>900.9</ele>
        <time>2025-03-02T11:52:23</time>
      </trkpt>
      <trkpt lat="45.62642" lon="5.9463">
        <ele>902.13336</ele>
        <time>2025-03-02T11:52:25</time>
      </trkpt>
      <trkpt lat="45.62644" lon="5.94631">
        <ele>902.13336</ele>
        <time>2025-03-02T11:52:27</time>
      </trkpt>
      <trkpt lat="45.62649" lon="5.94631">
        <ele>902.5333</ele>
        <time>2025-03-02T11:52:32</time>
      </trkpt>
      <trkpt lat="45.62649" lon="5.94631">
        <ele>902.5333</ele>
        <time>2025-03-02T11:52:33</time>
      </trkpt>
      <trkpt lat="45.6265" lon="5.9463">
        <ele>902.5333</ele>
        <time>2025-03-02T11:52:34</time>
      </trkpt>
      <trkpt lat="45.6265" lon="5.94631">
        <ele>902.5333</ele>
        <time>2025-03-02T11:52:34</time>
      </trkpt>
      <trkpt lat="45.62652" lon="5.94631">
        <ele>902.5333</ele>
        <time>2025-03-02T11:52:36</time>
      </trkpt>
      <trkpt lat="45.62653" lon="5.94632">
        <ele>902.5333</ele>
        <time>2025-03-02T11:52:37</time>
      </trkpt>
      <trkpt lat="45.62654" lon="5.94632">
        <ele>903.7</ele>
        <time>2025-03-02T11:52:39</time>
      </trkpt>
      <trkpt lat="45.62655" lon="5.94632">
        <ele>903.7</ele>
        <time>2025-03-02T11:52:40</time>
      </trkpt>
      <trkpt lat="45.62655" lon="5.94632">
        <ele>903.7</ele>
        <time>2025-03-02T11:52:40</time>
      </trkpt>
      <trkpt lat="45.62655" lon="5.94632">
        <ele>903.7</ele>
        <time>2025-03-02T11:52:41</time>
      </trkpt>
      <trkpt lat="45.62655" lon="5.94632">
        <ele>903.7</ele>
        <time>2025-03-02T11:52:43</time>
      </trkpt>
      <trkpt lat="45.62655" lon="5.94632">
        <ele>903.7</ele>
        <time>2025-03-02T11:52:44</time>
      </trkpt>
      <trkpt lat="45.62654" lon="5.94632">
        <ele>903.7</ele>
        <time>2025-03-02T11:52:45</time>
      </trkpt>
      <trkpt lat="45.62654" lon="5.94632">
        <ele>905.4</ele>
        <time>2025-03-02T11:52:47</time>
      </trkpt>
    </trkseg>
  </trk>
</gpx>